GFSMW_925_spd_000.txt.gz
Wind_Speed
13 14 16 16 13 12 11 10 10 9 8 7 6 6 5 5 3 2 3 2 1 2 4 5 7 7 7 7 9 10 11 12 13 14 14 16 17 24 21 20 21 22 31
9 14 17 18 19 18 16 13 12 11 10 9 7 7 6 5 4 4 5 5 4 4 4 6 8 9 11 11 10 11 12 11 11 10 16 6 9 12 18 25 25 26 23
6 10 16 21 21 21 18 17 15 14 13 11 8 7 8 8 8 8 7 7 8 7 7 8 10 11 12 13 14 14 14 15 14 8 7 5 4 12 9 12 23 24 22
4 6 10 17 21 22 20 19 18 17 16 14 12 12 11 11 9 9 10 9 8 9 9 11 12 13 14 15 17 17 18 19 19 18 13 14 16 6 8 10 13 13 23
6 7 8 11 17 20 21 20 20 19 18 15 15 13 14 13 12 11 11 10 9 8 10 11 13 15 17 19 20 20 21 22 24 22 22 20 19 20 13 12 14 15 14
8 8 9 10 15 20 21 20 21 22 20 17 17 18 17 16 13 11 9 9 8 10 11 11 13 15 18 20 22 24 25 26 27 28 27 25 19 18 15 12 13 15 20
10 11 10 11 15 19 22 22 21 22 21 19 18 16 14 12 10 7 7 7 9 10 13 15 17 19 21 23 24 26 28 29 31 31 30 29 27 24 24 21 16 13 22
11 12 11 12 14 18 21 22 21 21 21 19 16 13 11 9 6 4 5 7 9 12 15 18 21 23 24 26 27 29 31 31 32 34 34 33 31 28 26 24 19 13 14
12 13 12 13 16 19 22 23 22 20 19 15 13 11 9 7 5 5 6 9 12 15 18 20 22 23 24 25 26 29 30 31 32 33 34 35 34 31 28 26 25 20 14
15 15 14 17 17 18 19 20 20 19 17 16 14 11 9 7 6 6 9 12 15 17 20 22 23 25 26 27 28 29 30 32 33 33 34 35 34 33 32 29 27 27 23
17 17 17 20 18 17 14 17 18 17 17 15 12 11 9 7 6 8 11 15 17 20 22 23 24 26 28 27 28 29 31 31 33 35 36 37 37 36 34 33 31 31 29
18 16 18 21 16 14 15 16 15 15 13 12 11 10 6 5 8 12 15 17 20 21 23 24 26 28 28 28 28 30 31 31 33 34 36 38 38 40 38 36 34 32 32
19 19 21 19 15 15 14 15 14 12 10 9 9 7 8 9 11 14 18 20 21 22 24 25 27 28 28 29 29 31 32 33 35 36 36 38 38 38 37 38 35 34 35
20 22 23 15 15 14 13 13 11 10 9 9 9 10 9 10 13 16 19 20 21 23 25 26 28 29 30 30 30 31 33 34 33 34 35 37 37 35 36 37 37 35 33
23 23 21 17 14 14 12 10 8 7 8 9 12 10 9 11 15 18 21 22 23 25 26 28 29 29 30 30 29 29 31 31 32 32 34 35 37 37 35 32 33 33 29
26 23 21 17 13 15 13 6 6 8 12 12 11 7 8 13 17 19 22 24 25 26 27 29 30 31 31 30 28 30 30 31 32 32 34 34 35 36 37 40 39 33 24
16 22 21 15 11 12 8 8 10 11 11 11 8 7 11 15 18 21 23 25 27 29 30 30 29 31 32 31 31 31 31 31 31 32 32 32 32 32 33 33 38 42 40
13 18 15 11 8 12 12 12 8 10 10 7 5 9 13 17 20 22 24 26 27 28 30 30 30 32 33 33 33 33 33 33 34 34 34 34 33 32 32 31 31 33 35
14 17 13 15 14 13 16 9 13 10 7 4 6 11 15 18 21 23 24 26 27 28 29 30 31 32 34 33 34 34 32 30 31 32 33 34 34 34 35 34 32 31 31
21 13 11 15 15 10 8 10 11 8 5 4 7 11 15 18 21 23 25 26 27 29 29 32 31 31 33 36 34 33 30 28 27 28 30 32 36 37 36 35 32 29 30
18 8 9 11 8 7 7 9 7 5 1 5 9 12 15 18 20 22 24 27 27 28 28 29 30 31 31 33 33 34 33 28 26 25 25 26 31 38 42 41 35 34 31
2 5 6 6 6 8 8 7 5 1 2 6 10 13 15 17 19 22 24 25 25 25 25 27 28 28 29 27 25 24 24 25 22 22 22 23 23 28 35 42 39 39 31
5 4 5 8 10 5 4 4 2 1 5 8 11 14 16 17 19 21 22 23 24 23 23 23 25 27 24 25 22 25 23 21 18 19 20 26 29 35 34 39 39 39 31
5 3 8 10 6 3 3 2 1 2 7 10 12 14 15 17 18 19 19 21 22 22 22 23 23 26 26 24 26 24 23 18 16 15 18 18 20 11 8 14 33 30 28
3 6 9 7 3 4 3 2 1 4 8 9 12 13 14 16 18 18 18 21 20 20 24 23 24 25 24 27 29 21 20 17 15 15 11 10 11 10 9 8 17 23 24
7 10 7 2 3 3 2 2 2 5 7 9 11 12 14 15 17 19 21 18 18 22 22 22 24 25 24 26 19 16 17 13 10 7 10 11 13 13 12 10 9 17 19

GFSMW_925_spd_003.txt.gz
Wind_Speed
9 11 13 15 15 15 14 14 15 13 13 12 11 11 11 10 9 9 7 5 4 4 3 4 5 6 8 7 8 9 11 11 10 14 17 19 20 24 24 27 27 25 24
4 6 13 17 19 18 18 18 18 16 16 15 14 14 13 12 12 10 9 9 8 7 7 6 8 8 11 11 11 10 14 14 13 13 15 8 13 16 12 16 23 25 25
3 4 9 15 18 20 20 20 19 18 18 17 15 13 12 12 13 14 14 17 13 12 11 10 11 11 12 14 14 15 15 17 17 18 14 7 7 14 16 14 19 16 20
3 2 6 10 15 19 18 20 20 21 20 19 19 18 19 18 18 16 13 12 10 11 13 13 13 13 15 16 17 19 19 20 21 20 20 21 20 11 10 20 25 20 18
7 7 9 12 12 15 19 21 22 23 23 21 22 20 20 20 17 15 13 12 12 12 11 12 13 14 15 18 20 23 22 24 24 22 21 22 22 23 13 13 15 23 21
9 10 14 11 13 11 16 19 21 24 25 25 25 24 23 18 16 12 10 10 12 10 11 10 11 13 16 18 22 23 25 26 26 26 26 24 20 18 17 12 12 16 21
9 11 12 15 15 13 15 18 22 26 28 27 27 24 22 20 17 13 10 9 7 10 10 11 13 15 18 20 22 25 27 27 28 27 27 28 28 27 26 23 16 13 23
12 14 14 16 16 18 17 20 24 27 28 28 28 24 21 17 14 11 8 7 10 10 11 13 15 18 20 22 24 26 27 28 29 29 30 31 32 31 30 27 20 12 13
14 13 15 18 17 17 23 25 26 29 28 26 24 21 18 16 14 9 9 8 9 11 14 15 17 20 22 23 24 26 28 28 29 29 30 32 34 33 32 32 28 19 13
14 14 13 15 18 23 27 23 27 27 24 23 17 16 16 14 12 9 7 9 10 13 16 19 21 23 23 24 26 26 28 29 29 30 31 33 33 34 33 32 33 31 23
14 14 16 22 26 28 25 24 23 19 18 17 13 15 15 12 7 6 8 10 12 16 19 22 24 24 25 26 27 29 31 31 31 31 32 34 35 35 35 34 34 32 30
14 14 18 28 28 29 22 21 17 16 14 12 14 14 13 8 7 8 12 13 16 19 22 24 26 27 28 28 30 32 32 32 32 32 32 33 33 36 36 37 36 34 33
16 18 17 22 27 30 18 19 13 13 11 13 13 12 10 8 14 14 14 16 19 22 24 26 27 29 30 30 31 32 33 33 33 33 33 34 33 35 36 37 34 34 35
20 21 20 18 31 29 23 17 12 12 13 13 11 11 11 13 13 13 15 18 20 23 25 26 28 29 30 31 31 32 32 33 33 31 31 33 35 36 35 34 33 33 32
24 21 17 19 32 27 22 13 12 13 11 10 11 14 15 14 14 14 17 20 22 23 25 27 29 29 29 30 29 29 31 32 31 31 31 32 34 36 37 33 30 28 30
24 22 19 23 26 24 20 12 13 10 15 14 13 13 12 12 14 16 19 21 23 24 26 27 29 29 29 29 30 29 31 30 31 30 32 34 35 37 38 39 39 37 33
25 19 19 23 23 23 14 13 12 13 13 11 11 11 10 12 15 18 21 22 24 25 27 28 28 29 30 30 28 29 31 30 30 31 32 32 32 32 33 33 36 40 42
20 15 21 25 17 19 15 11 11 10 9 13 10 9 11 13 17 19 22 23 24 25 26 27 27 29 29 30 31 31 31 30 32 33 35 35 34 34 33 30 30 31 33
14 26 24 21 9 16 14 12 6 10 14 7 9 9 11 15 18 21 22 24 24 25 26 26 27 29 30 32 34 33 31 29 30 31 32 33 34 34 34 34 33 32 28
27 22 18 6 8 12 10 5 9 10 8 8 7 10 13 16 19 21 23 23 24 25 25 27 28 27 29 33 35 34 31 29 28 29 31 33 36 37 36 34 32 29 30
26 14 8 10 11 8 7 7 10 11 3 4 8 11 14 17 18 21 22 24 24 24 24 24 26 28 29 30 31 25 23 23 25 25 24 24 27 33 39 40 35 32 31
17 11 11 7 4 5 7 9 9 3 1 7 10 13 15 17 19 20 23 23 24 22 22 24 26 25 27 27 30 26 28 28 26 25 23 24 23 22 27 31 31 35 36
12 8 6 5 8 6 5 7 3 1 5 9 12 15 16 17 17 20 21 22 22 21 21 22 24 26 27 29 29 28 31 28 25 24 25 25 26 28 32 36 42 36 33
6 6 5 8 9 2 1 3 0 4 8 11 13 15 16 16 18 19 19 20 20 22 22 22 23 26 28 28 28 31 24 23 21 19 19 21 23 23 28 27 25 27 27
5 4 7 9 7 1 1 1 3 6 10 11 13 14 14 16 18 18 18 20 21 19 23 24 25 25 26 27 33 25 22 22 18 20 15 11 13 15 15 7 8 17 20
4 7 9 7 4 2 3 4 6 8 9 11 12 13 14 16 17 19 20 18 19 23 23 22 21 26 24 29 25 23 18 22 19 12 13 13 14 15 16 15 8 11 14

GFSMW_925_spd_006.txt.gz
Wind_Speed
6 3 12 12 10 10 10 12 13 13 13 13 12 13 13 14 14 15 14 10 10 9 7 5 2 3 5 6 8 9 10 15 17 20 18 16 23 22 26 21 21 28 27
6 9 6 8 9 11 14 15 16 15 16 15 16 17 16 18 21 18 19 17 12 12 10 10 7 6 5 8 11 11 11 13 16 15 18 6 16 19 21 19 19 15 17
6 6 1 4 8 13 15 16 18 19 19 21 20 19 19 17 13 15 13 17 20 17 15 13 11 10 8 8 10 14 17 18 15 17 16 7 6 13 25 24 27 20 24
4 3 1 4 6 15 16 17 19 20 21 21 22 24 19 18 22 24 24 29 27 21 18 14 13 11 9 10 12 12 13 17 18 19 19 23 24 9 12 17 23 24 27
6 6 8 11 5 7 9 16 18 21 23 23 24 27 26 22 22 16 15 12 10 9 7 8 11 13 9 9 12 15 19 19 20 20 19 21 24 24 12 13 13 21 20
7 6 11 11 13 9 7 11 17 22 25 26 27 26 28 25 17 19 10 8 7 7 3 3 3 5 8 10 13 16 19 21 23 24 24 23 18 17 15 11 14 13 21
3 4 7 10 9 12 14 13 19 23 25 26 28 30 27 25 23 20 14 11 8 5 3 6 8 11 13 17 20 22 24 24 26 27 27 27 28 27 26 25 19 13 27
3 7 7 7 10 12 16 17 21 23 24 28 31 29 30 23 20 18 12 7 4 4 5 7 11 13 15 20 22 24 24 24 26 28 28 28 26 26 26 26 20 13 15
5 7 7 10 10 11 14 21 26 25 26 27 29 25 22 20 13 8 9 4 3 5 4 8 11 18 19 21 22 24 25 25 27 28 29 30 28 28 28 30 30 23 15
10 7 6 12 16 21 20 25 24 23 24 25 20 10 8 8 7 5 3 3 6 11 11 13 17 19 21 23 24 25 25 26 28 28 28 28 28 29 29 29 29 28 25
6 5 4 9 15 19 21 27 25 19 20 16 19 6 6 7 7 6 5 5 9 13 18 19 19 22 24 25 26 27 28 29 30 31 32 33 32 33 32 31 31 30 29
8 10 13 14 16 16 24 31 25 17 14 14 5 4 7 8 8 9 5 7 12 19 18 20 22 24 26 26 27 28 29 29 29 30 30 31 31 31 31 30 31 30 30
12 15 16 13 15 23 31 32 24 16 9 4 3 5 6 8 10 8 9 14 18 16 20 22 24 26 26 27 28 29 29 30 31 31 30 31 31 32 32 32 32 30 29
16 16 12 13 19 25 28 24 23 14 5 5 6 9 10 12 11 11 8 16 17 19 21 24 26 27 28 27 27 28 30 30 29 28 28 28 27 27 28 30 31 29 28
17 17 18 16 23 25 26 19 24 8 5 7 8 8 6 10 13 10 12 14 18 22 24 25 27 26 26 26 25 24 24 24 27 28 29 30 32 34 34 32 32 31 29
17 19 18 20 25 23 20 18 19 7 5 5 7 11 12 11 8 11 13 18 22 22 24 25 26 26 25 24 27 28 23 23 25 28 30 34 35 37 38 39 40 38 34
17 16 15 19 25 21 13 14 16 11 8 8 6 8 11 10 10 11 17 20 22 22 23 24 24 25 25 25 26 27 27 27 29 31 31 32 32 33 34 35 37 39 42
19 19 19 23 20 13 10 11 10 9 2 4 10 13 8 8 11 15 18 20 21 22 23 23 23 24 23 29 32 35 33 30 32 33 33 33 35 35 35 35 34 33 32
15 22 25 18 12 12 11 12 6 7 8 15 5 3 5 9 14 17 17 19 21 22 22 20 22 25 29 29 32 33 32 31 33 35 35 34 35 36 35 36 33 33 34
22 21 16 14 17 15 11 7 7 10 6 3 2 4 9 13 15 15 18 20 20 22 22 26 21 23 28 31 32 33 31 30 25 26 25 28 31 38 38 35 32 29 30
19 17 14 17 15 9 5 8 9 11 2 6 4 7 11 14 16 17 19 19 21 23 25 18 22 26 26 29 29 30 30 28 31 28 28 26 27 27 30 36 35 33 31
16 14 14 11 7 6 6 9 8 10 6 5 7 11 13 14 16 17 19 20 22 21 18 23 23 23 26 26 29 29 30 35 33 30 27 26 27 28 26 25 26 27 28
12 13 11 6 8 10 6 7 8 6 6 8 10 12 14 16 15 19 18 20 17 18 20 19 22 25 25 25 27 28 33 27 29 28 26 26 25 25 28 30 33 36 30
13 10 7 7 9 7 2 5 4 6 8 10 11 13 14 15 16 17 17 17 17 17 17 21 21 24 23 25 27 32 28 25 26 25 26 25 25 22 23 26 30 31 29
8 6 7 9 10 3 3 2 5 7 9 10 12 13 13 15 16 15 16 16 14 19 22 22 22 21 22 25 33 29 27 23 25 21 18 17 15 15 19 25 7 5 7
7 7 10 8 7 4 3 4 5 6 9 10 10 12 13 15 15 16 16 16 18 21 22 18 19 23 22 27 27 28 24 20 20 18 15 16 18 16 17 20 10 5 9

GFSMW_925_spd_009.txt.gz
Wind_Speed
10 14 15 19 15 11 9 8 8 9 12 14 11 14 13 16 16 18 16 21 17 15 13 11 8 9 7 4 1 5 7 11 11 17 17 21 18 19 24 22 24 20 24
10 14 13 10 9 9 7 8 13 15 16 18 20 20 19 22 24 25 22 24 20 19 17 14 14 11 9 9 8 6 5 8 12 8 14 4 16 16 17 31 27 27 23
7 6 8 7 10 11 14 16 17 17 20 23 24 22 23 26 19 15 24 24 25 24 22 18 14 13 12 9 8 8 11 15 9 11 6 3 4 12 19 20 23 24 27
6 5 4 2 5 13 16 16 17 18 18 21 28 29 29 26 30 31 24 22 25 27 25 21 18 13 10 7 6 3 4 11 14 17 17 19 22 7 11 16 20 23 25
7 7 5 8 7 2 2 11 15 17 19 20 21 29 32 34 30 22 24 15 15 17 24 18 11 7 5 7 7 6 9 13 17 18 20 22 24 22 10 13 16 24 25
7 5 4 3 5 5 2 5 12 17 21 23 25 29 29 35 35 25 21 15 12 12 13 14 11 9 6 3 10 15 20 23 27 30 28 24 15 16 16 10 14 16 23
6 3 3 2 1 2 5 6 10 17 22 27 31 34 36 37 36 37 25 18 16 13 9 3 2 8 10 12 18 23 29 31 28 31 30 28 26 25 24 23 17 13 26
1 5 2 3 6 7 10 12 16 21 24 28 21 23 31 38 39 37 21 15 15 12 8 6 7 7 12 16 22 27 31 31 31 31 30 30 27 25 24 21 20 14 15
2 4 4 9 8 10 11 14 19 25 27 27 19 20 21 23 23 15 16 17 14 11 3 4 9 13 19 18 25 25 30 31 32 31 30 31 29 28 29 27 25 19 14
3 6 7 6 9 13 15 18 23 31 27 20 16 11 5 8 13 16 18 16 11 7 2 9 20 19 18 21 26 30 30 30 31 31 30 29 29 28 27 26 24 23 19
8 7 9 12 13 14 19 24 30 29 26 19 12 5 8 10 12 13 11 4 1 4 9 13 14 19 23 27 28 30 30 30 31 32 32 32 29 28 26 26 27 26 26
5 7 13 18 17 19 24 25 30 29 23 11 4 9 10 10 9 8 7 4 3 2 8 14 16 23 24 26 27 29 30 32 31 32 30 32 30 30 28 27 26 26 26
9 8 11 16 18 19 23 25 30 22 22 7 9 11 9 8 9 9 4 4 3 8 11 19 21 22 25 26 29 31 32 33 32 33 33 31 29 28 27 26 23 24 24
7 8 11 15 15 20 25 25 20 23 17 8 10 9 8 8 5 2 3 4 11 14 15 18 24 25 26 28 28 28 30 29 24 23 23 26 27 27 28 27 27 26 25
7 10 12 10 21 25 25 16 18 19 8 4 6 10 9 6 6 7 5 6 11 17 21 22 23 27 24 25 25 22 23 23 25 28 29 29 31 32 34 33 34 32 30
11 14 14 19 20 22 15 11 10 11 8 7 7 8 10 7 7 5 9 13 17 21 19 22 21 23 25 21 19 20 27 29 28 28 30 32 33 35 36 37 37 36 32
13 15 14 17 20 16 9 11 15 13 7 3 5 8 9 3 7 11 11 15 15 17 19 21 24 25 17 20 27 31 31 29 29 31 31 32 30 30 32 33 34 35 36
13 10 15 20 10 12 17 21 18 6 4 6 6 2 4 10 4 8 11 14 14 17 23 25 19 20 26 28 32 30 30 30 33 34 34 33 35 36 34 33 32 32 32
10 16 21 9 14 23 19 16 13 11 10 8 9 3 5 4 7 10 11 14 18 22 21 17 26 24 24 29 30 30 29 29 31 32 32 35 34 34 35 35 32 32 34
16 18 6 11 17 16 11 12 15 12 6 5 9 7 7 9 9 9 13 17 16 19 21 26 15 25 25 28 28 27 25 26 27 29 30 32 34 34 35 34 31 28 30
12 8 13 13 10 8 8 10 12 12 10 7 7 7 8 9 10 14 14 17 18 21 18 19 26 24 24 28 26 26 27 27 29 28 28 28 28 31 33 31 31 29 27
7 13 14 13 5 7 9 7 9 7 6 6 6 7 9 13 14 12 16 17 18 15 19 22 23 25 25 24 24 26 27 30 31 31 30 31 31 26 27 29 30 33 28
11 13 10 6 9 11 2 5 5 5 7 10 10 12 14 12 11 14 17 17 16 15 19 19 20 22 23 23 24 27 30 31 28 25 27 25 22 20 19 18 22 28 28
15 13 6 6 8 11 5 6 4 7 10 9 11 12 9 13 15 14 15 16 14 18 17 17 18 20 19 22 24 28 29 23 21 24 21 22 19 17 17 18 21 18 21
14 11 10 12 13 5 5 3 2 3 6 11 11 10 13 13 15 14 15 15 19 17 20 19 18 18 19 23 28 24 25 21 19 19 21 20 20 19 20 20 19 9 9
10 11 13 10 13 11 8 5 6 10 11 10 11 10 12 13 14 15 17 16 16 16 18 17 14 23 20 25 21 21 18 21 15 16 17 17 18 16 18 20 19 15 5

GFSMW_925_spd_012.txt.gz
Wind_Speed
5 10 21 23 21 18 15 13 12 12 13 14 15 16 18 18 20 22 22 25 23 21 18 18 16 16 14 14 14 9 8 7 6 11 12 12 14 7 24 10 20 26 22
7 14 20 18 15 16 13 13 13 13 15 17 20 20 20 24 26 26 24 27 28 28 26 24 22 19 18 17 15 11 8 8 7 3 4 3 11 13 11 26 17 21 21
8 6 10 12 11 13 12 12 13 14 16 19 22 23 24 25 26 28 28 32 32 32 32 31 27 23 21 21 18 13 10 8 5 3 2 2 3 15 18 22 24 18 22
5 4 5 6 9 11 12 14 16 16 19 21 25 28 30 30 35 36 35 32 28 33 35 33 30 25 22 18 14 8 5 1 3 6 2 10 12 4 11 16 20 26 24
6 5 6 8 8 8 6 8 12 16 17 19 21 24 31 37 39 39 35 32 29 29 34 32 28 22 18 16 10 2 3 6 9 12 15 21 22 19 8 12 17 26 23
5 6 8 7 7 7 6 5 8 12 13 18 23 26 30 34 36 38 39 36 29 25 28 31 25 20 15 12 6 5 7 13 17 20 25 20 10 13 10 8 14 16 25
9 6 5 5 3 6 5 7 9 11 14 19 23 27 31 34 36 37 36 33 21 19 19 21 17 16 10 7 6 12 17 23 25 25 28 28 26 25 21 17 17 12 21
5 2 5 7 10 11 10 9 10 15 24 28 31 32 29 25 26 27 30 27 24 20 19 21 12 4 5 13 17 19 22 20 20 25 28 30 30 28 26 19 17 12 12
8 7 8 9 11 10 10 13 20 26 33 30 27 26 22 23 22 21 16 17 26 22 16 12 10 11 15 21 18 15 18 22 26 28 30 30 30 29 29 28 24 18 11
8 7 10 9 7 9 14 21 30 33 32 27 26 23 21 16 13 7 17 25 20 14 7 5 15 16 6 9 12 19 24 26 28 29 30 31 30 29 29 29 27 25 21
5 5 8 13 17 18 17 21 26 24 25 24 23 19 10 9 13 14 18 14 9 2 10 14 6 8 11 13 19 23 24 24 25 26 28 30 31 30 29 27 28 26 23
4 4 5 11 16 17 18 22 27 24 22 27 21 11 12 15 16 14 11 7 2 2 2 6 9 11 15 17 18 21 22 26 29 30 29 30 28 28 28 27 27 27 27
4 4 8 13 18 23 27 27 26 17 21 26 17 12 14 13 13 13 10 6 4 3 4 8 11 14 17 20 21 24 25 26 28 29 26 25 22 24 24 21 21 23 23
5 6 7 13 18 20 23 24 16 16 20 16 6 5 5 6 10 9 6 3 2 6 9 11 14 17 18 21 21 21 21 21 19 21 25 28 29 28 27 27 27 25 25
7 7 7 10 16 19 22 18 12 16 17 13 5 5 7 6 5 6 5 8 11 10 14 14 15 17 17 19 17 18 17 22 28 33 33 33 32 31 32 30 30 28 27
8 13 11 14 17 18 18 13 18 23 20 17 6 4 2 1 3 10 6 10 12 12 11 13 14 18 19 16 14 20 25 29 29 28 27 29 30 31 32 32 33 33 30
13 13 13 15 18 15 11 17 17 16 10 3 4 4 5 6 7 7 9 11 9 9 12 16 18 17 14 20 22 21 26 27 27 29 30 30 28 28 30 32 33 33 35
16 14 16 19 19 13 18 14 9 6 9 10 7 8 8 9 8 5 5 7 10 14 16 16 16 20 20 19 25 25 27 28 30 30 30 29 29 29 30 30 32 29 31
17 19 21 17 12 18 16 10 13 14 12 8 8 5 7 4 5 7 9 11 13 14 16 18 17 16 24 24 24 25 26 25 27 28 29 28 30 32 32 32 30 30 31
21 15 10 13 15 10 7 9 13 8 9 9 5 3 4 5 7 9 10 11 14 15 17 12 19 24 26 26 23 22 24 24 26 28 28 28 31 34 35 33 30 27 28
10 14 19 18 16 8 8 7 4 8 6 4 4 6 8 10 10 10 12 14 16 14 14 19 23 24 22 24 23 22 24 24 27 27 28 27 30 31 33 32 28 28 29
18 23 18 16 8 8 9 3 3 1 4 6 6 8 11 10 9 12 14 14 14 12 17 21 24 25 25 23 22 23 24 27 29 27 26 27 26 26 25 21 23 26 28
18 19 17 11 9 10 7 9 5 0 3 6 8 10 9 10 13 13 13 13 11 17 18 21 22 25 25 24 23 24 25 27 26 19 22 22 22 21 19 19 18 19 20
14 17 15 12 16 16 3 1 0 1 4 7 10 8 12 12 12 12 11 11 17 17 18 19 18 18 20 22 26 25 23 22 14 16 23 21 20 21 20 21 18 14 14
14 12 11 11 11 9 4 2 2 6 10 11 11 11 9 10 14 13 11 15 15 14 18 20 13 17 20 22 21 22 21 18 17 18 17 22 23 21 22 22 20 20 16
8 10 11 8 5 7 1 4 7 10 12 12 11 8 10 10 15 13 15 12 11 14 14 13 13 21 18 18 20 19 14 15 14 15 16 17 19 19 19 20 20 20 20

GFSMW_925_spd_015.txt.gz
Wind_Speed
4 2 10 15 17 17 18 17 16 15 17 17 16 16 20 20 22 22 23 24 25 25 24 24 23 24 24 23 21 19 16 15 12 9 9 14 15 6 13 9 22 17 20
7 10 15 16 17 18 17 16 17 17 17 19 17 15 18 20 24 26 27 29 30 30 32 31 31 30 30 27 26 25 21 17 14 6 2 3 3 9 7 17 11 21 19
8 5 10 14 12 15 16 17 17 17 17 19 19 19 21 23 28 30 32 34 34 35 37 39 38 36 35 35 33 30 26 21 16 12 6 1 4 4 8 14 14 14 20
4 4 6 9 12 13 14 13 15 17 18 18 21 23 26 27 33 35 37 38 38 37 41 44 45 43 38 35 33 29 25 18 13 7 7 3 2 1 4 5 11 17 17
6 8 10 11 11 9 8 9 12 13 13 13 16 20 24 29 34 36 38 41 42 38 39 41 46 44 35 28 23 18 16 12 9 2 1 6 5 8 6 6 9 20 19
7 4 4 3 3 4 6 8 7 6 8 14 21 26 29 32 34 36 36 38 35 32 32 36 36 31 21 18 14 10 8 4 3 2 8 11 6 6 5 3 9 14 18
4 5 7 4 5 9 7 6 9 14 21 27 31 33 34 35 34 31 30 31 31 26 20 18 19 22 21 14 5 5 7 9 8 8 12 13 13 19 17 14 13 8 20
2 4 8 9 8 7 9 13 18 25 30 30 31 28 28 30 29 28 27 25 19 8 16 24 20 13 8 8 15 18 23 22 21 16 17 19 21 19 17 15 11 10 10
8 8 9 12 12 15 18 20 21 28 28 27 25 28 30 31 30 26 20 14 8 17 19 14 10 10 11 15 12 13 11 12 16 18 19 20 21 21 21 22 20 13 11
7 6 9 10 16 19 18 21 22 27 24 24 25 30 33 30 26 21 13 8 18 19 10 3 7 16 19 12 7 7 12 16 18 18 18 19 21 23 24 24 24 21 19
2 4 8 16 21 23 21 23 22 25 22 21 25 30 32 25 17 13 11 17 16 6 4 10 16 8 8 9 14 15 15 16 17 19 22 24 24 26 25 25 26 24 22
5 6 12 18 21 24 25 25 22 24 19 22 26 28 24 16 10 12 13 12 8 5 8 5 3 6 11 13 13 15 16 18 21 22 22 25 25 25 26 25 27 27 26
8 7 11 14 18 22 24 23 25 19 19 25 29 27 19 12 11 9 8 6 2 4 4 6 8 10 10 12 14 16 17 18 19 20 21 22 20 22 24 26 25 26 26
9 9 7 14 22 21 21 21 18 15 21 25 24 23 15 10 7 3 2 4 5 10 13 12 11 11 11 13 14 17 19 17 17 19 23 27 28 29 28 27 28 28 27
11 8 9 11 19 21 21 21 15 20 23 22 21 11 1 4 8 4 9 14 13 9 14 12 11 11 14 18 18 16 15 19 24 28 31 29 28 27 28 27 28 27 25
8 8 11 16 17 19 22 19 19 22 19 13 8 3 2 2 7 9 5 6 10 14 10 9 14 17 15 12 13 19 20 23 27 29 28 29 29 29 29 28 30 30 27
12 14 14 18 22 23 19 17 22 17 10 9 8 7 8 10 11 14 15 12 10 8 11 12 13 13 16 17 16 18 24 25 27 27 27 27 25 25 26 27 28 29 30
15 14 21 21 22 17 20 20 18 13 14 14 11 10 10 9 10 8 8 7 8 10 11 13 15 13 16 20 24 23 24 25 27 27 27 26 28 28 27 29 29 31 32
19 22 18 18 22 24 20 12 11 13 8 8 8 7 10 9 9 7 9 9 11 12 14 13 12 18 24 25 22 21 23 26 28 27 27 26 27 30 29 31 30 30 31
13 18 25 29 27 24 12 9 11 3 5 1 3 4 5 6 8 10 9 10 13 13 10 14 18 22 24 22 22 21 23 22 22 24 24 25 27 31 32 32 30 28 29
19 24 22 20 21 12 6 6 4 5 4 4 3 5 7 9 9 10 12 13 12 12 14 18 20 22 22 22 24 21 21 23 24 25 26 25 25 26 29 27 27 28 28
19 20 20 23 20 17 11 14 11 5 5 6 6 9 10 9 11 12 12 12 11 15 18 19 24 25 23 22 26 20 21 23 25 27 22 23 26 26 25 25 24 25 25
17 18 17 15 17 16 16 6 4 6 9 8 10 11 10 10 10 11 12 12 16 17 19 21 22 25 22 29 24 25 21 24 25 21 19 22 23 21 21 21 20 19 19
15 11 9 9 11 16 15 12 9 7 7 11 11 11 11 9 10 14 12 14 17 19 18 20 20 18 24 25 26 21 27 23 17 18 15 18 22 20 19 21 21 18 15
7 6 8 8 14 14 13 6 4 7 10 12 12 10 10 11 13 15 14 15 15 14 19 19 16 19 20 22 23 23 23 18 16 14 17 21 22 20 22 22 22 23 22
13 11 12 15 13 8 7 7 8 8 11 11 11 12 13 14 13 15 16 12 14 14 15 15 15 20 20 20 21 21 18 14 13 13 14 17 19 17 18 20 21 21 23

GFSMW_925_spd_021.txt.gz
Wind_Speed
4 5 7 9 9 12 15 16 16 15 13 12 11 11 11 13 14 15 19 20 23 26 27 29 30 30 30 32 31 28 24 21 21 11 16 18 19 19 17 15 14 13 10
6 7 6 1 5 6 9 9 6 7 8 10 11 11 17 20 24 24 25 25 24 25 24 27 29 30 27 32 33 30 23 21 21 17 15 7 11 14 17 17 16 13 9
5 7 13 13 12 11 8 6 7 8 9 10 11 12 12 13 14 19 25 27 28 29 29 29 27 27 27 28 31 32 29 28 22 26 17 6 10 8 9 17 16 12 11
9 11 14 15 14 14 12 11 14 16 16 16 15 16 12 14 15 18 20 26 26 25 25 25 25 25 24 25 27 28 30 28 28 17 25 19 12 9 10 9 14 12 10
10 9 11 13 16 20 20 18 15 15 18 20 19 15 12 12 15 19 23 25 27 28 27 26 25 25 23 22 22 23 22 25 27 26 17 18 14 9 12 11 9 9 10
11 13 13 15 15 16 17 16 17 16 18 19 17 18 21 23 24 30 30 31 30 29 28 24 21 18 16 14 8 6 6 8 9 9 6 5 9 12 7 5 7 11 15
11 10 12 11 13 15 17 16 17 13 21 24 27 25 22 23 22 26 28 29 27 23 22 17 12 5 4 9 10 8 7 5 4 4 4 4 3 1 2 3 5 7 13
6 5 6 8 10 12 16 15 18 25 26 23 22 19 19 22 25 26 30 28 25 20 13 3 4 7 9 8 5 7 6 3 3 2 3 3 1 1 4 4 4 6 11
6 8 11 12 12 16 18 22 22 19 17 18 17 16 19 25 24 26 27 26 23 11 3 4 5 3 2 5 6 7 9 2 4 6 5 3 5 6 8 11 14 12 10
8 12 17 18 17 13 18 17 16 15 16 17 14 15 20 20 23 26 24 20 11 2 3 2 5 5 6 5 5 2 1 4 6 6 10 11 11 12 13 15 16 17 19
8 10 14 15 15 11 14 14 15 14 14 15 13 19 21 22 23 20 17 11 1 3 6 6 6 8 8 8 8 7 6 6 6 6 8 10 12 13 14 15 18 19 20
9 10 11 10 11 14 17 18 20 18 18 19 18 21 21 20 16 9 6 4 5 8 7 9 10 11 10 9 9 9 6 7 9 11 13 15 15 16 15 15 17 19 20
11 9 12 14 15 18 20 21 22 19 18 16 18 16 13 11 7 5 5 6 5 9 14 16 12 12 10 10 10 10 11 12 13 14 14 14 13 15 17 19 21 22 23
7 8 10 14 16 18 19 21 21 19 18 18 16 11 8 4 5 4 6 7 7 8 7 10 12 11 10 11 11 13 13 14 15 16 17 18 17 19 20 20 21 21 22
8 10 10 14 16 19 22 24 24 22 17 15 12 8 5 6 6 5 6 7 8 9 12 16 13 12 13 9 13 15 16 18 19 20 20 20 21 21 22 23 23 23 23
7 9 11 14 17 21 22 22 20 17 15 16 13 9 9 9 11 11 9 11 13 12 11 9 11 12 12 15 16 18 19 21 21 21 21 21 21 20 20 20 21 23 23
8 9 9 14 16 17 17 17 17 13 14 12 9 8 10 8 10 10 11 11 10 9 10 11 12 13 12 17 18 18 18 18 19 21 22 22 21 20 20 20 20 22 25
7 7 10 14 17 19 18 16 14 15 9 11 10 11 12 11 10 11 12 12 10 11 12 13 11 13 16 19 20 19 18 18 20 21 21 21 21 18 19 20 21 23 24
9 9 13 15 17 17 16 14 12 13 8 9 8 12 11 11 12 12 12 11 12 13 12 12 14 16 17 19 20 17 18 20 20 18 17 19 20 21 22 23 25 25 27
8 12 14 14 15 17 16 13 13 11 7 9 11 13 10 11 11 12 12 11 11 12 12 15 14 15 17 19 17 18 19 19 19 20 19 19 20 21 20 19 22 25 26
8 9 10 13 14 14 11 10 10 7 4 9 12 10 11 11 10 10 10 11 12 12 15 17 16 15 16 17 19 18 18 18 20 21 21 17 18 21 16 19 20 21 23
10 13 11 12 11 8 7 10 11 8 9 11 9 9 10 10 9 9 11 12 11 13 14 15 16 15 17 17 20 18 18 20 21 20 18 14 17 17 17 14 16 17 16
13 12 12 13 11 11 11 14 14 10 11 9 8 8 8 8 9 10 11 12 12 13 15 17 19 20 19 18 20 20 20 21 21 15 17 14 15 15 12 12 14 14 12
14 13 12 14 14 12 13 16 12 9 7 7 7 7 8 10 10 9 10 11 13 15 16 18 19 20 20 20 22 22 22 21 14 16 9 11 12 11 12 12 12 12 13
16 14 14 15 15 14 14 14 12 10 7 6 6 7 8 9 8 8 10 12 10 12 16 17 18 19 20 21 22 22 22 16 15 10 8 10 13 15 16 16 13 12 15
21 18 15 15 15 14 13 13 12 9 6 6 5 6 8 7 8 10 12 10 10 12 12 13 14 16 17 20 18 20 18 15 12 7 9 11 12 14 15 16 15 14 16

GFSMW_925_spd_024.txt.gz
Wind_Speed
7 5 6 6 3 3 2 1 3 1 2 4 5 6 6 8 9 10 12 11 11 12 13 16 19 20 22 24 25 25 25 25 24 22 23 24 23 23 23 22 20 20 19
13 15 15 14 12 10 8 6 4 4 3 3 3 5 8 9 10 8 12 13 15 17 18 19 20 21 23 24 25 25 27 28 26 26 24 14 22 26 25 26 24 24 22
11 12 15 15 14 14 11 9 9 10 10 8 6 6 6 9 11 17 19 20 21 19 19 19 20 21 21 23 24 24 26 28 28 29 20 10 15 17 22 22 23 24 23
9 11 13 16 16 16 15 14 12 10 10 9 7 9 9 12 13 15 18 21 21 21 21 21 21 22 21 23 24 24 24 25 28 27 29 33 31 16 12 18 21 24 24
10 10 13 14 14 13 12 10 9 9 10 10 8 8 11 14 14 13 16 20 20 21 22 21 20 20 20 20 20 21 22 23 25 25 25 24 26 29 14 14 11 20 22
11 13 12 11 11 10 10 10 11 10 10 10 11 11 8 11 14 17 20 22 25 25 24 22 20 16 14 12 11 9 8 11 13 14 14 11 8 10 11 11 16 10 18
10 9 9 10 11 11 11 11 12 13 12 10 11 9 10 13 16 19 22 27 29 28 26 21 16 11 8 6 3 4 5 6 5 5 6 6 6 7 5 4 5 4 9
5 6 8 9 9 9 9 12 13 14 13 13 14 15 15 16 18 20 23 26 27 24 20 12 8 6 4 3 1 2 4 5 3 4 6 6 5 4 2 1 1 2 5
4 7 10 9 11 11 10 13 16 18 17 16 16 15 14 15 18 21 22 24 22 18 12 8 7 6 6 6 5 6 4 2 1 0 0 2 3 4 6 8 10 9 7
5 9 11 11 13 13 12 14 15 16 16 15 17 15 15 17 18 20 21 18 15 9 6 6 8 8 9 9 9 8 7 6 6 5 7 9 10 11 11 12 15 16 18
7 8 8 9 11 12 13 12 14 16 16 18 17 15 17 17 17 18 16 12 6 6 7 8 9 12 10 8 8 8 10 11 11 12 13 14 15 17 17 17 19 20 20
7 6 8 10 13 14 13 14 16 17 18 18 18 19 18 17 15 14 11 8 4 4 5 9 12 9 11 11 12 12 11 11 13 15 16 18 18 19 19 19 20 21 22
10 8 10 13 14 13 15 17 19 21 21 21 19 19 18 15 13 11 7 5 7 9 10 9 11 13 11 11 10 12 14 15 17 17 18 18 18 19 19 20 21 22 23
10 9 9 13 12 12 15 19 19 18 18 18 18 19 14 11 10 8 8 10 10 11 12 13 14 15 13 13 12 14 16 18 18 18 18 19 19 20 20 21 22 23 24
10 8 9 10 11 14 16 16 16 17 16 17 19 17 11 11 8 12 11 12 14 16 15 15 13 12 13 13 13 16 18 20 20 20 20 20 20 20 21 23 23 23 25
8 6 8 10 12 14 16 16 16 15 16 17 15 10 8 7 7 10 11 13 14 15 14 14 15 16 16 14 15 17 19 20 21 20 20 20 21 22 20 20 22 24 24
7 8 10 10 13 15 17 16 16 15 17 14 12 9 10 10 9 10 13 15 16 16 15 15 16 16 15 15 18 18 20 21 20 21 21 23 22 20 21 20 19 21 25
9 10 10 13 14 16 16 16 16 14 15 13 12 10 11 10 11 13 14 16 15 16 16 16 15 16 17 17 16 20 20 20 21 21 23 22 22 20 19 20 21 21 22
12 13 12 12 14 16 16 16 16 15 13 12 10 13 13 13 13 14 15 15 15 16 15 15 16 17 18 17 18 18 20 21 22 22 20 20 21 21 19 21 22 23 24
15 13 14 14 15 17 14 14 14 13 11 8 10 12 12 13 14 14 14 14 15 15 15 16 17 17 18 17 17 19 20 20 20 20 20 20 21 20 19 21 23 18 25
15 16 16 16 17 15 13 12 14 13 10 11 12 12 12 13 13 13 13 14 15 15 14 16 16 15 14 18 16 18 19 19 20 22 22 19 15 11 18 18 19 20 20
18 17 17 19 19 16 14 15 16 14 14 13 12 12 12 11 12 13 14 14 15 15 13 14 15 15 15 16 16 18 21 19 22 23 20 16 19 18 18 16 14 16 18
20 20 20 22 21 18 17 17 17 15 13 11 11 12 11 10 12 13 14 14 15 15 14 15 17 17 18 18 16 20 20 20 22 18 19 16 16 15 13 10 12 12 10
23 23 23 23 24 20 19 18 17 14 12 10 11 11 11 10 12 12 12 13 14 12 15 16 16 18 19 18 19 21 22 21 17 18 14 12 12 11 10 9 8 8 9
22 22 22 22 23 23 21 18 15 13 11 10 10 10 9 10 11 10 11 11 11 10 13 15 16 18 18 18 21 19 21 18 17 15 10 10 11 11 11 11 10 9 11
24 22 22 24 25 26 22 18 12 9 10 10 9 8 9 10 9 10 11 9 8 10 9 10 11 14 15 17 17 18 18 14 13 8 10 11 12 12 13 14 15 12 12

GFSMW_925_spd_030.txt.gz
Wind_Speed
20 24 24 21 19 15 14 13 11 10 6 4 4 7 10 10 8 6 4 6 6 10 12 14 14 16 21 20 21 22 24 26 24 26 25 27 29 29 31 37 32 31 32
13 18 20 21 19 15 13 12 12 11 9 8 6 5 6 5 6 7 3 11 9 8 15 17 18 16 20 22 22 23 25 24 22 22 21 10 20 24 30 32 35 38 37
12 12 16 17 16 14 13 11 10 10 10 10 7 7 9 10 10 12 15 14 15 15 15 15 18 18 19 18 21 25 26 24 23 22 19 10 10 14 21 27 23 25 31
11 12 14 14 14 12 11 9 7 7 8 9 9 10 11 13 16 17 14 12 15 14 17 18 19 18 19 19 21 20 24 22 21 21 18 21 19 5 9 19 23 22 20
9 9 12 13 12 9 8 6 6 5 3 6 7 8 10 12 14 16 15 17 13 19 19 21 23 21 21 23 19 11 13 13 17 18 21 21 23 22 7 8 9 18 17
8 10 9 10 12 7 5 6 8 10 10 5 6 8 9 11 13 14 15 14 18 19 20 22 23 19 12 12 14 13 14 15 15 19 18 13 6 8 4 3 10 11 18
5 4 6 6 5 3 2 4 7 10 13 14 13 11 11 13 13 16 15 16 18 20 23 21 14 12 15 16 14 12 11 13 18 13 15 12 8 6 5 5 4 4 10
3 2 6 5 9 10 11 11 12 14 14 15 14 13 14 14 14 16 14 15 17 18 12 12 15 14 11 11 12 12 13 13 12 12 10 11 10 8 7 5 5 3 4
2 4 7 9 7 9 10 9 11 13 13 15 16 16 15 16 16 16 16 16 15 10 11 15 14 14 14 16 15 14 14 13 12 11 13 14 13 12 14 12 11 5 3
2 3 4 3 4 8 11 11 12 15 16 17 17 18 19 17 19 18 14 9 12 10 11 16 15 17 17 14 12 12 12 12 14 14 14 16 16 16 17 16 15 14 12
5 4 7 9 9 10 12 11 12 13 15 18 19 19 19 18 17 13 15 14 15 14 15 15 15 16 18 15 15 15 16 16 15 16 17 17 19 22 20 17 17 18 20
5 3 7 8 4 7 10 12 11 13 16 17 18 18 17 18 17 17 15 15 14 14 15 15 14 14 17 18 19 18 18 19 15 17 19 21 20 21 20 19 20 20 21
4 4 7 8 10 14 10 8 12 13 16 16 17 18 17 12 13 13 13 16 17 15 14 16 16 18 19 19 19 20 18 11 17 21 25 25 24 23 21 22 22 21 21
12 10 8 11 15 14 10 11 13 14 17 17 17 18 10 11 11 13 13 14 13 13 15 16 18 20 21 21 18 13 15 16 18 21 24 27 27 25 23 16 20 22 24
13 13 11 15 17 15 13 14 13 16 16 18 17 18 7 9 10 15 16 16 15 16 17 19 19 20 20 13 14 15 14 16 20 23 24 26 27 28 26 25 22 20 20
13 14 15 16 15 13 15 13 16 16 18 21 18 20 11 11 11 14 15 16 16 17 18 18 19 19 18 14 15 17 20 19 20 24 26 26 25 25 21 17 16 17 17
14 15 14 16 16 17 14 16 20 17 17 21 21 15 8 7 12 16 17 17 16 16 17 18 18 15 17 15 20 20 23 20 22 23 25 25 23 25 22 20 19 18 17
13 13 15 17 20 17 19 21 18 16 19 21 18 18 8 12 12 15 16 14 15 17 16 17 11 15 17 22 25 26 22 23 21 22 26 25 27 25 25 26 24 25 22
14 17 20 18 20 21 18 20 21 21 22 22 25 17 12 9 11 14 14 13 16 17 16 11 13 16 20 24 22 22 23 19 20 23 24 23 25 27 26 27 23 24 23
16 19 21 21 21 22 25 26 25 25 23 24 11 10 17 17 8 11 12 14 16 15 13 11 16 16 20 20 21 21 18 19 20 22 23 24 24 22 11 15 16 18 20
19 23 23 22 24 26 27 25 28 26 26 21 23 8 10 17 9 9 12 15 16 12 11 14 18 20 18 20 20 17 14 17 20 22 23 25 24 21 22 18 20 21 20
22 23 23 24 22 24 26 25 24 29 25 23 24 14 17 10 10 13 12 14 14 11 12 15 18 18 17 17 18 14 17 22 22 23 25 24 28 23 20 19 17 17 17
22 23 22 25 26 26 24 23 27 26 27 23 14 14 6 8 10 10 13 13 11 10 12 13 17 17 18 19 16 20 24 22 24 24 25 25 23 17 17 18 17 15 17
22 21 24 24 23 23 25 27 24 26 27 22 13 10 8 8 10 7 12 12 10 10 10 12 14 15 17 19 21 24 23 22 24 25 24 23 15 16 18 18 17 15 11
23 25 23 23 25 26 23 23 23 21 19 10 10 9 10 9 7 9 11 11 10 12 12 13 12 12 15 17 22 22 22 24 22 24 21 15 17 17 19 19 20 19 18
24 24 25 27 28 25 22 22 18 15 14 13 11 8 7 8 9 10 10 11 14 15 14 14 13 13 12 16 19 20 21 20 17 18 14 14 15 15 17 17 18 17 17

GFSMW_925_spd_033.txt.gz
Wind_Speed
18 27 29 31 30 25 23 19 23 18 15 13 9 7 9 6 6 6 3 5 3 2 7 12 13 15 16 19 22 21 22 26 27 28 25 24 24 26 27 26 29 35 35
13 20 27 27 26 23 21 19 15 13 15 13 11 9 10 8 8 11 13 12 10 11 11 12 14 15 15 16 16 20 24 24 18 16 19 6 15 19 19 21 22 25 22
12 11 19 22 23 21 19 17 13 11 9 10 8 5 6 9 14 16 15 14 12 11 13 14 16 17 18 18 20 22 17 14 13 13 9 4 4 17 16 24 24 23 22
11 13 17 17 16 15 15 11 7 5 7 8 7 8 7 8 12 14 15 13 11 14 16 17 18 20 20 19 15 9 11 13 13 11 14 15 9 5 8 8 23 18 23
10 9 16 15 12 10 9 7 10 7 4 6 6 6 4 6 8 10 11 11 14 15 18 20 24 21 13 10 13 15 14 13 11 11 10 13 17 10 5 9 10 22 23
9 13 17 15 13 10 8 5 8 13 16 15 14 11 10 10 9 11 9 11 13 15 16 16 13 13 16 19 18 14 13 14 14 17 20 10 6 7 5 4 11 14 13
7 7 13 13 10 10 10 11 12 13 12 11 10 10 12 12 13 13 10 12 13 11 11 13 15 20 19 15 13 14 17 17 18 13 12 10 11 11 10 6 7 6 12
5 6 11 13 13 10 6 4 5 5 8 10 13 13 14 15 12 12 16 11 7 9 10 13 17 16 13 14 15 15 13 14 12 11 11 10 13 13 15 11 8 7 5
6 8 13 12 9 5 4 5 7 7 9 9 10 13 13 14 16 14 7 7 9 10 16 15 11 13 19 15 13 13 16 15 14 11 13 14 18 18 13 14 14 8 5
3 5 6 8 10 9 7 6 6 10 10 11 13 15 17 17 12 10 12 13 15 14 13 14 12 17 16 15 15 15 15 17 16 16 16 17 17 18 21 20 20 17 16
4 5 9 13 9 8 8 10 11 10 11 14 16 15 15 12 9 10 12 13 16 13 14 16 15 16 16 16 17 18 19 17 16 10 9 13 16 19 21 19 18 17 17
4 8 11 12 13 13 8 9 9 10 11 13 14 14 16 10 11 10 12 16 19 17 17 16 16 17 17 17 18 15 13 5 6 10 14 20 23 23 24 24 21 21 17
13 13 19 18 19 18 6 8 9 7 12 12 12 16 18 10 10 9 10 12 16 16 15 15 15 15 16 17 16 9 9 11 14 18 20 21 24 26 27 28 29 21 18
9 8 10 14 18 19 13 12 6 10 12 10 14 16 14 12 8 6 9 12 12 13 12 17 16 16 18 13 11 14 15 16 18 20 22 24 23 23 25 26 25 24 23
10 8 6 11 15 16 17 20 9 14 17 17 17 20 20 11 5 7 8 11 10 10 12 15 16 15 10 11 13 15 18 21 23 24 25 22 21 21 21 17 17 17 18
6 6 8 12 15 16 17 13 21 23 23 16 19 22 31 12 10 9 12 10 10 10 8 11 11 7 9 10 16 21 21 23 22 24 23 23 21 19 22 18 18 17 18
6 6 9 15 18 21 24 26 21 19 17 23 23 24 15 9 11 10 12 10 9 9 9 10 5 7 11 14 21 21 21 21 23 22 22 27 22 24 23 23 24 22 18
7 10 17 21 28 30 24 21 24 26 24 22 24 16 6 10 14 16 11 4 6 10 12 3 5 10 15 19 20 19 22 21 21 21 22 25 27 25 26 25 25 26 25
15 18 24 25 14 19 22 21 21 23 24 19 22 20 21 14 11 10 6 10 10 11 0 4 9 14 18 18 20 22 19 21 19 19 21 24 26 25 23 20 16 17 18
20 19 14 22 22 21 24 26 27 27 19 24 19 19 15 6 5 7 10 5 9 1 3 7 12 17 18 18 19 16 18 17 19 20 22 21 22 23 21 25 19 17 21
13 18 20 18 20 25 27 26 22 18 18 23 26 20 16 10 8 6 6 7 5 5 7 12 15 17 16 16 16 14 17 20 20 19 21 23 23 26 24 20 18 21 20
19 21 17 20 23 25 27 16 20 13 17 23 20 18 16 8 3 5 7 5 5 6 9 14 15 15 15 18 15 19 21 20 22 21 23 26 26 24 16 16 19 18 15
20 19 23 23 24 25 21 20 11 14 17 19 16 11 13 10 6 6 5 7 6 9 12 12 14 13 17 17 18 24 19 20 21 22 23 22 17 18 16 17 17 18 16
17 21 22 21 21 25 26 19 18 12 12 14 14 14 13 12 5 7 9 8 8 11 12 12 14 15 16 18 20 24 23 24 23 23 22 15 18 17 18 20 19 18 19
19 21 21 20 23 26 26 26 13 11 11 15 16 15 12 5 7 8 7 7 10 12 14 13 13 15 14 14 17 20 21 22 21 16 15 16 19 17 18 18 20 20 20
21 20 21 22 23 24 25 22 16 15 16 12 14 9 9 7 7 7 7 8 11 14 14 14 14 13 11 13 17 17 18 18 18 15 15 15 17 15 16 17 18 20 20

GFSMW_925_spd_036.txt.gz
Wind_Speed
15 26 31 30 29 29 26 23 17 15 11 9 7 11 11 16 13 14 13 11 8 7 6 6 7 9 11 12 13 17 20 25 22 22 23 22 25 13 15 14 20 24 19
13 18 26 24 25 23 20 21 20 18 17 16 14 13 10 14 16 13 12 10 8 7 8 9 12 14 15 17 19 21 19 12 13 9 15 4 17 8 24 29 23 21 20
13 10 19 22 22 21 18 16 14 13 13 14 13 13 13 12 12 12 9 8 6 7 9 11 15 18 21 21 19 16 14 9 10 10 4 3 3 13 7 27 18 24 27
10 12 16 17 17 17 16 14 11 13 13 13 14 11 8 8 9 9 6 7 9 11 13 16 19 21 16 11 10 11 12 12 8 7 6 5 6 3 8 4 22 14 30
10 9 15 15 14 14 13 15 14 11 10 9 9 7 5 3 3 4 7 9 11 14 16 17 19 16 11 12 15 12 6 7 6 7 11 10 9 4 2 8 7 19 18
7 11 14 14 12 11 10 11 11 10 5 4 4 3 4 3 4 6 7 8 9 10 12 11 9 9 14 14 8 7 10 10 9 9 7 3 3 5 4 6 14 15 12
7 7 10 11 10 10 12 10 7 9 7 7 7 6 4 3 4 5 9 10 9 8 7 9 14 15 15 13 12 13 12 12 13 9 8 8 8 8 10 11 11 6 15
5 6 12 13 15 13 8 6 8 12 9 9 7 5 6 7 8 9 7 3 5 6 11 14 13 12 12 12 11 11 12 12 11 11 9 11 11 13 11 9 7 7 5
6 8 15 14 8 4 4 7 12 11 8 6 5 7 8 8 8 5 5 7 9 12 10 10 11 11 12 16 14 13 15 16 17 17 15 14 14 14 16 17 16 11 7
1 2 5 8 11 9 9 10 8 5 3 4 8 9 7 7 7 7 6 6 8 8 9 10 13 12 16 16 15 16 17 20 20 17 15 10 9 10 11 16 18 17 17
7 8 15 16 15 11 9 7 5 3 4 7 9 9 8 11 11 11 8 8 12 12 12 12 11 11 13 14 14 15 15 13 8 5 8 11 12 19 21 23 22 20 20
11 10 12 14 14 7 2 2 3 3 4 8 8 9 14 16 16 16 12 8 10 10 9 9 10 10 12 10 9 9 4 7 9 12 15 18 20 22 24 23 23 22 22
6 6 10 11 13 13 8 7 7 5 7 11 15 18 18 19 19 17 12 9 10 10 9 6 9 11 8 8 4 4 5 7 10 14 17 20 22 24 23 23 24 23 23
5 4 5 8 10 11 11 12 15 9 13 15 17 18 19 21 19 16 13 12 11 10 9 5 4 8 9 6 5 7 11 16 18 18 18 19 18 20 21 22 18 16 18
6 6 5 10 11 11 12 14 15 19 21 21 19 18 23 19 17 19 14 14 14 9 9 7 4 8 7 6 6 12 18 19 17 16 17 16 16 18 18 17 17 14 17
5 5 7 10 14 18 21 21 20 20 20 20 24 25 25 20 15 16 19 15 11 15 8 3 8 7 5 5 13 17 17 16 17 19 18 19 18 16 20 18 18 19 18
5 5 8 13 19 19 16 17 17 18 19 18 14 17 19 13 8 12 13 19 18 14 4 8 5 2 6 9 12 13 15 17 16 19 20 21 17 24 23 24 22 22 21
4 8 14 19 17 13 14 15 18 20 17 14 13 14 13 15 15 15 9 6 4 9 13 6 1 5 8 11 12 14 14 13 16 17 17 20 25 23 21 23 23 22 17
9 14 11 9 7 11 15 18 22 13 10 13 15 19 17 20 19 12 10 16 14 12 6 3 3 8 10 10 12 14 15 16 18 20 22 23 22 21 21 22 22 22 22
9 6 8 8 15 21 23 22 14 12 10 12 17 20 17 17 15 12 13 13 6 3 4 3 6 7 9 12 11 14 19 22 19 18 20 20 20 21 23 24 24 20 20
10 11 14 17 19 22 22 21 18 8 9 13 17 16 14 11 11 10 6 3 2 4 2 6 6 7 11 13 12 15 19 19 19 19 20 22 22 23 16 17 17 20 20
11 14 16 18 19 19 23 23 22 12 12 13 14 12 12 14 9 3 6 4 6 1 4 5 7 9 11 12 14 17 16 18 18 22 22 24 18 19 16 15 16 15 14
12 15 17 18 19 20 20 22 23 20 10 8 9 13 13 12 9 1 3 3 1 3 6 6 9 10 11 12 16 18 16 20 20 19 18 14 16 15 15 16 15 14 16
11 16 16 16 19 19 20 21 25 14 9 10 11 14 13 10 4 4 1 3 3 7 8 9 10 11 12 13 16 19 18 21 21 14 14 15 15 15 16 17 17 18 18
14 16 15 17 16 21 24 21 19 20 18 17 13 10 8 3 4 3 3 4 5 8 10 10 11 12 13 12 14 17 17 18 16 15 13 16 17 16 16 19 19 19 19
17 17 18 18 19 23 22 22 19 19 19 17 10 6 5 4 5 7 5 6 8 7 10 9 12 10 11 10 14 12 11 15 13 13 14 15 17 15 15 17 17 18 20

GFSMW_925_spd_039.txt.gz
Wind_Speed
6 19 26 33 31 24 18 13 7 9 7 9 12 13 17 15 15 13 11 8 7 7 9 9 10 12 14 16 19 22 23 22 19 12 20 20 11 14 16 19 20 21 20
6 15 24 28 28 25 24 21 20 18 15 15 15 12 12 11 8 7 8 7 8 8 8 9 11 14 18 21 20 18 15 11 14 10 14 4 12 6 21 23 22 20 22
9 8 16 23 23 23 20 18 17 16 15 12 10 9 7 5 3 2 2 1 4 5 7 9 12 16 18 15 13 14 15 15 17 12 4 4 3 11 6 26 8 22 24
6 9 15 18 20 18 16 17 15 13 10 6 4 2 1 2 0 2 2 1 3 8 10 13 14 16 14 14 15 17 16 11 11 12 5 9 10 2 4 3 15 18 24
7 8 12 16 15 16 17 16 13 11 10 7 4 4 4 2 2 1 2 4 6 8 9 9 9 9 10 13 14 8 6 8 11 10 10 10 11 9 3 6 6 14 15
3 5 10 13 13 12 14 14 12 10 7 7 7 6 5 2 1 5 5 7 8 6 5 6 9 12 11 10 9 9 9 10 9 10 9 5 5 7 8 4 6 10 12
7 7 9 11 9 7 9 8 6 7 6 6 5 4 4 3 4 6 9 10 8 5 6 11 13 10 10 9 9 9 8 8 8 9 10 9 12 11 11 11 10 7 15
6 7 9 5 3 5 5 4 8 9 6 4 4 4 3 5 9 10 8 5 5 7 10 11 10 9 9 9 11 12 11 11 12 14 14 15 15 14 13 12 7 7 9
3 4 7 6 3 1 3 8 9 8 5 5 5 6 7 10 11 10 7 8 9 9 10 10 10 10 10 12 12 9 10 12 13 15 17 17 19 13 10 9 13 9 6
7 7 12 11 8 3 4 4 2 2 3 5 7 10 10 10 10 12 15 15 11 11 11 12 11 9 8 8 10 11 12 13 13 12 10 7 5 7 13 16 17 21 16
6 7 14 12 8 3 2 1 3 4 5 7 10 11 15 15 14 17 17 16 14 13 11 11 10 8 7 7 9 11 10 9 5 4 6 9 12 14 19 21 21 22 20
7 8 11 13 11 9 5 6 6 8 9 9 13 16 16 15 17 19 20 20 16 12 14 13 13 13 10 11 8 9 5 5 7 10 14 17 19 21 22 22 22 22 22
7 7 9 8 6 6 5 6 8 13 13 14 16 19 21 19 20 20 21 20 16 14 14 14 14 13 10 9 7 5 6 8 11 15 17 16 18 20 20 21 22 22 19
5 3 4 5 5 7 12 13 14 13 13 16 17 18 20 20 20 18 17 18 17 18 18 17 13 15 9 7 6 6 9 15 17 15 14 16 16 17 19 21 19 16 19
3 2 2 5 9 11 9 9 12 14 16 18 17 15 16 18 21 20 21 17 18 16 11 12 18 14 7 8 5 10 15 17 17 16 16 18 17 18 17 17 21 23 18
2 3 6 9 10 7 8 10 11 15 18 18 11 13 16 15 15 17 16 18 16 13 20 9 5 12 10 4 10 14 16 17 17 19 19 21 20 17 17 22 21 21 22
4 4 5 6 5 7 8 12 15 18 16 10 9 10 14 15 18 21 20 20 20 14 2 4 10 8 4 7 11 12 14 15 16 18 19 19 15 21 23 22 21 22 22
4 5 3 5 5 10 14 15 16 14 10 7 8 12 16 19 23 21 17 18 10 11 8 11 5 2 5 8 10 12 13 15 17 20 20 20 22 22 21 22 23 22 23
3 1 3 4 9 12 14 13 14 10 9 12 12 15 17 19 18 14 16 15 15 10 7 5 1 5 8 8 9 12 15 19 20 17 20 19 20 19 19 23 26 26 25
5 5 6 7 10 12 11 15 18 21 19 15 15 15 14 15 13 13 11 12 9 5 5 2 3 5 6 8 7 11 16 18 17 19 20 18 17 20 19 19 22 20 21
9 5 6 7 9 12 15 19 21 21 24 19 14 13 11 14 14 13 7 1 3 3 4 2 4 4 6 7 8 12 14 17 19 19 19 21 18 17 19 17 18 18 17
4 5 8 10 12 16 18 19 22 26 25 16 12 11 15 17 14 11 9 8 5 4 2 4 5 5 7 7 10 12 13 16 18 19 18 18 18 17 16 16 17 16 13
3 6 9 11 14 16 15 22 21 20 19 13 12 15 14 15 13 3 2 2 3 3 3 5 7 7 8 8 10 14 14 15 17 15 15 15 15 15 15 16 16 16 17
5 9 10 13 17 13 18 19 17 19 18 16 18 16 13 11 4 3 3 4 3 2 5 6 7 8 10 9 11 17 14 17 17 16 13 13 13 13 15 17 17 17 18
8 10 11 14 16 14 19 18 18 16 14 18 19 13 8 7 2 3 1 1 4 6 6 9 10 12 11 10 10 14 13 15 15 14 12 15 17 17 16 17 17 18 18
9 11 14 16 17 17 18 19 13 13 15 17 16 8 5 1 3 6 7 7 7 6 6 8 9 9 9 9 10 10 9 11 12 11 12 14 15 16 14 16 16 17 18

GFSMW_925_spd_042.txt.gz
Wind_Speed
10 16 18 22 25 23 21 18 14 10 8 14 14 13 13 12 11 9 7 7 8 9 9 9 10 13 17 18 18 18 17 17 17 9 16 13 1 8 8 18 13 17 17
6 13 20 23 25 23 22 18 16 13 12 12 14 10 9 8 8 8 9 8 6 6 7 8 10 13 15 16 17 17 17 15 18 10 11 3 6 1 17 12 15 12 19
7 5 16 20 21 24 24 22 20 17 13 11 10 9 6 3 2 1 1 1 3 5 7 9 10 12 14 14 15 17 17 12 11 10 3 3 2 8 4 16 9 16 17
3 3 9 16 18 18 17 17 14 11 9 7 4 3 2 2 3 3 3 1 4 6 6 7 8 11 13 15 17 15 13 10 9 11 3 8 7 2 4 3 19 12 21
6 7 9 12 15 13 13 13 12 8 7 5 4 2 2 2 2 0 2 4 6 6 6 6 7 10 13 12 10 9 9 9 10 8 8 9 12 8 5 7 9 19 17
7 10 13 11 12 10 12 13 11 8 7 5 3 2 3 2 2 4 5 6 7 7 6 7 9 13 11 8 6 8 9 9 9 8 7 7 5 8 7 4 10 14 15
6 6 7 10 10 14 10 10 7 7 6 3 4 5 5 6 7 9 11 11 10 10 9 11 13 13 11 10 8 8 10 10 10 10 11 11 13 16 16 12 12 6 8
4 3 4 7 8 8 8 6 7 6 5 4 5 4 6 10 11 10 11 9 10 11 11 13 15 15 12 12 13 14 11 12 12 15 15 17 17 17 16 12 8 7 10
7 7 8 8 9 7 4 6 6 5 2 2 3 6 9 11 12 12 14 14 16 18 17 16 15 15 15 14 15 14 11 13 13 14 16 17 17 14 11 7 5 6 4
5 5 10 9 10 9 9 8 4 2 0 3 5 9 13 14 14 14 17 18 20 20 17 15 14 15 15 14 14 13 13 14 14 12 9 7 8 10 11 15 19 18 14
6 6 12 14 12 9 9 5 1 3 6 9 11 13 16 16 16 18 21 22 22 20 17 14 14 12 12 11 12 13 11 11 11 8 9 11 14 17 19 22 22 23 20
7 8 9 10 9 8 8 8 8 10 13 12 15 18 19 19 20 20 23 22 21 21 18 16 14 13 13 13 13 10 11 8 8 10 14 18 19 21 20 20 20 21 21
6 4 6 7 8 10 9 9 9 10 11 12 13 15 16 16 15 17 18 19 21 21 20 18 15 13 10 13 10 11 7 7 11 14 18 19 19 22 21 20 20 21 19
4 3 5 9 8 7 8 7 8 10 11 12 13 11 10 13 17 20 20 21 23 21 18 17 16 12 11 12 7 7 8 12 15 17 18 19 20 22 22 22 21 17 19
4 3 3 6 6 5 6 7 7 10 13 15 14 9 12 14 17 20 23 24 21 17 15 15 16 9 1 7 10 9 13 16 19 20 20 21 21 22 22 21 18 21 20
1 3 2 2 4 5 5 6 9 13 16 15 10 11 13 15 18 20 22 22 18 17 14 9 3 1 9 6 6 11 15 17 18 20 23 24 23 20 18 21 23 23 23
4 3 1 1 3 3 5 9 10 15 14 12 13 14 14 16 18 20 20 15 16 10 8 6 6 8 1 4 9 13 14 16 18 21 24 23 18 21 22 22 21 23 23
4 1 2 2 4 4 7 10 11 11 14 16 17 15 15 17 18 20 18 14 11 13 10 10 5 1 3 7 11 12 13 17 21 21 20 20 21 22 19 22 25 27 26
3 4 3 4 2 5 6 9 12 14 16 18 18 16 15 17 19 19 19 16 13 11 9 4 3 3 5 7 8 10 15 18 19 19 20 18 19 18 20 22 22 22 23
7 7 5 2 3 4 7 10 12 15 19 22 22 17 15 15 18 21 20 18 13 6 4 3 3 5 7 7 7 9 13 16 19 21 20 18 16 19 20 20 21 19 18
12 6 2 2 3 5 8 10 15 17 19 21 19 15 14 16 19 19 15 8 0 4 4 4 5 7 7 8 8 9 13 15 18 21 19 19 18 20 19 18 19 20 20
7 3 1 3 4 7 7 13 17 17 19 19 17 16 17 17 18 17 15 10 8 2 2 5 7 7 8 9 8 9 12 13 16 19 19 20 19 18 17 16 18 17 16
5 1 4 6 8 10 9 15 18 17 19 17 15 16 20 16 13 8 4 1 3 4 5 6 8 8 8 9 8 10 11 12 15 15 16 15 15 14 14 15 15 16 18
1 4 6 8 12 13 11 16 17 18 15 13 16 20 16 12 10 5 4 4 4 5 6 7 8 9 10 9 7 11 10 13 15 17 14 13 13 13 13 16 16 16 17
2 5 7 10 14 15 14 16 17 13 12 14 18 16 12 8 2 3 4 6 6 8 11 10 11 11 12 9 7 10 10 11 14 16 12 13 16 18 17 18 17 17 19
4 7 10 12 15 16 15 14 13 14 14 18 13 14 7 6 4 5 9 10 12 10 11 10 11 11 10 9 7 7 6 8 11 13 12 12 13 15 15 16 16 17 20

GFSMW_925_spd_045.txt.gz
Wind_Speed
5 7 12 14 17 19 20 21 19 12 12 6 11 16 12 10 10 8 7 6 5 4 5 6 7 9 11 12 12 10 11 12 11 12 13 12 5 6 4 6 6 9 10
9 11 13 15 16 18 19 18 14 15 13 17 17 13 12 7 6 5 4 3 3 5 6 7 8 10 10 12 13 11 11 11 10 9 12 4 6 5 4 4 5 8 11
12 10 10 11 13 16 17 16 16 15 15 15 14 11 9 6 4 2 2 3 4 5 7 8 8 9 10 10 13 12 10 11 9 7 5 4 4 12 7 9 8 12 12
8 9 12 13 14 17 20 21 19 18 16 13 8 5 2 2 2 2 2 3 6 7 8 8 8 9 12 13 12 9 8 8 11 10 5 7 7 4 7 10 17 17 15
8 11 13 12 8 12 14 16 15 11 9 7 5 3 4 4 3 3 4 6 8 9 9 8 9 10 13 12 11 7 7 7 8 8 7 7 9 9 8 9 13 16 16
9 9 10 12 10 10 10 11 9 9 6 5 4 5 5 4 4 6 7 9 10 9 10 11 12 13 13 11 7 7 7 7 7 7 7 9 9 12 12 10 17 17 19
10 9 9 7 6 6 7 8 8 7 6 6 7 7 6 7 10 9 9 10 9 11 13 14 14 13 11 10 10 10 10 10 10 10 10 10 13 16 17 17 13 12 18
9 8 9 9 7 7 8 7 8 8 7 7 7 6 5 8 8 9 9 10 12 13 15 16 16 15 14 14 14 12 12 12 11 11 11 12 13 13 13 14 9 9 20
8 7 7 8 8 8 7 8 9 7 6 5 4 4 6 8 9 12 14 14 15 17 17 17 17 17 16 16 15 14 15 14 14 13 14 12 10 8 8 8 8 12 12
5 6 7 8 8 8 10 9 7 5 3 3 4 6 9 11 13 15 17 19 23 24 22 21 18 17 17 16 16 17 14 16 14 11 8 8 8 9 11 12 13 15 20
8 8 10 10 10 10 9 8 6 5 4 5 6 9 12 12 14 16 16 17 19 19 20 21 21 18 14 14 14 12 13 9 9 7 8 10 12 15 16 17 17 17 18
10 11 10 9 10 10 10 8 6 6 7 6 7 10 13 14 12 11 15 17 19 21 22 19 15 14 12 10 9 10 6 8 6 7 11 15 16 17 16 16 17 18 19
10 8 8 9 10 9 7 6 8 9 9 9 12 14 10 9 10 13 15 19 21 22 20 15 12 11 11 13 9 8 5 6 6 11 14 17 17 18 18 18 20 21 21
8 7 7 8 7 6 6 9 7 7 9 12 13 12 8 8 11 12 17 20 21 19 15 12 9 8 12 9 3 3 4 6 9 13 15 17 17 19 20 22 22 22 21
7 6 6 6 6 8 7 5 5 7 10 12 11 9 9 11 12 15 19 21 19 13 13 10 9 8 2 1 4 3 5 9 13 15 16 17 18 20 20 21 22 22 23
8 8 8 6 7 7 5 3 5 7 12 11 9 11 12 13 14 16 18 16 13 10 10 12 5 2 4 4 3 5 8 10 12 16 18 19 18 16 17 19 20 20 22
9 8 7 8 8 6 2 3 6 8 9 11 12 14 14 14 14 14 14 14 12 10 9 9 5 6 1 2 6 9 7 10 12 15 17 18 16 17 17 17 17 18 20
10 8 10 10 9 4 1 2 5 8 10 11 13 14 14 14 12 12 14 14 13 11 12 9 7 4 2 5 8 11 8 10 13 15 16 17 18 17 17 19 18 18 21
10 10 10 10 7 3 1 4 7 8 10 12 14 15 13 11 10 12 15 15 13 13 11 7 5 4 3 6 8 8 9 11 15 15 16 17 17 16 18 21 21 20 20
12 13 12 8 5 1 3 6 6 9 10 12 14 14 10 9 11 15 14 14 12 9 4 6 4 5 6 7 8 8 9 13 16 16 17 15 16 19 20 19 18 19 19
14 12 9 5 1 2 5 5 7 9 10 12 13 11 10 13 15 14 14 15 8 5 6 5 5 7 8 8 8 8 9 13 16 17 18 17 18 20 19 17 16 18 18
10 7 4 2 1 4 6 6 9 11 11 12 11 10 13 14 14 13 11 9 6 6 4 4 7 8 9 9 10 9 9 12 14 16 16 17 18 18 16 14 16 16 14
10 5 1 1 3 5 6 8 11 11 12 12 12 12 14 12 10 9 8 6 4 4 4 5 7 8 7 8 10 10 11 11 12 13 16 15 15 15 12 13 14 13 13
6 3 1 2 5 7 8 9 11 11 11 12 12 13 13 13 8 6 5 5 4 5 7 7 9 9 9 9 9 8 10 10 11 13 13 12 12 12 11 12 12 12 12
4 2 2 3 6 9 10 11 11 11 13 13 13 14 13 8 7 5 5 6 7 8 10 10 10 10 12 11 9 7 9 9 10 13 10 9 10 11 12 11 11 12 13
3 1 3 5 8 11 11 11 9 11 13 13 14 12 13 9 9 9 10 10 11 12 12 13 12 12 14 13 12 9 10 10 11 9 9 9 9 10 11 12 13 11 13

GFSMW_925_spd_048.txt.gz
Wind_Speed
5 6 6 8 11 14 17 17 18 18 13 9 4 8 10 8 7 6 6 5 4 4 4 4 6 7 8 9 10 12 14 16 15 18 19 19 17 11 10 10 12 11 11
8 8 9 11 11 14 15 15 14 12 11 8 11 10 10 7 6 5 5 5 4 4 4 4 5 6 9 10 11 12 14 15 14 15 20 10 15 18 7 10 11 13 16
11 11 11 11 13 14 14 13 12 12 11 11 9 8 6 6 3 2 1 2 2 3 3 4 5 7 9 11 11 11 12 14 15 12 11 8 9 19 20 11 16 16 18
11 10 14 16 16 15 14 14 14 14 13 12 9 9 4 4 1 1 1 1 2 3 4 5 5 7 8 10 11 11 11 12 15 14 13 13 15 7 8 17 19 17 15
10 13 16 17 16 14 13 11 11 9 9 7 7 6 4 4 2 1 3 5 5 5 5 5 7 9 10 11 11 10 11 12 13 14 15 14 15 15 11 10 17 23 22
13 16 15 13 12 10 10 10 10 9 7 7 7 6 5 3 0 3 5 7 8 7 8 10 11 12 13 12 12 12 13 14 15 16 15 13 12 15 13 12 17 19 24
14 13 14 13 12 11 10 10 10 9 8 8 7 6 5 3 2 5 7 9 10 12 14 14 15 16 15 15 14 15 15 16 17 15 15 14 14 16 18 18 20 17 26
13 13 14 13 12 12 11 9 8 8 8 8 7 4 1 2 5 7 9 11 13 15 16 16 16 17 18 18 16 16 17 17 16 14 14 14 15 16 17 17 17 12 21
13 12 13 12 11 10 9 8 8 8 8 7 5 2 2 4 7 9 11 12 14 15 17 18 18 19 20 19 18 18 18 18 16 15 13 13 15 15 17 18 20 20 14
12 10 10 9 9 8 9 9 8 8 6 3 1 1 4 6 7 8 9 11 12 14 16 18 20 21 21 19 19 19 18 17 15 12 12 13 15 16 18 21 22 23 25
11 10 10 10 10 11 11 10 8 6 3 2 1 3 4 6 7 8 8 10 13 17 19 21 21 21 21 19 20 19 17 17 14 11 11 13 16 19 21 22 22 23 24
11 11 13 14 14 12 10 9 7 6 3 3 1 4 6 6 7 8 10 13 16 18 19 19 18 19 18 17 15 16 14 10 12 10 11 15 18 20 21 21 21 23 25
12 12 13 13 12 11 11 9 6 6 4 1 5 7 8 7 8 10 12 14 17 18 17 16 16 16 15 13 12 11 7 7 10 10 13 18 20 21 21 22 24 24 26
13 12 11 12 12 11 11 9 7 3 1 4 8 9 9 8 10 12 13 15 17 16 15 15 14 11 11 10 10 5 6 9 10 12 16 18 19 20 21 23 24 25 25
13 12 11 12 12 12 11 9 5 1 4 7 9 9 9 10 12 13 14 15 16 15 14 10 9 8 4 4 5 6 7 10 13 15 16 16 17 18 17 18 21 23 23
14 12 12 12 12 13 10 6 2 2 6 7 9 10 12 13 14 14 15 15 17 16 13 12 10 8 7 8 5 5 9 12 14 14 16 16 16 14 18 16 16 20 19
14 13 12 12 12 10 7 4 2 2 5 8 10 11 12 14 15 15 15 16 17 16 15 14 12 10 7 7 6 8 10 12 12 13 15 16 15 17 18 18 19 21 22
13 12 13 12 12 9 6 3 2 4 6 8 10 11 12 14 14 14 15 17 17 15 15 13 11 9 6 7 7 9 9 11 12 13 15 15 17 17 16 20 22 22 21
13 14 13 12 11 7 4 2 4 6 7 9 10 11 12 14 14 14 16 18 16 17 15 10 9 8 6 8 7 8 10 11 13 14 14 15 16 15 19 20 22 22 20
14 14 14 12 9 5 3 4 7 7 9 9 11 12 13 13 14 16 17 16 16 15 10 6 6 7 7 9 8 8 9 11 13 15 14 14 12 16 18 19 19 20 19
15 15 13 8 5 3 4 7 8 9 9 10 12 13 12 13 14 15 14 14 13 9 7 7 7 7 9 8 10 8 7 10 13 15 15 15 16 17 18 17 16 16 22
17 13 9 5 4 3 5 8 10 10 11 12 14 13 12 13 13 13 13 11 9 7 6 7 8 9 8 10 9 10 10 10 12 14 14 16 18 17 17 14 15 16 16
12 8 5 4 3 3 6 9 11 11 12 13 13 13 13 14 13 12 11 10 9 8 9 8 10 10 9 9 10 10 11 10 11 13 15 18 16 15 13 11 13 13 13
8 3 4 2 4 5 7 10 11 11 12 12 12 12 13 14 14 10 9 9 9 9 10 11 11 10 10 10 8 7 7 8 10 11 14 15 14 12 12 11 10 10 11
5 6 3 3 6 7 9 10 11 11 12 12 13 14 14 13 13 12 11 11 11 11 12 12 11 11 11 9 9 11 9 9 10 13 12 12 11 11 10 10 9 10 11
8 5 4 5 7 8 9 10 10 11 13 14 14 13 14 14 14 14 14 14 15 13 14 16 15 16 15 15 14 13 10 10 10 11 13 12 11 11 10 10 10 10 10

GFSMW_925_spd_051.txt.gz
Wind_Speed
8 8 6 7 9 12 15 19 19 17 13 9 6 8 6 10 11 8 6 4 2 2 3 4 6 7 9 9 10 12 14 16 18 20 22 22 27 23 17 17 16 13 15
9 8 9 9 12 13 16 18 15 16 11 9 8 11 14 13 11 8 6 3 2 3 4 6 8 8 11 10 11 13 15 17 17 20 22 11 20 21 16 16 20 17 17
11 11 13 12 13 14 15 17 15 14 12 12 12 11 9 8 8 6 5 1 3 4 6 7 8 8 9 11 12 13 14 18 18 17 19 12 11 20 23 23 22 22 20
11 12 14 17 18 18 16 15 15 14 12 11 10 11 12 6 5 2 1 3 4 6 7 8 8 9 11 13 13 15 16 17 19 21 20 20 22 11 12 19 20 24 23
14 14 18 19 18 17 16 15 14 12 11 7 7 7 4 2 2 2 3 6 8 8 8 9 9 11 14 15 16 17 17 18 21 21 21 20 20 19 16 12 17 22 22
14 16 19 20 17 15 14 13 13 12 10 8 6 4 4 1 2 3 7 8 9 8 9 10 12 15 17 17 18 17 18 19 19 19 20 18 17 15 14 9 17 19 24
15 15 17 18 16 16 14 13 12 11 10 9 7 6 4 2 3 5 9 8 11 12 12 13 16 18 20 20 18 21 20 19 18 18 18 15 16 14 14 14 17 14 25
15 15 17 15 15 14 14 12 12 11 9 8 7 5 2 3 5 7 10 12 13 13 14 16 17 20 21 21 19 20 21 17 17 19 17 15 14 14 13 14 15 11 21
16 15 16 14 14 13 13 12 12 11 9 9 7 4 1 3 8 8 11 12 12 14 15 16 18 20 21 22 21 19 21 19 18 17 13 13 11 12 14 16 18 18 12
16 14 14 14 13 14 12 10 11 11 10 8 5 4 4 8 8 9 11 11 11 12 14 16 18 20 21 22 22 18 20 18 17 18 14 12 12 14 15 18 21 23 22
16 13 14 12 11 10 12 12 13 12 8 5 4 7 4 7 9 10 9 10 11 13 16 17 18 19 19 20 20 17 18 18 18 19 12 12 12 14 17 20 23 24 23
14 12 12 13 13 15 15 14 11 11 7 2 5 5 7 8 10 10 10 11 13 14 16 18 18 19 20 19 16 17 16 16 14 10 10 11 14 17 20 22 23 24 25
13 11 13 15 16 16 14 14 13 8 8 8 6 7 8 10 10 10 11 12 13 15 17 17 18 20 17 15 14 14 13 12 7 9 10 13 17 20 21 22 23 25 27
13 13 13 15 16 14 16 14 10 9 7 5 6 8 9 9 10 11 13 13 14 16 17 18 17 16 15 13 11 8 6 8 10 9 12 16 18 18 17 20 22 22 24
15 14 13 14 15 16 15 12 9 8 4 5 7 8 8 10 12 14 14 15 15 17 18 17 17 11 12 11 6 8 9 9 11 14 15 15 15 18 16 14 20 20 22
15 14 13 15 15 15 13 11 8 5 3 6 7 8 10 12 14 15 16 17 17 18 18 16 15 15 13 10 10 8 10 12 14 15 14 15 16 12 17 20 14 16 23
13 13 12 14 13 12 11 9 6 3 3 6 8 9 11 13 15 17 17 17 18 18 16 15 15 16 17 10 8 7 8 13 13 13 14 15 15 16 16 17 22 22 21
12 11 12 11 11 10 9 6 4 2 4 7 9 10 12 15 17 17 17 17 17 17 17 17 15 16 12 7 6 7 10 12 12 12 14 15 14 14 13 18 21 21 22
11 12 11 11 12 9 6 3 3 5 6 8 10 12 14 16 17 17 17 17 18 16 15 17 14 13 6 9 8 7 10 11 11 13 14 13 15 13 18 18 20 21 21
11 12 13 12 11 8 3 2 6 6 8 10 11 13 15 16 17 16 17 17 16 16 10 11 9 6 6 8 9 9 9 10 11 12 13 12 8 12 15 15 18 20 19
11 12 13 12 9 4 1 5 9 9 9 10 12 14 16 17 16 16 14 15 15 11 8 13 12 11 8 8 10 11 8 10 10 12 13 11 13 19 18 14 14 15 21
15 13 12 9 5 1 3 8 9 10 9 12 14 15 16 16 16 16 16 16 13 11 9 11 11 12 12 12 13 13 11 11 10 13 13 14 18 18 16 14 14 19 16
12 10 7 2 1 3 4 8 10 11 12 13 15 14 15 16 17 17 16 14 11 12 10 11 11 10 9 11 12 14 12 10 10 12 13 16 15 15 13 11 14 13 13
9 8 3 3 4 3 5 8 10 11 13 15 15 15 15 16 16 16 15 13 12 12 12 13 13 13 13 12 11 9 9 9 10 12 10 15 16 13 14 13 11 10 11
5 2 3 5 6 6 7 9 10 11 13 14 15 16 14 14 15 15 17 16 16 14 12 13 15 13 13 13 10 9 10 10 9 11 12 13 11 12 12 11 11 11 11
2 5 7 7 9 9 10 10 10 11 12 15 15 15 15 15 15 16 18 18 19 21 21 19 18 20 19 18 18 17 15 14 12 12 13 14 11 11 11 11 11 11 10

GFSMW_925_spd_054.txt.gz
Wind_Speed
13 10 9 10 12 21 28 26 23 20 18 15 11 8 10 9 11 10 10 8 5 3 1 3 5 7 7 9 9 10 13 15 19 20 22 16 22 22 21 20 21 21 20
10 13 11 10 7 21 23 20 17 16 13 14 12 11 11 12 11 12 9 6 4 1 2 2 3 6 8 10 9 12 15 16 16 21 19 6 15 17 23 23 19 18 23
12 10 13 12 14 20 20 16 16 18 19 14 13 15 15 13 14 11 10 9 5 1 3 4 6 7 7 10 12 12 11 12 18 15 16 7 5 17 15 22 21 22 21
14 13 17 15 13 15 14 20 23 20 14 15 14 14 13 12 10 12 13 6 1 2 4 6 7 7 8 11 12 12 16 15 14 16 16 18 21 5 7 9 20 18 21
11 11 19 19 21 23 23 22 19 16 15 10 15 14 7 11 10 7 4 2 7 6 8 8 9 8 11 14 16 17 10 13 17 16 16 17 19 17 10 6 9 18 16
11 12 16 19 19 16 17 17 17 15 14 9 8 6 7 9 10 5 3 4 3 8 6 5 5 7 12 14 16 17 15 14 17 20 17 13 9 12 11 5 8 12 17
12 13 15 18 18 16 15 15 16 16 13 11 9 8 8 7 4 1 2 5 7 10 11 10 12 15 17 19 21 21 17 20 18 18 18 16 15 14 12 12 13 9 18
13 14 18 20 19 18 18 17 18 17 14 12 11 10 8 4 3 1 4 6 9 10 11 12 12 15 18 19 20 21 20 17 16 16 18 17 14 14 12 12 12 4 12
14 15 19 21 23 20 19 16 18 18 16 14 12 9 6 5 5 4 4 6 7 8 11 13 14 16 18 19 20 21 19 14 13 13 15 14 15 13 12 10 11 12 6
14 14 16 17 19 20 19 16 12 18 17 13 10 9 5 3 5 4 6 6 6 8 10 12 15 17 18 18 20 22 15 15 16 15 14 16 12 11 11 11 14 16 18
14 12 14 19 14 19 18 15 11 16 15 13 9 5 3 3 5 5 7 6 7 9 11 14 16 17 18 19 19 15 14 13 11 13 12 8 8 9 13 14 18 21 22
13 12 14 18 16 17 15 12 12 14 15 11 9 9 7 6 6 7 7 6 7 10 11 14 16 16 16 12 17 17 16 15 13 14 9 8 9 12 15 18 17 17 21
14 12 11 13 12 12 14 15 14 14 9 9 9 5 5 3 7 7 7 8 10 11 13 15 17 17 15 18 17 14 13 14 9 9 9 9 13 16 13 13 18 21 21
11 9 8 10 10 12 14 15 12 9 10 11 4 3 3 4 6 8 10 11 11 12 14 18 18 11 11 11 13 11 10 9 10 11 10 13 12 9 15 16 17 17 19
6 7 8 9 13 14 14 12 12 12 8 3 2 3 3 4 7 10 12 13 14 15 17 18 11 13 13 14 10 11 7 9 11 13 13 11 13 17 15 13 16 15 16
9 9 10 12 14 15 13 14 11 10 5 2 3 4 5 6 8 11 14 16 15 15 17 13 11 12 14 18 15 15 10 7 12 15 12 12 13 8 11 5 9 15 19
9 8 8 10 14 14 14 11 9 6 2 3 4 6 7 9 10 13 15 16 16 17 15 11 13 17 15 17 17 10 7 6 11 14 11 12 13 15 13 15 17 22 19
5 6 8 12 12 14 11 10 8 5 2 2 5 7 9 11 13 14 15 16 16 16 16 11 13 15 15 14 12 7 7 7 12 11 10 13 13 13 15 16 21 22 19
6 10 11 14 14 13 10 8 5 1 3 6 5 7 10 12 14 16 15 15 17 20 19 12 8 12 12 10 9 8 6 8 11 12 11 14 13 14 15 19 21 19 20
11 14 16 14 16 13 9 4 4 5 4 4 5 8 11 13 15 16 14 14 16 18 11 7 11 10 7 9 10 10 7 10 11 12 12 15 10 10 14 17 16 18 19
13 18 20 17 15 12 9 9 6 8 6 5 5 9 12 15 15 16 14 16 15 14 11 12 13 13 14 12 11 12 12 12 11 10 11 12 8 12 18 14 13 14 19
19 18 15 15 14 11 7 4 7 8 8 8 9 12 13 11 14 18 18 18 15 7 9 10 14 15 14 15 16 16 16 12 14 14 13 14 16 19 15 13 12 14 16
14 12 16 13 9 5 2 7 10 9 9 11 11 12 13 11 12 14 19 20 14 12 16 14 15 15 13 13 14 16 19 17 15 13 12 16 16 16 16 13 14 16 15
17 14 12 5 2 5 11 9 9 10 10 12 12 13 14 14 12 12 15 19 19 14 16 16 17 14 13 13 14 15 17 18 16 15 13 10 17 17 15 13 11 11 12
9 6 3 5 10 6 6 9 10 10 11 12 12 14 14 14 12 16 18 20 20 21 20 16 16 15 14 13 14 14 10 9 11 11 14 15 16 14 11 12 12 11 12
7 7 6 6 8 10 11 10 11 11 10 11 13 14 16 16 15 18 19 18 22 21 22 25 25 25 24 21 20 20 19 18 16 14 13 15 18 16 11 11 13 11 11

GFSMW_925_spd_057.txt.gz
Wind_Speed
12 20 18 30 30 35 38 38 34 29 26 21 17 11 8 9 11 12 13 12 10 8 8 9 8 6 6 7 6 8 10 12 13 13 21 17 7 19 15 17 18 19 20
8 13 15 13 30 32 35 32 29 27 23 20 15 9 12 10 16 15 14 12 8 7 8 3 1 5 6 5 9 13 12 11 13 15 13 4 14 10 20 17 16 16 15
11 8 13 21 28 30 31 27 24 23 22 19 16 13 15 18 18 17 13 8 8 7 4 1 4 5 5 8 11 12 11 11 14 10 6 3 2 8 5 18 10 20 18
12 10 17 22 25 24 21 21 20 21 21 15 22 22 20 23 21 17 11 9 8 3 3 5 8 9 9 8 11 12 15 14 9 9 14 15 13 2 4 2 16 15 20
15 13 18 26 25 27 26 23 21 20 16 22 22 24 22 15 17 17 14 9 2 2 4 7 7 5 5 6 8 11 13 14 12 11 11 14 14 15 3 5 4 10 12
12 15 21 23 22 18 21 26 22 18 19 19 20 17 20 21 21 17 12 7 8 6 7 3 2 2 7 11 14 17 17 18 15 16 15 11 6 11 10 3 4 10 16
11 12 12 16 21 19 21 23 27 22 17 16 14 19 19 16 12 9 8 4 1 3 5 5 6 8 10 13 15 16 18 19 20 18 13 12 14 18 14 11 12 7 17
11 11 16 22 23 19 17 22 23 21 17 15 15 13 13 12 10 6 3 3 2 3 4 7 9 12 13 15 17 19 19 20 14 10 12 10 11 14 13 15 11 5 4
10 13 17 24 25 19 16 15 21 21 20 19 17 13 10 7 3 4 1 5 6 4 6 8 10 12 15 16 16 18 20 13 11 14 12 13 13 12 11 10 8 5 3
9 12 17 23 28 27 23 21 22 27 25 22 19 15 10 2 3 6 3 5 5 5 6 8 10 12 13 14 13 11 8 10 8 6 6 8 8 7 5 5 9 11 13
11 10 14 25 30 33 31 23 26 29 25 22 17 12 5 8 6 4 5 6 6 5 6 8 9 12 12 13 11 13 16 16 12 10 10 7 5 5 6 9 13 8 11
13 9 17 22 24 24 25 26 28 24 22 17 10 5 7 6 7 7 4 5 4 4 6 8 10 13 16 15 14 16 13 11 14 12 8 9 8 7 8 5 7 11 16
12 9 14 18 22 24 27 26 25 24 17 10 7 6 6 4 1 1 0 3 7 9 10 11 15 17 12 11 14 16 10 12 10 10 10 10 10 10 7 9 13 16 15
14 10 13 18 22 24 26 29 24 17 11 9 6 4 2 2 1 3 6 9 9 11 13 15 18 10 8 11 12 14 12 11 10 10 9 11 10 6 10 12 10 11 13
10 14 13 13 21 25 28 26 19 13 10 7 10 11 7 2 3 6 9 11 14 17 18 16 12 10 10 12 12 12 10 10 7 8 7 6 8 10 9 5 8 9 12
11 12 13 17 22 26 28 22 18 13 14 12 11 7 3 4 7 9 10 13 15 15 15 17 12 11 12 13 14 12 14 15 10 13 10 8 7 6 7 5 6 9 13
8 11 12 19 24 26 26 26 21 20 15 12 10 7 6 7 8 13 14 15 14 12 12 11 13 12 9 13 15 15 15 7 8 11 7 5 6 9 8 10 14 17 20
8 9 15 21 22 26 27 28 22 17 12 11 7 3 7 13 13 13 15 14 13 16 19 18 14 8 10 13 15 15 9 8 9 8 8 8 10 11 12 14 15 20 21
11 18 26 30 32 30 27 25 20 19 14 11 7 7 13 10 12 14 16 17 16 19 18 12 7 9 14 14 15 11 10 10 11 12 14 11 11 11 11 14 19 22 21
22 25 29 31 32 27 25 24 20 14 9 3 6 14 10 12 12 15 15 18 18 19 18 15 12 12 12 11 11 13 13 14 13 14 11 10 11 10 12 16 19 18 17
27 30 30 28 28 25 24 19 14 12 4 8 5 8 10 12 13 13 15 17 18 20 12 10 11 13 13 16 15 16 17 17 15 13 13 13 13 12 13 16 15 14 13
25 27 27 25 23 20 16 10 3 5 9 8 11 12 13 14 13 15 17 15 18 15 14 16 19 17 17 15 13 15 19 19 18 17 15 14 13 15 18 16 13 13 14
23 23 24 20 15 10 8 2 5 8 8 10 12 13 14 14 14 14 13 15 17 19 22 21 23 23 19 15 14 16 18 18 22 21 17 14 13 16 17 16 17 16 17
18 18 16 12 6 2 4 6 9 9 11 11 14 14 14 14 14 15 14 14 15 19 22 20 18 18 15 14 13 17 18 18 21 22 18 17 17 14 18 17 14 13 12
13 10 7 4 3 4 6 9 11 11 13 17 16 12 16 17 16 18 19 20 20 20 23 24 24 23 22 22 20 18 17 16 16 15 18 16 16 18 17 18 16 13 12
7 3 2 2 8 9 10 9 11 14 16 13 18 23 24 21 23 25 27 24 24 24 22 23 25 28 29 27 24 22 20 19 19 16 20 20 18 18 21 20 16 14 13

GFSMW_925_spd_060.txt.gz
Wind_Speed
22 23 30 30 28 31 36 36 35 34 32 28 24 18 14 15 16 17 16 15 13 13 10 10 9 6 2 3 3 4 5 6 9 3 16 2 7 3 20 17 12 12 9
13 23 28 26 32 37 39 38 38 37 33 28 24 17 15 15 16 18 16 15 12 10 7 5 2 2 1 2 3 7 7 7 8 6 4 3 7 3 21 4 13 6 14
17 15 21 23 27 31 38 39 39 35 30 24 18 12 16 18 20 18 19 15 10 8 5 3 4 1 1 4 5 7 7 6 7 4 2 2 2 7 7 17 4 16 8
11 13 20 23 28 29 35 35 32 29 27 23 20 19 21 25 24 24 20 16 10 7 5 3 2 1 1 2 4 6 7 9 8 7 8 10 10 2 4 3 13 12 15
15 15 21 28 28 34 35 29 27 26 25 24 22 24 26 25 26 24 18 15 13 10 7 5 3 2 2 3 6 8 9 10 11 13 9 7 10 10 5 5 3 15 12
10 12 17 23 28 33 31 24 25 26 25 25 22 29 28 26 26 22 18 13 9 8 4 3 2 1 3 6 7 9 11 12 13 15 15 12 7 6 7 4 10 9 15
13 13 13 19 21 29 28 27 24 21 22 23 27 26 23 23 26 22 17 16 10 8 8 2 4 2 3 5 8 11 13 12 14 15 15 11 11 12 13 15 11 7 9
13 14 16 20 24 27 30 26 21 23 24 25 24 25 23 21 17 14 9 7 8 4 7 4 1 5 8 11 13 12 13 15 14 11 10 12 13 12 14 14 8 4 4
13 13 15 22 27 26 26 27 31 27 25 24 24 22 19 17 16 11 8 2 9 1 3 4 8 12 12 15 16 15 15 12 10 10 11 12 13 12 11 13 12 5 2
10 12 18 23 28 31 31 31 28 26 24 23 23 22 18 14 11 6 1 2 6 5 6 8 10 11 12 16 15 15 12 12 14 15 15 12 10 9 5 2 1 3 3
14 15 19 26 33 34 33 31 30 28 27 25 22 18 12 10 3 2 2 5 6 7 7 9 10 12 13 15 15 14 14 16 17 14 13 11 7 6 6 10 10 8 3
15 16 23 26 25 29 30 31 33 35 32 25 19 13 11 7 5 5 1 6 5 5 8 9 12 13 15 15 14 12 14 16 13 13 8 8 9 9 8 6 5 5 7
12 13 15 20 23 24 26 27 26 31 28 22 16 10 9 9 8 1 3 1 4 8 10 12 14 16 17 17 13 13 15 15 14 12 12 11 10 10 10 8 8 7 8
15 11 11 15 17 20 23 27 28 27 21 16 16 14 15 10 6 5 2 3 6 10 15 18 20 18 18 13 13 14 14 16 14 13 14 12 13 12 9 10 8 7 9
8 9 10 11 20 24 28 30 27 22 20 19 19 19 16 11 6 3 7 9 12 15 15 16 17 17 15 12 13 13 15 14 16 13 11 9 10 10 10 9 8 6 9
10 12 14 19 20 23 26 30 26 23 25 25 22 17 12 7 6 6 11 16 15 14 13 14 13 13 14 14 13 15 14 15 17 20 12 11 13 10 9 8 6 8 9
12 15 14 18 21 23 27 29 29 31 27 24 18 13 10 8 7 15 11 13 13 10 12 15 15 16 16 14 14 14 15 17 13 10 11 9 8 8 10 8 8 9 11
9 8 14 19 21 25 27 30 29 26 24 20 15 10 3 4 6 9 12 12 13 15 17 18 19 15 13 13 14 16 18 14 11 10 9 10 12 12 11 10 10 13 17
12 17 23 26 28 30 32 28 26 24 21 16 8 3 3 4 9 11 11 13 13 15 19 20 20 17 15 15 16 15 14 14 13 11 12 15 14 11 10 10 12 16 20
20 23 25 29 32 28 31 29 21 17 13 5 2 6 7 11 10 11 13 11 12 15 18 19 20 17 17 18 18 15 16 17 18 15 15 14 13 12 11 12 14 17 16
24 27 29 29 28 26 25 22 14 8 5 1 1 5 10 10 12 13 13 15 18 17 19 16 15 17 18 19 17 17 19 20 20 20 19 16 15 15 14 13 15 16 13
23 24 26 26 22 18 13 8 7 3 2 6 9 9 11 12 13 14 16 19 19 18 17 18 21 20 20 20 19 17 18 19 22 23 23 19 16 15 16 15 17 16 15
21 23 24 19 13 9 8 6 2 6 7 7 10 12 14 14 14 16 19 20 19 19 22 22 24 26 22 22 20 19 20 20 24 26 25 21 19 16 17 18 17 16 18
17 18 17 13 8 6 5 5 7 8 9 12 15 16 17 18 18 18 21 21 22 24 22 24 26 28 25 22 22 23 21 21 24 25 25 24 23 19 20 19 19 18 17
15 14 13 9 5 4 6 7 9 11 14 17 19 22 22 23 24 26 26 26 29 29 29 29 27 26 28 29 26 23 22 22 22 20 20 24 22 20 21 22 20 16 17
12 9 6 6 9 10 11 12 14 16 17 19 23 25 27 31 33 33 34 34 34 36 35 32 28 26 27 28 29 28 25 22 20 17 20 22 22 23 24 23 20 18 17

GFSMW_925_spd_063.txt.gz
Wind_Speed
14 15 21 24 23 27 30 29 29 30 32 29 26 23 21 18 16 16 17 17 16 12 10 9 7 5 2 1 4 2 1 1 2 4 7 2 1 5 13 9 4 14 3
9 16 19 20 25 29 32 32 33 34 34 32 28 24 21 17 18 20 18 15 13 13 9 7 6 5 2 6 3 1 1 1 2 3 2 3 5 9 14 5 10 3 8
15 14 20 28 29 33 35 37 36 36 34 31 24 18 19 16 20 21 19 17 15 11 8 5 3 4 4 4 2 2 2 3 3 3 1 1 3 4 4 8 5 7 15
13 13 20 23 34 39 38 38 37 35 34 28 23 20 23 23 22 24 22 20 15 11 10 8 8 7 5 2 1 2 2 6 7 6 8 10 9 3 4 4 6 14 14
17 16 21 28 27 29 36 36 35 33 32 28 23 21 20 23 23 23 23 19 16 11 7 8 5 4 3 0 2 3 4 6 7 8 9 9 10 10 8 3 3 6 14
9 10 16 20 22 29 31 34 31 30 30 28 24 22 22 23 22 23 20 17 12 11 7 7 6 2 6 2 3 6 7 8 8 10 11 13 9 6 9 5 8 8 10
10 11 13 18 21 25 30 32 32 33 28 25 26 25 23 25 23 26 22 19 17 12 9 7 7 11 4 5 7 10 11 10 12 12 11 12 13 14 15 14 9 7 6
14 15 16 23 25 26 27 29 30 28 26 27 28 22 24 24 22 23 22 19 14 13 11 12 9 7 5 6 10 12 11 10 9 7 8 11 14 16 16 15 11 4 5
15 16 17 20 21 24 30 30 28 25 25 28 24 23 22 22 23 20 16 13 6 9 10 6 10 6 4 8 10 11 10 7 8 10 13 14 14 14 16 14 14 6 3
11 12 13 19 24 30 31 29 29 28 26 27 27 26 26 24 23 17 12 4 6 9 12 11 8 6 8 10 12 11 10 11 12 15 15 15 12 12 12 10 8 8 6
11 13 14 22 28 31 32 35 34 34 33 32 31 29 25 24 20 13 8 5 8 15 12 8 7 9 10 10 12 13 13 12 14 15 14 13 10 9 9 9 11 13 10
12 13 17 22 25 28 31 36 37 38 37 35 35 31 28 22 15 6 7 12 12 11 7 8 13 12 11 13 15 15 13 12 15 17 14 12 10 13 13 12 12 10 10
9 8 9 17 21 21 24 28 31 29 27 29 24 22 17 10 10 11 10 10 7 5 7 11 12 12 15 15 16 15 12 14 16 16 16 15 14 15 15 15 14 12 11
13 11 8 10 14 17 20 24 25 28 30 26 23 15 12 14 15 11 10 6 4 6 8 10 12 14 16 16 15 13 14 15 17 17 16 16 15 14 16 17 15 14 12
10 10 9 7 17 21 24 25 30 34 30 23 19 18 18 16 14 10 5 4 4 6 8 10 12 14 15 14 13 14 15 16 16 17 18 17 17 16 13 16 17 14 13
9 11 12 14 18 23 26 28 28 28 24 21 21 21 20 15 10 4 3 4 6 8 11 12 12 14 14 14 15 16 16 17 18 20 20 20 16 14 18 17 15 14 13
8 10 11 14 16 18 25 26 27 23 22 24 22 17 13 8 3 3 2 7 10 11 12 14 15 16 17 16 18 16 16 18 20 21 18 14 13 11 12 14 15 14 14
8 8 13 17 21 25 24 25 25 27 27 23 19 13 6 3 2 4 6 7 9 11 13 15 17 20 21 18 16 16 18 19 20 19 16 15 13 13 15 17 17 16 14
9 14 19 22 25 25 27 30 28 26 24 18 10 6 2 3 5 8 8 9 11 12 13 17 20 22 24 20 17 17 20 20 19 18 17 17 17 17 16 17 17 16 15
16 20 25 27 29 27 31 32 27 21 15 8 3 4 2 7 10 10 11 12 12 14 17 17 19 21 22 19 18 18 21 21 21 21 21 20 19 17 16 18 17 16 16
21 25 26 27 29 31 28 24 16 10 6 1 3 5 8 9 10 11 13 14 16 18 21 22 21 21 20 23 23 23 22 24 25 24 24 22 21 19 18 18 18 19 16
21 25 27 29 26 21 17 14 10 4 0 3 7 8 9 11 12 14 15 16 19 22 24 25 26 25 22 19 21 22 21 24 26 27 25 24 22 21 20 19 20 18 17
19 24 25 21 15 12 10 9 7 4 4 6 9 11 13 14 15 17 20 21 22 25 29 29 30 33 29 23 20 20 20 20 24 29 28 24 25 23 21 22 19 18 19
17 18 18 16 12 10 10 8 5 6 8 12 15 18 20 23 25 26 26 27 28 30 31 29 28 32 32 29 26 23 22 21 22 23 25 25 26 25 25 23 22 22 20
16 17 15 13 12 12 14 13 12 11 13 14 16 18 20 21 24 25 26 28 33 33 32 31 32 27 30 36 29 23 22 19 20 21 25 22 20 21 23 25 23 21 22
15 15 16 18 15 13 14 14 15 16 17 19 22 23 25 26 27 28 32 28 28 30 31 35 38 39 39 41 37 28 25 22 19 21 21 19 18 21 22 22 24 23 21

GFSMW_925_spd_066.txt.gz
Wind_Speed
18 17 18 21 19 20 20 22 25 25 25 25 23 21 21 19 18 17 17 18 18 16 14 13 10 8 4 2 3 2 2 2 1 2 6 3 7 6 1 6 2 12 4
8 14 19 24 24 24 23 24 27 29 28 29 28 24 23 20 17 17 18 18 16 14 13 10 8 7 4 6 4 1 1 2 1 1 0 2 4 9 11 10 6 5 6
13 10 17 26 29 30 30 32 32 31 31 32 28 20 21 17 18 20 20 18 16 14 11 10 9 8 6 5 4 3 2 1 2 4 1 1 3 3 5 6 8 7 9
11 10 15 20 31 33 33 33 34 32 33 30 29 25 25 22 21 26 21 19 17 16 13 10 9 6 5 5 4 2 2 2 3 4 6 8 8 3 3 6 5 11 11
14 14 18 24 25 27 31 32 31 31 32 33 29 24 26 23 19 24 21 20 18 14 12 10 7 6 7 5 3 2 2 3 4 4 5 7 10 11 8 3 6 10 13
12 10 16 21 23 25 28 30 31 31 32 33 28 26 23 23 18 24 23 20 16 14 13 9 9 9 5 6 4 3 5 4 3 4 7 8 7 6 9 6 10 10 11
10 9 10 18 21 24 26 26 28 29 32 33 31 26 23 22 20 24 25 22 20 17 15 12 9 6 7 6 3 5 7 5 5 5 4 5 7 11 16 17 11 7 6
12 13 14 19 21 22 25 29 32 28 32 32 30 26 24 21 20 22 26 24 23 20 13 9 8 7 7 6 6 6 7 7 5 3 4 8 12 15 19 17 9 5 7
13 15 15 21 23 25 31 30 28 29 31 30 26 27 24 21 25 25 28 26 23 16 12 7 6 11 10 9 7 7 9 7 6 6 7 11 14 15 15 15 15 8 8
8 9 12 21 23 28 27 24 28 30 29 27 28 26 25 23 26 27 29 23 17 8 9 7 12 13 11 10 9 10 9 9 8 8 9 12 14 12 12 12 13 13 11
7 8 9 16 20 20 23 29 30 30 30 29 28 26 25 27 28 28 24 18 13 9 7 13 14 12 14 13 11 12 12 12 11 10 12 13 12 11 12 11 12 12 12
9 9 12 16 21 25 30 33 32 31 29 25 26 26 26 27 24 17 12 3 3 9 11 12 13 14 14 13 14 15 14 14 13 12 14 15 14 13 14 16 17 18 17
8 7 7 12 18 20 22 25 26 25 24 26 27 25 27 21 16 9 10 11 10 11 11 12 11 11 13 15 17 17 17 14 13 15 16 17 17 17 18 18 18 17 16
7 8 6 7 15 20 24 24 23 24 26 26 27 29 25 17 14 11 13 14 12 9 7 7 9 11 13 14 15 16 15 14 16 16 17 18 19 19 20 18 18 18 17
9 9 8 7 14 18 20 20 23 26 27 27 26 20 15 13 15 14 12 8 5 4 7 9 8 8 10 12 14 14 15 17 17 17 17 18 19 18 18 19 19 17 19
5 4 7 9 12 16 19 21 23 24 27 25 19 17 16 16 14 11 6 2 3 6 7 8 9 11 12 13 14 17 19 19 19 19 20 20 21 23 20 17 19 21 19
5 7 7 8 15 18 23 23 25 26 25 20 20 20 18 14 7 2 2 2 6 9 9 10 11 13 15 16 16 16 18 20 20 20 22 22 20 16 16 14 14 16 17
6 7 10 15 20 23 24 26 26 23 22 23 22 18 11 5 3 2 7 9 10 11 11 12 13 16 18 18 19 19 20 21 21 22 22 21 19 16 15 15 17 19 20
7 11 16 18 21 23 25 27 24 24 26 22 16 11 4 3 5 8 10 10 11 12 12 13 15 17 20 19 20 19 20 22 24 23 21 21 20 18 18 18 20 20 22
14 17 22 24 26 24 26 30 29 27 20 14 9 3 2 2 6 10 11 13 14 15 16 18 19 21 25 23 22 20 22 24 25 27 24 22 23 22 21 20 21 21 23
18 23 25 25 27 29 33 29 23 17 11 5 3 3 3 7 9 12 14 15 17 19 22 25 26 26 26 27 24 21 23 26 21 21 28 25 22 23 22 23 23 24 21
20 24 27 28 29 27 25 20 16 8 5 4 2 5 6 9 11 14 17 19 21 25 28 30 34 34 33 29 28 25 22 22 24 24 26 27 24 22 22 24 27 24 20
20 23 26 27 23 19 18 19 10 6 5 5 7 8 10 12 13 16 20 22 24 27 31 28 29 33 34 36 34 29 28 25 25 26 26 24 25 27 23 22 26 24 22
20 24 24 22 22 22 20 16 11 8 8 9 10 11 13 16 18 20 21 23 25 25 22 22 24 28 30 30 34 36 34 30 28 26 25 24 22 20 21 22 22 27 26
21 23 23 23 20 18 17 14 12 10 11 11 13 16 18 21 23 23 22 22 22 21 26 26 27 28 32 34 33 34 33 32 32 23 20 20 21 21 22 23 23 25 27
23 22 22 22 18 16 15 14 12 12 13 14 16 18 20 22 22 23 24 20 20 23 25 28 31 36 34 39 39 39 37 38 29 20 20 18 19 18 17 20 22 23 23

GFSMW_925_spd_072.txt.gz
Wind_Speed
19 22 23 24 25 28 26 21 16 11 13 14 16 15 14 12 11 11 12 16 20 19 16 16 16 13 11 10 9 6 3 1 2 5 6 6 7 8 8 8 9 8 8
15 24 25 26 28 27 24 21 19 17 17 17 17 15 15 12 13 12 13 15 18 18 16 16 16 14 12 10 8 5 2 2 3 5 8 4 4 6 10 12 11 10 10
20 19 27 29 28 28 28 25 21 19 20 17 16 13 14 11 12 13 14 16 21 19 15 17 16 14 11 11 8 5 4 4 4 5 4 4 4 13 5 7 9 10 11
19 20 25 29 31 30 27 26 22 20 19 20 18 18 17 15 14 15 12 15 20 16 17 17 15 13 11 11 9 7 5 5 6 5 6 7 10 5 6 7 10 10 13
20 22 26 30 29 28 26 23 22 21 21 22 21 20 17 15 15 20 17 15 17 18 17 16 15 13 11 10 8 7 7 6 6 7 7 8 10 11 11 9 12 14 15
21 21 28 28 30 28 26 25 25 24 23 23 23 21 20 18 18 21 21 20 20 19 19 18 16 14 12 11 7 11 10 7 7 7 8 9 10 11 12 11 15 17 19
20 20 21 25 27 28 28 27 27 26 25 24 24 24 22 21 22 22 24 22 21 21 21 20 18 15 14 8 10 10 9 8 8 8 8 9 9 10 11 13 16 17 19
18 20 20 25 25 27 27 27 26 25 25 24 25 24 23 22 22 23 21 24 21 19 18 18 17 16 15 9 10 10 12 10 9 9 9 9 10 11 12 13 16 12 17
14 18 19 24 26 27 29 29 27 25 25 26 24 25 24 24 23 20 21 20 19 17 18 19 18 19 12 11 12 12 12 10 9 9 10 12 12 13 13 15 16 17 11
7 11 13 22 24 26 27 26 26 25 23 22 21 22 23 22 23 19 18 17 17 17 20 19 17 12 12 13 13 13 12 11 10 11 12 14 14 15 15 17 17 18 20
4 8 10 15 19 20 22 24 24 22 20 19 18 19 19 18 18 16 16 17 17 20 21 17 13 13 12 13 13 13 13 13 13 14 15 17 17 18 18 19 19 20 20
4 6 8 12 16 19 20 22 20 19 17 14 15 14 13 13 14 15 17 18 19 20 20 16 10 10 11 11 13 14 14 15 16 17 18 19 19 20 20 21 21 22 23
6 7 8 9 13 16 18 19 17 15 12 12 15 17 18 16 14 18 20 23 21 15 8 7 9 10 10 12 14 15 15 17 18 19 20 21 21 23 22 22 23 24 25
6 7 9 9 13 14 16 16 15 13 15 16 16 16 16 23 24 25 19 17 13 10 11 9 9 8 10 13 13 13 15 17 18 20 21 22 23 25 24 23 24 25 25
6 7 9 9 11 13 15 15 15 16 18 19 19 20 20 27 31 23 21 15 14 12 8 10 8 9 12 12 11 12 15 17 18 20 21 23 25 26 26 25 26 26 24
5 5 7 8 11 14 17 17 18 19 20 21 21 23 26 26 21 20 20 17 11 7 9 8 12 11 11 13 14 14 15 18 20 23 24 24 25 26 27 28 28 28 27
2 2 6 9 12 14 18 19 20 21 20 22 23 23 24 22 20 18 15 13 9 8 11 11 9 10 12 15 14 16 16 19 22 24 26 26 26 24 24 26 27 26 26
5 6 6 9 12 15 16 18 20 20 22 24 22 21 23 25 18 14 9 7 9 8 8 8 9 11 12 15 16 18 19 22 24 25 26 27 28 27 28 28 28 26 23
7 9 11 13 15 15 16 18 19 21 22 22 23 22 25 20 12 6 6 7 5 6 7 8 9 11 14 16 19 21 21 24 27 28 29 30 30 29 29 25 27 27 25
10 12 15 17 18 19 20 22 22 22 23 23 22 20 15 11 7 5 5 3 4 5 6 8 10 13 17 18 19 21 22 25 27 30 32 32 31 31 32 25 27 25 26
14 15 16 18 19 21 23 24 24 24 23 20 18 14 10 7 5 4 3 2 4 6 7 8 11 14 14 16 17 19 18 21 26 28 29 29 28 27 31 26 27 29 25
16 16 19 19 19 21 24 25 22 21 19 17 13 11 8 7 4 2 1 2 4 6 7 9 11 10 12 15 17 20 21 23 26 29 29 29 28 29 31 32 24 27 28
17 19 22 23 22 21 21 22 19 17 16 14 12 10 8 6 3 2 2 3 5 5 7 8 10 12 14 15 17 20 24 27 28 28 32 35 34 32 31 33 26 24 25
19 22 23 22 21 19 18 18 16 13 13 12 10 8 7 5 4 3 3 3 4 6 7 9 10 12 14 14 18 21 23 24 25 24 28 30 31 31 30 27 23 20 18
21 21 22 22 21 19 18 15 14 13 13 10 8 6 5 5 4 4 3 3 4 4 6 7 9 11 13 15 19 21 24 24 23 26 24 22 20 21 18 17 16 15 16
23 22 22 21 19 17 15 13 11 9 10 9 7 6 5 4 3 2 2 2 2 1 3 5 6 9 11 16 17 20 24 21 24 19 19 20 18 16 16 13 15 15 16

GFSMW_925_spd_075.txt.gz
Wind_Speed
19 23 23 19 24 28 32 28 21 19 18 17 18 19 20 16 15 14 13 15 14 15 15 13 14 14 12 12 11 9 6 5 2 5 6 8 8 7 7 8 9 8 9
19 21 25 26 28 31 30 23 19 15 18 18 18 19 18 17 15 14 14 14 19 19 16 15 15 14 13 12 11 9 7 4 3 2 8 5 3 10 11 10 9 9 10
21 21 25 28 29 31 28 25 21 18 18 17 17 16 15 13 12 14 14 14 14 16 17 16 16 15 14 13 11 9 6 4 2 1 3 4 3 14 12 5 9 8 11
19 20 23 28 30 30 30 26 24 24 21 19 19 19 19 17 17 16 14 16 18 16 16 17 17 16 14 13 12 8 4 1 4 3 6 6 9 4 5 11 13 10 13
23 23 25 31 32 31 30 29 26 23 22 21 21 21 19 18 13 15 15 19 21 18 18 18 17 16 14 13 11 8 5 2 5 7 10 10 11 12 13 9 14 14 14
22 23 32 31 32 31 31 30 28 26 22 23 25 22 23 16 17 17 18 19 19 21 21 20 18 17 15 13 12 10 7 9 9 8 9 11 11 13 14 11 15 15 17
19 20 22 27 32 33 32 30 29 27 26 25 25 26 24 22 21 22 22 20 19 22 22 21 20 19 16 16 13 7 10 8 9 9 11 11 13 13 14 14 15 15 18
20 22 23 27 31 30 33 32 30 29 28 28 27 27 26 23 22 23 21 21 23 23 20 23 21 18 17 19 9 9 8 9 10 10 12 13 13 13 14 15 15 10 18
13 20 22 27 30 30 31 33 32 30 30 30 28 27 24 25 24 22 23 22 24 20 21 23 19 18 16 15 5 7 10 11 11 12 13 14 14 14 15 15 15 16 11
8 13 17 24 27 28 30 30 30 30 30 28 26 25 25 24 21 19 20 23 23 20 20 19 19 17 17 9 9 10 12 12 13 13 14 15 15 16 16 17 18 18 20
4 7 10 18 24 26 28 29 29 29 27 25 24 23 21 19 20 19 19 18 16 18 18 22 17 16 14 14 11 12 11 13 16 15 16 16 16 18 19 20 20 21 22
3 6 8 12 17 22 24 26 26 27 25 23 21 19 20 20 21 18 17 16 17 18 19 18 19 14 7 10 11 13 13 15 17 17 18 18 19 20 21 22 23 23 24
7 6 7 9 13 17 19 21 23 24 23 20 20 21 24 26 25 27 26 27 26 17 16 17 11 7 9 12 14 13 15 16 17 18 19 20 21 23 23 24 25 25 27
8 8 8 9 11 14 17 18 19 18 16 18 18 22 24 23 23 22 24 27 29 25 21 13 11 12 14 13 14 14 14 15 17 17 19 20 22 24 25 26 26 27 26
8 8 8 9 11 13 15 16 18 15 17 16 16 17 24 23 21 21 25 27 23 19 15 11 12 13 12 13 13 11 12 15 17 19 20 22 24 25 27 28 29 28 28
4 4 5 7 9 11 12 11 15 15 16 19 21 23 23 21 27 29 25 21 15 17 12 11 11 9 13 12 12 15 12 15 18 21 22 24 26 27 29 32 34 32 27
4 3 4 5 9 11 17 16 17 18 20 20 22 20 21 22 24 22 20 17 14 12 9 9 9 9 10 12 13 14 13 16 20 22 24 26 27 27 28 29 31 31 33
4 4 5 9 11 15 17 18 18 19 23 23 22 21 21 21 20 18 16 13 10 8 7 7 7 8 9 11 13 15 15 18 22 23 25 28 29 29 29 29 30 31 30
5 8 10 13 16 19 22 21 19 20 20 21 22 21 21 20 19 16 13 7 7 6 6 6 6 7 8 5 9 13 16 19 23 24 26 29 31 32 33 31 29 29 28
10 12 15 17 18 20 22 22 22 22 20 21 21 22 21 18 14 9 8 6 5 5 5 4 5 6 8 10 11 14 14 18 20 21 23 25 27 29 31 30 28 28 25
14 15 15 16 18 19 20 21 22 21 22 23 22 18 15 11 10 8 7 6 5 3 3 2 5 7 6 7 11 13 12 16 20 23 25 24 26 29 30 29 26 27 27
17 16 16 17 18 20 21 21 21 22 22 21 19 15 12 9 7 7 5 4 4 4 3 3 4 3 5 7 8 7 11 17 21 25 26 28 30 34 37 36 33 30 33
17 18 19 19 18 20 21 22 20 21 20 17 14 12 10 8 6 5 3 2 2 2 2 3 4 5 6 7 8 15 17 18 22 24 28 33 34 36 34 29 25 24 26
17 19 20 19 19 18 18 19 19 17 16 14 12 11 9 7 5 4 2 1 0 1 2 3 5 6 7 8 11 16 18 19 21 23 29 30 31 29 27 27 22 21 22
17 19 18 19 18 17 16 15 15 15 14 12 10 8 7 5 5 5 3 3 4 2 1 2 4 6 7 8 13 15 18 21 22 27 26 21 21 20 21 22 19 17 19
19 18 18 18 17 16 14 12 11 12 13 12 9 7 5 4 3 3 4 2 2 2 4 5 3 3 5 11 14 16 19 21 18 19 18 17 17 18 20 22 22 18 18

GFSMW_925_spd_081.txt.gz
Wind_Speed
16 17 15 15 16 18 24 29 32 37 35 31 32 33 30 24 29 25 20 23 22 21 24 22 23 22 19 19 19 18 13 12 11 7 4 7 12 14 13 11 10 9 8
14 19 22 22 22 25 23 25 34 37 38 36 33 29 29 22 24 27 28 27 27 26 25 22 26 22 20 21 20 20 16 11 11 6 2 1 1 11 12 13 13 13 13
17 16 22 26 26 26 30 29 32 37 38 36 32 24 24 27 30 33 33 30 27 27 25 23 26 24 24 26 25 21 18 13 15 12 4 1 3 1 3 12 17 13 15
17 17 21 26 29 31 31 32 34 41 39 37 30 27 25 22 27 33 32 28 29 29 27 27 26 25 25 28 27 23 20 14 16 12 9 6 3 3 2 4 4 7 14
21 21 21 29 32 36 34 34 33 33 36 36 35 30 31 32 29 30 29 27 29 27 27 29 26 27 30 27 26 25 23 17 17 15 9 8 9 11 5 3 5 5 4
21 21 30 30 31 37 37 35 34 35 37 38 38 36 33 32 31 29 31 30 30 27 27 29 26 28 29 26 26 26 26 21 17 11 9 7 4 4 3 3 6 7 11
22 21 21 26 32 35 36 37 36 31 39 40 39 41 36 38 35 34 34 34 33 30 31 31 31 28 29 28 29 31 29 23 16 11 10 6 3 2 6 9 7 7 10
22 24 24 32 36 38 38 37 37 37 35 40 40 41 36 37 39 37 37 38 38 35 34 35 32 28 31 29 31 31 24 20 13 13 11 11 11 13 13 10 7 2 4
21 24 23 33 36 40 43 46 41 37 35 37 41 42 43 38 35 36 38 38 37 33 27 31 32 29 31 28 30 22 13 9 12 12 14 13 12 15 15 14 14 11 3
18 19 20 31 36 40 43 42 43 42 44 39 37 38 41 41 39 33 37 39 33 28 23 26 31 28 29 26 15 10 10 11 11 12 13 12 15 16 15 15 16 16 16
6 12 23 31 37 38 38 40 41 39 36 35 37 38 40 42 39 34 34 32 30 27 25 29 31 32 30 26 26 20 18 13 11 12 16 18 16 16 17 18 20 22 23
9 8 5 18 31 36 35 36 37 38 36 36 37 40 42 42 38 30 30 32 30 28 28 28 32 32 31 30 27 22 18 15 18 16 19 17 19 21 17 17 19 23 25
7 8 6 5 23 30 30 29 34 38 36 31 38 35 36 36 29 28 27 30 29 27 25 28 32 31 29 27 23 21 20 18 15 16 17 15 11 12 14 15 16 19 21
6 7 7 8 12 29 25 27 28 32 35 39 32 30 32 35 29 30 33 30 28 26 29 32 32 29 25 23 19 17 15 15 17 16 10 8 9 13 16 19 21 22 23
7 6 8 8 9 17 26 29 28 27 25 22 24 28 32 30 30 33 31 29 28 33 33 29 26 25 23 18 16 16 15 15 13 10 8 9 11 13 15 17 20 20 22
8 8 7 6 5 14 20 23 26 26 26 25 24 25 24 25 26 27 28 31 32 29 28 24 24 21 14 12 13 13 17 12 10 9 12 13 15 17 18 17 16 13 14
8 7 7 8 12 17 24 24 26 24 23 25 22 22 23 24 24 25 26 28 29 28 23 21 20 15 15 12 14 12 9 6 6 7 10 12 12 13 17 20 22 24 25
7 8 8 12 14 22 25 27 27 27 26 24 22 21 21 22 22 24 25 25 27 21 19 17 16 13 12 15 12 8 5 4 4 6 7 11 15 17 18 22 25 26 27
6 7 16 18 21 22 24 27 25 25 24 23 23 23 24 25 24 23 26 26 21 18 18 14 15 16 15 12 9 6 5 5 7 10 13 14 16 18 18 21 25 28 30
14 16 20 21 22 22 23 24 21 21 19 21 21 22 22 24 25 25 24 21 20 16 17 16 16 15 15 9 5 4 4 6 8 10 12 13 13 14 17 21 27 29 33
17 21 21 19 20 20 19 18 18 17 19 20 20 22 22 23 25 24 22 19 17 19 20 19 14 11 7 5 2 4 6 5 8 12 15 16 16 17 20 20 22 24 27
11 20 17 18 20 19 19 17 15 19 21 22 22 23 23 20 23 19 18 19 20 20 16 14 12 11 10 4 3 3 4 6 9 12 14 17 19 19 17 15 18 19 22
10 16 19 18 19 19 18 16 18 25 26 24 20 19 20 19 21 20 18 18 16 14 12 10 13 11 10 6 3 3 6 9 10 12 14 18 18 15 12 17 19 19 20
8 18 20 16 16 17 16 24 25 24 24 23 23 21 22 21 21 20 19 19 16 14 11 11 13 12 9 4 4 7 10 12 13 16 17 17 15 9 16 19 20 17 19
16 21 20 21 20 26 23 22 24 25 25 24 22 21 22 22 21 18 14 12 10 7 10 9 9 8 6 5 8 11 13 13 14 16 15 16 14 14 16 18 17 19 20
22 23 22 27 27 31 30 26 23 27 29 26 26 23 21 18 15 12 11 9 6 4 3 1 3 4 4 5 8 11 13 12 13 13 15 16 12 14 16 16 17 17 18

GFSMW_925_spd_084.txt.gz
Wind_Speed
10 11 13 15 15 15 22 29 34 32 34 35 34 32 31 33 30 26 28 23 24 19 20 19 22 23 24 27 26 21 19 16 15 13 11 13 13 14 15 16 14 13 13
12 13 14 15 17 18 21 22 28 36 33 32 32 28 27 30 29 30 29 23 26 20 15 19 24 28 27 29 27 26 22 19 20 10 6 1 4 16 17 16 14 13 11
16 12 16 18 18 18 26 29 30 37 38 36 32 29 28 28 28 28 27 25 22 17 18 22 28 32 33 32 30 27 28 22 21 18 7 2 4 2 8 16 18 16 15
11 11 15 17 24 27 28 27 32 34 37 36 32 29 24 21 25 29 28 24 22 22 25 26 31 31 36 32 30 29 31 28 23 19 18 10 7 3 1 5 7 5 10
17 17 17 23 28 29 33 30 34 37 36 38 37 33 27 27 27 28 29 31 31 31 31 32 35 36 35 32 32 33 32 30 28 25 19 13 10 8 3 3 6 7 5
18 17 24 26 26 29 32 32 31 36 39 39 39 35 30 29 30 33 34 37 38 36 35 34 36 35 35 35 34 36 34 32 28 29 20 15 6 7 5 2 6 8 10
20 19 20 25 29 33 36 35 34 33 37 37 38 40 37 35 35 36 36 35 37 38 38 35 35 34 36 35 35 36 34 30 25 20 12 10 9 7 7 5 7 8 6
20 22 23 30 32 36 38 37 37 36 37 39 41 41 41 38 39 40 39 40 40 43 40 38 36 33 32 34 35 34 30 24 17 16 12 12 11 11 10 9 5 1 5
21 23 22 31 34 37 43 45 41 40 40 41 40 40 39 43 39 40 44 43 42 42 42 40 35 34 31 32 34 32 28 24 21 17 16 16 18 16 13 12 13 10 3
20 18 19 28 34 37 42 41 42 43 43 37 40 40 42 47 44 42 45 45 43 40 39 36 32 34 33 29 32 32 30 24 23 22 20 23 19 15 14 14 18 16 16
19 19 19 30 36 36 34 38 38 38 36 39 38 38 39 45 45 46 45 45 44 38 35 29 29 33 31 31 34 34 30 29 26 24 22 22 18 16 16 19 21 20 20
18 18 19 27 30 32 32 36 37 37 38 37 37 38 37 38 40 42 35 33 28 29 30 28 28 30 34 34 37 33 33 28 27 23 22 21 18 19 19 19 20 20 20
9 13 13 14 22 29 30 33 34 39 39 36 37 36 36 36 37 36 37 34 19 39 33 30 33 34 39 42 40 36 30 28 23 21 20 17 17 18 16 14 13 15 17
8 8 7 12 23 28 31 32 35 36 37 35 38 36 35 37 39 35 30 26 38 40 36 36 36 37 39 40 36 31 25 20 18 16 18 16 14 12 10 9 10 11 15
8 8 9 9 11 16 23 29 30 32 34 34 33 34 30 29 33 35 33 32 35 37 35 36 33 32 33 30 32 26 20 18 16 15 13 12 9 6 5 8 9 11 11
4 8 10 9 7 15 19 22 24 30 33 32 30 27 25 27 30 28 23 27 28 29 32 31 31 33 28 24 21 17 18 17 17 18 13 10 8 9 7 6 6 9 12
8 6 5 6 9 12 21 22 24 26 27 27 23 19 19 20 20 20 22 25 27 28 29 29 28 25 23 18 16 14 14 18 14 10 9 7 7 8 9 11 14 16 16
7 6 5 7 12 13 15 19 21 22 23 21 19 18 20 22 22 23 24 25 26 26 27 24 21 20 15 16 14 16 17 13 9 7 6 6 7 10 13 16 19 20 20
6 6 12 14 18 18 18 20 20 18 19 20 20 21 22 23 21 21 23 23 24 24 21 20 19 20 15 17 20 18 15 11 8 4 5 8 11 12 13 15 17 20 22
8 12 18 20 20 19 21 22 18 19 17 19 19 18 18 18 19 20 21 23 24 21 20 19 18 18 23 19 16 12 9 7 4 4 6 7 8 9 10 12 16 18 19
13 16 17 15 18 19 19 18 18 14 15 16 16 15 15 16 17 19 22 22 21 20 20 21 22 21 18 14 7 5 3 1 2 4 7 9 9 10 12 10 10 12 17
12 16 16 16 16 16 16 16 13 14 15 15 14 13 14 15 19 19 17 19 21 25 25 25 21 16 12 8 5 1 2 2 4 6 9 11 12 12 9 5 9 14 17
12 17 19 18 15 12 12 16 15 17 18 18 17 17 16 15 15 14 16 18 21 23 20 19 17 14 11 8 5 1 3 6 7 8 9 10 10 8 3 7 10 13 15
12 18 18 14 13 13 15 21 21 22 22 22 22 21 22 22 20 18 17 17 14 15 14 13 14 14 9 3 1 4 7 9 10 10 12 9 8 3 5 8 10 12 13
17 20 21 21 20 26 24 22 25 27 29 28 26 26 28 27 27 26 21 18 15 10 10 10 10 9 5 2 3 7 10 11 10 12 10 9 6 4 7 9 8 11 11
22 25 24 26 23 29 30 27 25 30 32 28 26 25 26 24 22 20 18 14 11 8 6 5 3 2 1 1 3 7 9 11 10 10 7 3 4 7 7 9 9 10 12

GFSMW_925_spd_087.txt.gz
Wind_Speed
7 12 13 15 15 18 21 25 25 30 35 30 27 28 27 33 27 22 23 23 22 20 19 25 24 25 28 25 25 23 22 19 18 16 12 12 14 15 17 18 17 16 13
7 10 13 16 18 20 23 23 25 27 25 25 23 23 29 33 32 26 24 24 24 21 22 26 26 27 28 28 28 28 23 18 21 10 6 1 5 16 19 19 20 18 16
9 11 12 15 16 19 22 25 28 31 29 28 26 23 21 26 26 30 27 24 25 22 20 21 25 30 31 31 31 30 28 24 23 15 7 2 4 2 8 18 20 20 20
7 11 13 15 19 22 24 27 32 32 31 29 30 28 26 25 27 30 29 23 22 22 22 26 29 32 29 29 31 31 31 30 26 22 18 9 7 4 1 8 14 20 21
11 12 13 20 21 20 27 27 29 34 32 31 31 32 28 29 30 30 28 25 26 29 32 32 28 27 29 33 34 35 34 33 30 30 18 16 11 7 3 3 6 11 12
12 10 15 18 20 24 27 30 29 31 35 34 34 34 30 31 31 33 29 32 34 34 33 31 28 28 30 34 35 36 35 37 35 32 25 12 3 5 4 2 3 7 7
15 13 14 15 19 27 29 30 33 32 37 39 41 42 40 38 36 36 35 33 37 36 35 34 33 34 34 36 38 36 36 39 37 30 24 20 19 6 6 5 7 6 8
14 16 16 19 21 23 28 30 29 30 33 37 40 42 41 37 37 37 36 36 37 41 41 39 39 39 37 37 36 37 38 38 34 28 23 28 23 19 16 14 10 2 5
15 18 16 22 22 25 29 31 29 29 31 35 36 38 39 39 37 38 36 39 42 42 40 40 41 42 39 38 37 39 38 35 33 32 30 28 22 21 20 19 15 10 3
15 14 15 23 28 28 28 31 33 33 33 32 36 36 38 40 40 34 38 39 40 41 40 41 41 42 41 38 36 36 35 34 33 33 31 29 27 25 23 21 17 18 18
17 18 18 27 30 27 31 34 37 37 35 35 35 36 38 38 37 37 38 41 39 42 43 41 39 40 37 34 35 37 37 35 38 33 34 32 27 25 24 21 21 21 22
17 17 18 24 26 30 30 35 37 41 43 40 36 40 39 36 36 40 39 37 39 42 39 37 36 31 38 41 39 37 37 39 39 36 36 31 26 23 21 21 22 23 22
7 12 12 15 22 29 31 34 37 42 41 40 39 36 37 37 39 39 37 40 38 27 29 23 35 37 41 40 38 41 41 41 40 37 32 27 23 21 21 23 21 20 17
11 11 8 13 20 27 31 34 38 41 41 40 40 38 38 41 42 37 33 33 30 28 30 38 38 37 38 37 37 36 35 36 35 32 25 21 20 19 21 20 16 14 15
8 10 13 13 13 19 26 30 33 34 37 38 37 39 37 33 33 34 36 34 35 41 35 34 32 36 36 35 34 33 32 31 30 23 17 17 16 15 16 14 13 12 12
9 10 10 9 11 17 23 27 29 32 33 32 31 30 30 29 30 31 29 29 31 30 26 27 33 36 32 33 35 34 29 22 15 14 12 11 14 14 11 11 10 9 9
10 9 9 11 9 10 17 18 18 21 25 25 22 22 23 23 22 22 24 28 26 23 25 29 30 28 29 26 27 24 21 20 19 17 17 15 11 8 8 8 9 11 13
8 7 5 5 6 6 10 11 11 12 16 18 17 16 14 14 16 18 21 20 21 23 23 21 20 22 19 22 20 17 17 15 14 16 12 10 7 6 8 9 10 12 13
5 5 8 9 9 11 14 15 14 14 15 15 14 13 14 15 15 16 16 16 18 17 17 19 19 20 17 16 15 15 19 21 16 11 7 4 5 5 6 8 10 11 12
7 9 13 13 13 11 12 15 14 13 11 9 9 8 9 11 13 13 12 12 14 16 16 17 16 17 18 14 15 16 15 13 11 7 4 3 4 4 6 7 9 10 9
13 18 15 13 13 14 16 16 15 13 10 9 9 8 6 6 8 10 12 15 18 20 20 21 19 18 19 16 12 10 9 7 6 5 3 1 3 5 7 5 4 5 10
11 15 15 15 14 13 16 16 14 12 11 11 11 10 10 10 11 14 14 16 19 21 20 23 22 19 16 14 11 9 7 5 3 1 3 5 6 6 5 3 3 7 11
12 14 16 17 15 12 14 18 14 15 20 21 20 20 19 18 17 18 17 18 17 19 18 19 19 16 12 11 9 6 4 3 4 4 6 7 7 6 2 2 5 9 12
11 17 19 17 17 17 20 22 22 22 23 24 22 21 22 22 21 20 19 19 17 18 16 14 13 11 8 6 4 4 4 6 7 6 7 6 5 2 0 4 6 9 11
18 20 19 20 21 25 25 23 23 23 26 24 23 24 26 27 28 27 23 22 18 14 11 9 8 10 7 5 4 6 6 6 6 7 7 5 2 1 2 4 6 8 8
20 22 21 24 22 28 27 22 21 25 29 26 22 23 26 25 22 19 18 16 13 10 8 6 3 5 3 2 1 1 2 4 5 6 2 1 2 2 3 3 4 5 6

GFSMW_925_spd_090.txt.gz
Wind_Speed
6 9 9 11 15 14 15 17 21 30 33 32 31 28 28 33 33 33 30 27 25 26 26 28 27 27 28 27 24 23 23 21 19 16 10 11 13 15 16 17 17 18 17
8 9 10 11 14 16 19 22 22 25 33 29 25 22 21 26 28 30 32 29 25 28 30 26 27 28 29 26 26 26 23 19 23 11 6 1 7 19 20 21 21 21 21
11 10 10 12 14 16 20 23 26 29 29 31 30 21 24 22 22 23 26 28 33 30 27 27 29 30 29 30 29 29 27 25 25 20 8 2 5 3 13 23 23 23 24
9 9 12 14 16 16 18 21 26 26 27 32 31 29 26 24 26 30 29 27 26 27 24 26 27 28 29 30 31 32 32 30 25 25 22 10 4 3 1 8 19 23 24
14 12 12 17 18 20 21 22 25 29 31 35 35 31 26 25 28 32 29 29 24 21 22 24 23 24 27 30 31 35 37 35 30 31 19 18 10 7 3 2 3 13 19
12 12 17 16 19 21 23 26 26 29 31 35 37 35 33 30 29 31 31 34 31 28 27 28 28 26 29 30 33 37 37 40 36 30 28 22 12 7 3 2 2 5 7
14 13 14 16 20 21 23 27 28 29 34 36 36 38 37 37 35 35 35 33 33 33 33 30 30 31 32 33 33 36 39 41 39 36 31 31 26 22 20 16 5 7 9
12 15 16 19 24 26 25 24 26 27 31 33 34 34 37 35 35 35 33 34 36 37 37 36 35 37 37 36 36 37 41 39 39 40 36 35 33 29 27 22 11 2 8
14 16 15 22 25 26 29 29 30 30 31 34 34 34 34 35 32 34 35 36 38 38 37 37 39 39 38 39 38 38 39 37 39 40 38 36 36 29 28 27 23 14 4
10 11 13 22 27 27 29 32 34 35 35 36 35 36 36 37 38 35 35 37 39 39 39 39 39 38 38 37 37 36 35 34 37 38 38 38 37 31 32 29 25 22 17
12 13 14 19 21 24 27 30 31 30 30 33 35 37 38 39 38 39 42 40 39 41 42 42 42 43 42 38 35 33 31 29 36 38 39 41 38 34 36 30 25 24 22
9 9 6 11 18 23 26 29 30 33 33 35 35 34 34 36 39 42 41 38 41 43 45 42 43 37 38 37 32 32 28 31 38 40 38 38 39 34 36 32 28 26 23
8 8 9 11 14 20 23 27 31 36 35 33 33 30 35 33 38 38 37 40 42 44 42 40 35 38 37 39 34 33 37 47 42 38 39 39 39 33 31 26 26 23 20
7 6 7 11 15 21 24 25 28 32 32 36 37 33 35 38 36 36 36 38 40 38 38 38 35 39 37 36 36 36 35 34 33 34 37 35 36 32 29 25 23 20 19
7 8 9 10 10 18 22 26 29 31 31 32 32 42 34 31 31 34 36 38 37 36 37 36 38 37 33 35 33 34 35 35 32 30 28 25 23 23 19 18 17 17 18
10 10 10 9 11 20 25 26 27 28 29 30 33 30 30 31 33 34 36 37 34 33 33 35 36 33 30 34 35 36 34 34 32 30 24 20 17 13 12 12 12 13 14
10 10 12 10 7 13 17 19 19 21 26 27 26 26 27 30 32 31 29 30 33 34 34 34 29 28 29 30 31 29 27 24 22 22 19 18 17 15 14 12 13 9 9
10 8 6 6 9 7 9 11 10 12 17 18 17 19 20 19 19 20 23 26 26 25 21 19 18 17 15 15 19 20 16 17 17 17 16 14 13 11 11 8 6 8 9
3 6 12 13 12 13 15 18 15 14 14 13 11 11 12 14 15 13 12 10 9 6 6 7 8 9 11 12 16 19 20 18 18 16 15 12 10 5 5 6 6 6 6
8 12 16 15 17 16 17 21 19 19 16 15 13 10 9 9 9 8 8 8 9 12 12 14 13 16 15 11 10 13 18 22 20 13 10 6 4 2 2 3 3 3 3
13 18 17 17 18 18 22 21 21 18 18 19 18 17 15 14 12 12 11 11 13 15 18 21 19 18 16 15 15 15 15 14 13 10 9 6 2 1 3 3 2 3 3
12 15 19 19 20 21 24 20 20 20 23 23 22 20 18 16 14 13 13 13 17 20 21 22 21 19 18 16 15 15 13 12 10 8 4 2 3 3 2 1 2 3 3
13 17 21 21 21 23 23 22 19 22 23 24 23 21 20 19 16 16 17 17 16 17 16 16 17 17 16 16 13 12 10 10 9 6 4 5 6 5 3 5 4 3 5
15 17 21 22 21 21 21 23 22 23 26 27 24 23 24 24 23 22 21 22 19 18 17 16 14 12 10 9 8 9 9 8 7 6 6 4 1 4 6 4 4 4 6
22 24 17 23 21 22 24 20 21 25 31 30 28 28 29 30 31 30 26 25 20 16 14 11 9 8 8 8 8 8 8 7 6 5 4 2 2 4 4 4 4 7 7
22 28 19 24 23 28 28 24 23 27 32 29 25 23 24 24 24 23 25 23 20 18 16 13 11 9 7 6 6 6 6 6 6 4 2 4 4 5 5 4 3 4 5

GFSMW_925_spd_093.txt.gz
Wind_Speed
8 8 8 8 8 9 10 14 17 20 24 25 23 21 26 31 29 32 30 31 34 39 33 31 31 31 26 28 28 24 22 17 19 15 8 12 15 17 18 18 18 20 19
10 10 11 11 12 10 10 13 17 21 23 25 21 22 23 26 22 25 35 34 33 29 29 28 29 29 27 26 27 27 22 16 24 10 9 4 9 17 21 21 21 20 20
14 13 13 14 12 14 13 15 19 24 24 25 25 21 19 20 21 28 31 34 34 31 27 29 28 31 28 28 29 28 26 17 25 18 7 3 6 7 12 24 23 23 24
14 13 14 16 16 15 13 16 20 28 27 29 27 31 23 22 20 27 30 31 29 31 26 23 26 27 34 29 29 31 31 22 18 19 24 11 4 4 4 9 15 20 21
17 16 15 17 16 16 17 20 22 21 23 27 32 31 21 20 20 29 31 31 28 27 27 29 33 34 29 29 31 32 33 34 22 22 12 15 9 9 6 7 7 11 24
17 16 18 19 19 17 17 19 23 25 25 24 28 30 26 24 25 28 29 30 31 32 35 36 30 34 31 34 34 32 35 37 37 26 28 24 13 13 6 5 5 7 11
17 17 17 18 22 23 22 21 22 22 29 33 30 32 29 24 23 28 25 29 32 29 30 31 33 32 31 31 29 30 33 36 36 34 33 35 31 26 23 20 9 8 12
17 19 20 21 24 26 26 25 26 26 26 29 31 32 29 26 25 27 26 26 27 29 28 33 31 30 31 31 31 32 34 34 37 40 43 39 35 38 34 25 14 2 11
17 20 20 25 26 27 29 29 28 26 26 28 28 29 31 30 27 26 27 27 28 29 31 34 32 33 34 34 32 34 35 35 39 40 40 40 34 33 34 33 31 20 7
14 15 17 24 26 26 26 26 27 26 25 27 29 30 31 32 31 29 29 28 27 28 28 31 32 32 34 32 32 34 35 35 40 39 37 36 34 30 31 33 34 27 25
14 15 15 20 22 21 25 26 25 27 28 28 29 30 32 32 33 34 33 32 30 29 28 28 30 33 33 36 35 35 36 39 41 40 39 38 35 36 35 37 35 32 28
13 13 13 18 22 24 25 28 28 30 30 31 31 31 31 33 34 37 36 33 36 34 33 29 28 28 31 34 32 36 37 40 40 40 36 34 31 37 34 35 37 32 31
8 12 14 15 20 25 27 28 29 31 30 30 30 30 33 36 38 35 31 34 38 33 30 28 29 32 35 39 41 42 39 40 43 40 37 38 37 35 33 35 31 30 31
7 10 13 15 19 24 26 27 29 30 29 29 30 31 33 33 30 32 31 31 30 27 27 28 31 34 34 37 37 36 36 37 37 36 37 40 37 40 34 30 31 28 28
9 11 11 14 14 21 24 25 26 28 29 30 31 33 27 26 25 27 27 26 25 27 27 29 31 33 32 35 33 32 34 33 35 35 34 36 37 39 35 33 31 30 24
9 9 11 13 15 21 24 22 22 23 25 27 28 25 24 22 22 23 23 23 23 23 24 29 31 32 35 38 39 35 29 30 31 26 24 26 26 25 27 25 22 20 20
12 11 11 10 7 13 13 14 18 20 22 22 21 19 19 20 19 18 17 18 19 21 25 28 27 27 24 25 26 25 26 23 20 19 18 15 14 14 12 8 12 11 11
14 11 4 5 8 6 8 9 9 11 13 12 12 13 14 14 14 13 14 15 15 13 10 8 7 8 9 11 12 15 14 9 9 11 14 15 13 11 13 11 8 6 3
1 3 9 13 15 14 16 17 16 14 14 12 9 6 7 8 8 8 7 6 6 7 8 8 7 7 8 3 6 7 13 16 17 15 13 13 13 12 9 7 6 4 4
10 12 16 17 21 18 21 22 21 21 19 18 15 12 11 12 14 13 13 13 14 15 15 17 16 16 15 10 10 12 17 20 19 17 16 15 12 13 13 9 4 3 3
14 18 20 18 18 22 25 24 24 22 23 25 23 21 19 18 16 16 15 15 17 19 21 23 22 22 20 20 19 16 17 17 15 13 12 10 8 6 4 1 2 4 6
12 14 18 21 24 26 28 25 24 23 27 28 28 25 22 20 19 20 19 19 20 24 24 25 26 25 24 22 21 19 16 12 12 10 7 6 6 4 2 1 2 4 4
14 15 21 26 25 22 22 27 22 28 29 30 28 27 27 27 25 25 24 24 22 23 21 20 20 19 19 19 18 17 15 13 11 8 5 4 5 7 3 3 4 1 0
14 19 24 25 26 28 24 25 23 29 29 28 25 26 29 29 30 30 27 25 21 19 17 16 15 14 14 14 13 12 11 10 9 8 8 7 7 2 4 1 2 3 3
16 20 21 26 25 27 30 21 19 28 32 29 27 26 28 30 32 33 27 29 26 21 17 14 12 10 12 11 12 12 11 9 8 7 6 6 6 4 4 4 3 3 4
20 21 22 26 28 37 29 20 21 25 30 28 24 22 23 23 22 24 28 29 27 24 22 20 16 17 16 14 14 13 13 12 10 7 8 8 7 7 8 8 5 6 8

GFSMW_925_spd_096.txt.gz
Wind_Speed
7 8 8 7 6 6 8 10 11 10 15 20 13 19 23 33 28 35 38 41 36 33 29 24 22 22 21 19 18 17 17 14 12 11 9 9 10 12 14 15 16 16 17
11 10 10 10 9 9 9 10 12 12 15 19 18 18 20 23 28 31 29 28 32 31 30 25 24 22 19 18 18 16 16 11 16 11 11 5 11 17 18 18 18 19 20
13 13 13 14 12 11 11 12 12 17 18 22 23 24 22 20 21 25 27 26 28 26 28 24 23 22 20 21 21 19 18 13 16 14 9 4 6 11 18 23 22 22 22
13 13 14 16 16 14 12 12 13 16 18 24 23 29 21 25 18 24 28 30 29 29 30 24 22 21 20 19 21 20 18 16 15 17 22 14 4 5 4 15 22 23 24
14 15 15 18 18 16 15 13 14 17 19 20 21 23 19 22 20 22 23 28 32 32 29 25 23 19 19 18 17 20 21 21 19 20 17 22 20 16 7 7 11 18 24
15 15 16 18 19 19 17 17 17 18 19 21 21 23 22 23 20 23 22 25 30 29 37 33 21 21 18 17 21 20 21 22 21 23 22 22 18 20 18 7 5 9 17
15 16 17 16 20 21 20 18 19 20 20 21 22 25 22 23 23 23 23 25 23 29 34 34 34 33 27 22 22 22 23 23 24 27 30 28 28 24 18 18 13 14 23
15 18 18 17 22 23 22 21 21 21 22 22 22 24 25 22 24 25 25 23 23 23 24 26 28 33 32 30 29 28 22 21 24 27 28 29 28 28 33 29 20 7 18
15 19 19 20 22 24 24 24 24 23 24 26 25 24 24 25 26 24 24 23 22 21 20 21 24 25 28 29 25 24 26 25 27 27 28 29 30 31 31 32 32 25 12
15 17 18 21 22 24 24 24 25 26 26 28 29 29 28 27 27 28 28 26 24 23 23 26 25 28 28 26 26 28 27 27 29 28 29 29 29 31 31 32 33 35 30
14 16 17 22 23 23 25 26 27 27 28 29 29 29 30 31 31 30 29 29 26 26 27 28 28 30 32 31 31 32 30 29 30 30 30 32 31 32 33 34 34 32 32
11 13 15 19 24 25 27 28 28 29 28 28 29 30 29 30 32 33 32 30 31 29 30 30 31 32 33 34 33 32 31 31 32 34 34 38 37 39 42 36 35 34 36
8 11 14 16 19 25 26 28 29 30 28 28 29 29 30 31 30 30 30 28 26 27 27 28 29 29 29 29 29 30 34 38 35 32 33 36 37 37 35 36 34 33 33
8 10 12 15 18 24 26 28 28 29 29 30 30 30 30 29 27 27 27 27 27 26 27 28 29 29 28 28 28 29 32 32 31 30 36 39 34 35 35 31 36 35 33
8 10 12 14 15 20 23 25 25 27 28 29 28 27 25 24 24 24 24 24 25 27 27 26 26 26 26 26 28 29 33 34 34 33 33 30 31 31 35 30 27 24 22
12 10 12 13 14 18 20 22 22 23 24 25 24 22 22 22 22 22 22 23 25 24 23 23 23 24 25 30 33 33 26 25 25 24 24 24 24 25 28 28 24 20 20
13 11 11 11 11 16 17 19 20 20 21 20 19 18 19 19 19 19 20 21 20 19 20 21 20 15 13 17 17 14 14 16 12 8 7 5 2 1 3 5 7 8 7
11 12 10 6 11 12 16 16 17 19 19 17 15 14 13 13 12 13 12 11 9 8 7 7 5 4 7 6 5 4 2 5 7 7 8 10 12 12 10 11 11 11 10
6 5 5 5 13 13 14 14 15 14 14 14 12 10 9 10 11 11 11 12 14 15 16 16 15 15 15 9 7 7 13 17 18 17 16 15 14 13 11 11 10 8 7
5 4 8 12 14 16 19 25 20 21 21 21 21 22 21 22 22 19 19 20 22 24 23 25 25 25 24 19 16 16 18 20 20 18 16 14 12 9 8 8 6 5 2
13 13 15 17 19 21 26 25 25 24 25 30 32 31 30 29 27 26 25 26 27 28 29 31 30 30 27 25 23 20 20 17 15 13 12 12 11 10 9 8 5 3 5
17 17 18 19 22 24 26 27 25 24 29 29 33 33 32 29 29 30 27 26 28 30 26 27 25 28 27 24 23 21 19 15 14 11 9 8 9 10 7 5 6 5 4
18 20 22 23 24 24 26 26 24 29 31 34 30 32 33 32 28 28 25 24 23 22 19 20 19 18 19 20 20 19 18 16 12 10 10 11 11 11 5 4 4 6 5
16 20 25 22 23 25 25 27 25 29 32 33 28 28 30 31 29 28 26 25 20 19 17 16 15 13 15 14 13 12 12 13 11 10 9 10 11 8 5 5 4 7 8
16 21 21 23 25 22 23 24 25 30 36 31 29 28 29 32 34 33 27 28 26 18 17 17 17 15 17 17 15 15 13 12 11 9 10 11 12 12 11 11 10 8 10
21 21 24 25 24 26 25 24 24 29 33 30 24 23 24 25 26 29 35 34 32 31 28 25 20 20 18 16 15 14 15 15 14 10 12 12 13 13 14 14 14 14 14

GFSMW_925_spd_099.txt.gz
Wind_Speed
8 11 11 11 12 12 12 13 10 10 11 7 4 11 31 37 37 43 43 44 44 42 32 33 26 23 23 22 22 20 19 16 15 13 12 10 9 11 14 14 16 17 18
10 11 13 13 14 15 13 15 12 11 10 9 4 6 10 32 33 35 42 46 46 44 37 27 27 25 22 21 20 19 18 15 13 13 11 5 9 16 17 16 18 20 20
14 14 13 15 16 16 16 15 15 13 13 14 14 15 23 30 29 31 34 40 42 43 33 26 27 26 22 22 22 20 18 14 13 12 7 4 5 10 18 23 21 21 23
10 15 15 15 17 17 16 15 16 15 17 16 19 14 13 14 18 26 27 35 39 37 35 28 26 22 18 22 22 20 18 15 13 13 16 11 2 3 2 18 23 23 24
11 15 15 17 17 18 17 17 16 15 17 19 17 20 14 16 24 24 26 30 36 33 32 27 23 21 26 20 20 19 19 17 15 17 10 15 14 13 7 6 9 22 26
12 15 16 17 18 18 17 17 17 16 18 20 18 18 19 19 22 23 23 27 28 33 35 28 27 26 23 21 23 20 20 19 18 17 16 16 13 15 15 10 14 9 18
13 15 17 15 19 22 20 19 19 18 17 20 20 22 23 23 21 23 24 26 24 26 32 35 31 27 21 18 16 18 23 20 20 20 21 22 22 20 18 13 11 10 20
13 17 18 16 20 22 23 21 21 20 20 21 23 25 22 22 23 22 20 23 25 27 30 36 32 28 26 25 21 24 27 25 23 23 22 21 20 21 23 24 19 7 17
13 17 19 17 20 22 24 24 24 21 22 23 21 22 24 24 24 26 25 24 24 25 26 35 34 33 33 31 34 28 28 28 26 24 25 26 24 25 25 26 28 23 11
13 16 18 17 21 22 22 22 23 24 24 24 22 22 26 25 25 27 28 26 24 26 26 27 30 28 28 29 29 28 26 26 26 27 26 27 26 27 27 29 29 30 30
12 15 17 21 22 22 23 23 22 24 24 25 25 24 25 23 24 26 25 24 24 25 25 28 26 27 27 26 26 27 25 27 29 28 29 30 30 30 27 28 31 36 35
9 14 17 17 22 23 24 25 24 23 24 25 26 26 25 25 25 25 26 25 26 25 24 24 24 25 26 27 30 31 30 30 30 32 32 32 30 30 31 34 34 34 34
7 12 16 18 18 23 24 25 24 24 24 24 25 25 26 26 27 27 27 26 26 26 27 27 27 27 29 29 31 31 32 32 32 31 31 30 30 34 34 33 31 30 33
6 11 14 16 17 24 25 25 25 26 25 25 25 25 26 26 25 25 26 27 27 26 27 28 27 28 28 28 28 30 30 29 28 27 32 36 33 27 25 29 30 32 29
6 9 12 14 16 20 24 25 26 26 27 26 26 26 25 24 23 23 23 23 25 25 24 23 24 23 24 24 26 26 27 27 28 28 19 15 17 21 20 20 21 20 23
13 9 12 14 15 16 21 23 25 27 27 27 27 25 24 23 23 23 22 21 21 21 20 20 20 20 15 22 25 23 22 20 10 6 5 7 11 12 13 12 11 12 10
15 13 11 12 12 17 19 21 22 24 25 25 24 24 23 22 21 20 20 20 20 18 10 7 6 4 4 6 7 6 1 2 7 7 8 10 12 11 10 12 14 17 15
12 8 7 3 8 15 17 17 19 21 21 21 21 21 20 20 19 16 14 13 12 12 13 13 13 14 15 12 11 8 12 15 16 16 17 16 18 17 14 14 14 14 13
6 5 6 2 7 9 17 20 19 19 18 18 18 18 17 16 20 22 22 22 24 24 24 23 22 22 21 16 16 15 19 22 22 20 18 16 16 14 13 13 12 11 10
3 1 3 8 8 8 11 17 14 18 18 20 18 19 23 24 27 26 27 27 29 32 30 33 32 30 28 23 23 22 21 22 18 16 16 18 16 15 15 12 12 11 9
6 7 7 13 15 16 20 23 24 22 23 31 29 27 29 32 31 32 31 33 34 35 33 33 32 32 30 26 24 21 20 16 13 12 12 14 16 15 13 13 12 11 12
7 9 12 16 20 21 25 23 25 23 30 38 34 29 30 31 33 35 32 31 32 31 27 27 26 27 27 25 24 23 21 17 17 15 13 13 17 16 11 10 13 14 11
11 15 18 20 24 23 24 27 24 25 31 43 35 27 30 31 32 30 27 26 24 23 21 21 19 18 17 17 20 22 21 20 15 13 15 15 13 15 10 14 11 12 12
10 16 20 20 22 26 25 28 28 28 34 38 33 25 31 30 31 31 25 23 20 19 18 20 19 18 19 17 16 15 15 15 13 12 11 12 13 13 13 14 15 13 13
11 16 19 19 23 27 29 25 29 30 34 38 31 26 30 31 32 34 29 30 28 22 23 22 20 18 19 18 17 18 16 14 12 10 11 13 15 15 15 15 15 16 17
9 15 21 22 25 25 27 25 26 28 32 32 27 25 25 28 30 33 36 35 33 33 32 27 24 22 19 16 15 15 17 16 13 10 12 13 15 16 16 17 18 18 19

GFSMW_925_spd_102.txt.gz
Wind_Speed
11 23 19 17 16 13 11 13 13 12 10 10 11 15 20 25 30 36 43 46 44 42 37 32 26 26 28 21 25 23 23 21 18 17 19 13 11 15 15 16 16 17 21
16 17 20 18 19 15 14 14 14 13 10 10 10 11 18 27 31 29 44 45 46 48 41 35 30 23 21 24 23 23 22 19 18 11 14 3 5 12 17 15 19 19 20
14 18 16 19 20 16 16 15 14 14 12 9 7 3 12 23 29 34 37 49 50 47 41 28 29 26 20 22 24 25 24 16 18 12 6 3 4 10 16 25 22 22 22
7 18 17 16 21 20 17 17 15 17 13 12 9 2 5 12 14 37 34 39 48 43 36 31 31 33 22 28 29 28 23 18 18 18 20 10 3 1 2 12 25 26 26
14 20 18 19 21 23 21 17 19 18 15 14 15 10 14 19 25 23 34 38 41 45 42 36 34 34 29 30 29 24 27 18 22 23 17 20 11 8 4 2 10 25 28
12 18 19 23 20 24 22 18 18 18 17 17 15 12 16 20 24 26 25 27 33 38 39 39 34 31 29 27 23 30 27 28 22 22 20 16 7 13 10 5 9 12 20
11 14 18 16 21 23 22 21 20 18 19 22 18 19 22 24 26 28 27 27 29 32 37 41 36 31 31 27 31 22 28 30 23 20 20 19 20 18 17 18 10 9 20
10 13 17 16 21 23 23 23 22 20 22 21 21 21 22 23 25 30 30 30 30 32 35 39 33 31 32 32 22 31 30 26 25 23 22 24 27 25 25 22 15 6 12
14 14 17 15 24 25 27 26 25 20 23 23 24 21 22 21 23 24 27 28 26 30 33 34 34 34 31 27 32 26 25 24 26 27 28 29 32 29 25 27 27 21 8
14 14 15 16 24 27 27 25 27 25 23 25 24 24 23 22 24 22 25 29 30 27 28 36 38 38 31 34 31 32 31 26 26 25 27 32 33 32 32 33 31 29 27
13 14 14 18 22 27 26 28 26 26 27 27 24 25 26 25 26 25 25 25 27 30 30 35 39 39 37 35 33 33 29 28 29 29 29 34 34 33 31 32 32 30 31
2 14 15 17 21 25 26 26 26 27 28 30 27 24 25 27 27 26 30 28 28 30 30 31 34 34 33 32 30 29 26 29 30 29 30 32 29 31 33 33 32 32 33
4 4 15 17 16 22 25 27 26 25 28 28 29 28 27 25 27 27 26 30 28 27 29 29 31 30 30 31 31 30 30 31 31 31 31 31 30 30 27 28 29 32 30
9 7 7 14 15 21 23 25 26 25 27 29 29 29 29 28 26 27 26 24 25 25 26 25 24 24 23 24 27 28 29 30 31 29 22 18 16 16 17 16 9 12 15
9 7 10 10 14 17 22 23 26 25 25 25 27 28 29 28 27 28 28 29 27 28 26 25 26 24 24 24 26 23 21 12 6 3 3 4 8 10 11 8 13 14 11
16 15 5 12 12 16 22 24 25 28 25 23 23 22 26 27 26 26 27 25 25 23 20 22 19 15 9 8 18 18 10 6 3 7 9 11 13 13 20 21 19 18 14
17 19 6 6 11 17 24 24 25 28 28 24 23 23 24 23 24 22 21 21 19 16 14 12 11 12 10 8 2 7 8 12 16 16 17 18 17 18 16 17 13 16 13
14 12 5 5 11 19 22 23 26 27 27 24 23 23 23 22 23 22 23 22 22 21 21 20 21 22 21 19 19 20 22 24 24 22 21 21 18 19 14 15 15 15 17
2 6 8 14 9 5 21 19 20 22 22 20 20 23 22 25 28 29 28 28 31 29 28 27 27 29 26 24 25 26 28 29 27 24 23 20 19 17 15 16 15 14 18
17 12 9 15 18 23 8 16 13 18 20 22 25 30 30 31 32 31 31 31 36 37 36 36 34 33 31 26 26 26 26 27 23 22 21 23 20 18 17 17 15 16 15
13 17 21 18 19 19 23 24 20 24 24 25 30 34 36 36 33 35 33 35 37 39 38 38 35 34 31 27 25 24 25 22 21 20 21 20 18 17 17 18 18 15 14
13 18 14 17 16 14 21 23 24 21 31 31 33 32 33 37 39 38 35 35 32 33 31 31 30 30 30 29 28 27 25 21 23 19 18 18 16 15 18 18 15 14 15
9 12 14 16 17 15 18 25 22 29 32 35 35 35 36 32 34 41 29 29 27 24 23 24 24 22 21 22 22 23 21 19 20 19 17 16 17 16 19 20 20 21 22
7 9 12 15 17 19 22 27 27 30 35 39 35 34 35 31 28 36 27 25 23 21 22 23 22 22 22 21 18 18 18 17 17 15 17 17 17 18 18 19 20 20 21
10 11 13 15 19 23 24 25 29 33 36 36 33 33 34 37 34 39 35 36 30 24 24 24 25 21 20 19 19 19 19 16 15 15 19 20 19 18 19 20 21 21 21
13 13 16 18 20 24 24 23 25 30 35 33 30 30 27 32 32 35 44 39 36 31 29 28 28 24 20 15 15 20 20 18 16 19 20 20 19 19 18 19 20 20 21

GFSMW_925_spd_105.txt.gz
Wind_Speed
13 23 28 31 28 27 24 18 18 18 17 16 17 16 18 26 32 37 39 45 44 43 41 41 42 42 39 40 37 35 32 29 25 24 19 14 15 19 18 18 26 24 24
18 16 22 24 27 27 24 19 21 20 18 18 18 17 23 24 29 36 43 46 46 46 43 43 43 42 39 39 38 35 32 29 26 18 14 2 4 13 20 19 18 22 27
18 15 16 21 27 26 24 22 22 21 18 17 16 14 15 17 26 28 38 43 48 49 44 43 39 43 40 35 35 35 30 27 24 28 10 3 4 4 15 20 21 22 22
18 17 15 16 24 26 24 21 22 21 18 17 16 17 18 18 23 35 35 45 46 48 44 38 38 34 41 36 32 31 29 26 22 28 13 7 7 3 1 11 25 24 25
23 21 19 22 25 29 26 22 23 21 20 18 16 9 13 15 24 26 25 36 44 44 46 37 38 36 39 40 36 32 27 21 22 21 19 16 8 6 3 2 6 21 30
23 20 19 25 23 28 27 22 23 23 20 19 19 15 17 16 17 23 28 29 40 41 42 37 34 30 30 32 29 25 20 20 21 29 24 19 8 13 5 2 5 12 20
23 20 19 16 22 25 28 22 24 22 21 20 20 18 19 20 21 22 29 31 28 34 37 37 36 31 24 23 19 24 26 23 23 27 26 25 24 18 14 15 8 10 20
20 20 20 17 23 25 27 23 23 21 21 22 20 21 20 23 22 24 25 28 31 33 36 35 31 29 26 26 26 25 26 25 33 32 24 25 27 26 22 20 14 3 9
19 20 18 16 24 26 28 27 24 23 23 23 22 21 23 24 23 22 26 27 30 32 40 39 38 36 29 31 27 28 30 28 29 29 31 32 30 28 26 26 25 20 9
19 20 18 18 25 28 28 28 26 22 25 26 26 25 24 23 24 26 25 26 26 29 40 41 38 36 30 32 31 30 32 35 34 34 34 33 33 33 33 32 34 33 27
15 19 18 20 27 28 29 28 29 25 26 25 27 27 27 24 24 27 30 29 29 28 31 33 33 31 32 34 33 33 36 31 34 32 30 32 32 34 36 35 35 32 29
5 15 18 18 23 26 29 29 29 26 27 25 23 27 27 28 29 28 30 32 32 31 34 35 35 34 33 35 35 38 35 35 33 32 31 34 33 36 38 36 34 32 32
9 8 16 18 18 25 28 28 28 26 27 28 26 25 28 29 30 32 31 31 32 33 32 34 36 35 36 37 38 38 35 36 35 30 31 30 28 25 24 19 14 11 13
4 10 4 17 17 25 29 29 27 27 30 31 29 26 28 29 29 31 32 35 30 30 32 31 30 31 35 38 38 35 35 32 27 22 17 16 15 14 12 8 6 7 11
7 6 9 7 17 19 27 30 31 29 33 30 30 30 29 29 30 30 28 28 31 29 30 30 29 29 26 28 28 28 25 22 16 9 7 7 9 10 8 6 9 9 9
9 7 3 5 9 19 27 31 32 33 34 31 30 29 30 32 29 31 31 26 27 27 28 26 23 19 15 14 21 21 15 13 13 14 12 12 14 18 19 18 19 19 17
19 17 5 5 3 23 32 30 34 33 31 30 29 28 31 29 29 30 30 28 25 22 21 19 17 14 11 11 12 14 16 18 18 18 18 19 19 16 16 17 19 23 23
17 20 17 16 7 32 22 29 33 34 30 28 29 30 32 29 28 26 24 24 25 24 24 22 22 23 21 21 23 24 25 28 26 24 22 21 19 16 17 16 17 20 20
12 12 21 24 26 17 31 10 24 29 26 25 27 28 29 28 30 30 29 28 31 30 29 28 27 29 28 26 28 30 32 31 29 25 22 22 21 17 15 15 16 19 20
15 15 21 23 27 31 7 21 17 18 18 19 20 27 31 33 33 35 35 35 37 38 36 37 35 32 30 27 28 30 32 31 29 27 25 23 22 20 20 21 21 23 21
14 19 20 19 21 22 18 25 24 23 21 23 27 31 33 37 38 38 37 41 42 42 39 40 37 36 31 26 24 24 27 27 25 24 23 22 19 18 19 22 24 21 16
11 15 13 15 17 16 18 20 23 24 28 29 32 31 31 32 36 39 37 40 41 39 36 35 33 33 33 30 27 26 26 25 28 25 23 20 19 22 22 23 20 18 18
11 12 10 11 15 14 17 22 19 25 31 34 32 33 34 34 34 37 34 30 32 31 28 28 25 25 26 27 25 23 25 24 26 25 24 22 20 21 23 22 22 21 21
10 9 10 11 13 15 20 23 24 27 32 34 33 32 35 35 34 33 30 28 26 25 25 24 28 25 27 23 22 22 23 21 21 19 20 21 21 21 21 22 22 22 22
12 11 12 14 15 17 20 21 24 29 31 33 31 33 33 35 39 38 30 36 31 27 27 26 24 23 24 21 20 20 21 21 19 19 21 23 21 21 21 20 19 21 18
16 15 14 17 17 21 22 22 22 26 28 31 29 30 32 37 37 43 43 39 39 36 35 32 32 25 24 23 23 22 22 19 16 24 24 24 22 19 19 18 18 19 19

GFSMW_925_spd_108.txt.gz
Wind_Speed
3 14 24 30 33 33 30 27 26 22 22 20 18 21 22 26 25 29 38 45 43 44 41 40 43 44 39 45 43 34 30 31 28 23 16 14 19 22 23 25 23 24 24
7 14 21 26 31 33 31 29 26 24 22 22 20 17 20 27 32 30 35 38 45 47 44 40 41 45 37 43 42 37 31 27 32 18 15 2 4 19 23 25 24 24 26
12 13 15 22 26 29 33 31 28 26 23 20 19 13 17 17 26 28 31 36 40 44 42 44 40 42 42 39 42 38 36 26 34 29 11 3 4 4 12 18 22 25 27
15 17 16 16 27 28 32 29 30 27 23 21 21 20 17 13 16 27 32 35 42 44 43 42 42 39 41 39 41 41 38 31 27 28 18 11 12 3 1 14 19 20 24
15 20 22 24 26 32 31 30 29 27 24 23 22 21 20 21 22 24 24 37 37 40 40 42 43 40 37 39 37 37 39 32 29 27 22 14 10 8 4 2 5 26 29
13 19 15 21 22 27 30 28 28 27 25 24 22 22 20 21 22 25 26 22 41 37 37 36 40 39 37 40 38 37 34 30 21 30 25 18 9 8 4 2 5 9 15
11 16 17 17 22 26 28 30 28 25 27 24 23 23 21 22 25 26 25 34 26 35 36 37 38 38 41 39 38 33 28 27 28 22 18 21 21 17 23 13 9 11 20
15 21 21 18 22 27 28 28 28 26 28 25 24 21 17 18 16 19 23 27 28 33 38 37 33 39 39 40 36 34 26 23 24 20 21 28 27 23 24 20 14 2 9
11 20 18 17 24 27 29 29 29 27 28 26 26 24 17 15 15 17 21 26 29 32 40 40 34 38 37 36 34 28 25 23 24 25 26 28 30 27 26 25 27 17 6
2 10 16 17 25 28 27 29 29 27 28 26 26 26 24 22 19 20 22 27 27 29 35 38 41 36 33 29 26 26 25 26 29 31 33 29 30 32 31 29 33 32 23
11 7 9 16 22 24 27 29 29 27 26 26 26 26 27 25 22 23 24 27 28 28 31 32 33 32 31 30 30 30 30 31 32 31 32 31 34 32 34 36 36 31 27
11 6 7 6 19 24 25 28 28 27 28 27 27 26 28 26 25 22 23 25 27 28 31 31 28 29 27 30 32 32 28 30 32 33 32 37 32 34 36 35 32 31 29
16 8 8 10 10 21 24 26 28 27 29 28 28 26 28 29 27 27 27 27 28 28 28 30 28 28 29 31 31 33 33 32 32 31 29 28 27 28 24 20 16 11 9
19 5 3 6 7 12 22 25 27 28 30 28 25 27 27 29 29 28 29 29 28 29 29 30 32 32 32 33 35 34 33 31 24 20 18 15 12 14 12 10 6 5 3
8 13 3 4 10 10 12 17 26 29 30 29 27 25 27 28 28 28 27 26 28 28 27 28 28 30 30 29 30 30 26 24 20 10 8 7 12 13 8 9 10 8 10
13 15 12 5 9 13 16 15 17 28 32 29 28 26 26 28 29 27 29 28 25 23 25 24 23 23 22 25 27 27 24 19 18 18 18 18 19 20 20 21 20 18 16
12 14 13 10 14 12 27 24 18 18 27 28 29 28 29 27 29 28 26 25 26 24 23 21 21 17 14 15 20 22 20 20 19 20 20 20 19 19 19 21 21 24 24
12 11 11 11 16 16 15 23 23 21 20 24 28 28 28 26 28 26 26 25 27 26 25 22 20 20 18 22 25 24 25 27 26 25 24 23 21 17 18 18 21 22 23
9 8 11 16 19 20 6 27 26 20 15 16 19 27 28 26 28 27 27 28 30 28 27 25 25 26 25 26 30 31 33 35 32 27 24 23 21 18 17 20 20 19 20
12 11 13 15 21 24 18 10 5 19 16 16 14 21 28 31 30 30 30 29 32 34 33 32 28 29 30 28 30 35 40 38 34 31 29 26 25 20 19 20 18 20 16
11 13 14 15 18 20 17 21 20 19 16 19 23 24 28 34 35 36 36 38 38 39 36 35 33 31 30 28 29 31 32 34 32 30 28 24 24 23 21 20 20 17 12
12 14 11 15 16 15 16 19 20 17 19 23 29 27 28 30 33 36 36 36 37 36 32 34 33 34 32 30 30 32 33 29 34 29 30 26 24 24 19 20 17 14 14
12 13 12 15 17 17 15 19 16 21 22 27 28 29 31 30 30 35 31 29 30 33 30 29 29 27 33 32 29 30 35 32 34 32 29 26 22 21 23 22 20 19 20
9 10 12 14 15 18 21 20 19 24 29 29 28 29 31 31 30 29 25 25 25 28 29 24 25 26 26 31 31 30 30 29 29 26 25 23 22 22 20 20 20 19 18
11 11 12 14 16 19 20 21 22 25 27 27 27 28 29 31 34 33 29 32 29 31 29 32 23 25 27 19 24 26 27 26 26 26 23 22 21 21 19 18 17 16 17
11 11 14 17 15 21 22 23 24 26 27 27 26 27 31 32 35 39 40 39 38 35 33 36 36 29 27 30 25 26 23 22 21 26 26 24 21 18 17 18 15 16 16

GFSMW_925_spd_111.txt.gz
Wind_Speed
15 15 13 23 22 31 35 36 33 30 26 22 19 18 18 17 14 13 30 34 35 40 40 39 40 39 41 43 43 38 37 27 26 24 18 18 19 22 21 22 20 17 15
9 7 10 22 33 29 34 36 34 32 29 25 20 14 19 19 17 20 29 34 36 39 36 36 37 40 37 42 40 34 32 28 31 16 15 3 4 15 21 22 21 17 18
10 9 9 16 22 30 35 37 35 33 29 25 22 17 19 18 17 23 25 33 38 39 37 38 39 40 38 41 43 38 32 24 34 26 9 3 4 6 14 23 22 21 24
10 9 11 11 23 28 30 33 34 32 29 27 25 26 16 17 16 21 25 26 33 36 38 40 40 43 40 38 37 38 37 31 27 24 18 11 11 3 2 10 23 25 26
10 11 15 19 21 23 30 31 31 30 29 27 27 26 26 19 21 24 25 28 28 38 39 36 36 36 38 36 41 34 34 34 30 27 23 16 11 9 4 2 6 19 20
10 11 14 18 18 20 23 30 30 30 28 28 26 26 23 21 18 21 24 28 31 35 39 40 40 39 35 35 37 38 37 36 34 30 29 24 9 7 5 2 3 7 16
19 13 11 15 21 26 26 26 29 26 27 29 28 26 24 21 22 25 26 23 28 31 44 41 38 38 39 39 38 38 37 37 34 29 27 21 15 7 8 3 1 3 12
22 22 14 18 21 27 27 26 28 25 28 29 27 25 22 21 22 24 26 26 29 25 38 43 41 37 37 42 38 35 36 32 31 30 21 18 13 12 13 12 8 4 6
21 24 6 11 20 27 29 30 27 25 26 29 28 25 23 21 23 23 25 29 32 32 33 43 40 39 39 39 36 31 34 29 27 31 26 22 20 17 19 24 17 13 4
26 21 2 6 15 21 26 26 27 26 26 27 26 26 24 21 19 17 19 20 23 28 34 35 38 39 37 39 39 34 33 28 27 25 25 26 26 25 24 26 27 25 20
24 21 13 7 12 12 17 24 25 25 27 27 26 25 24 20 18 17 19 20 23 29 28 34 33 37 39 39 35 33 34 31 25 21 24 29 29 29 30 29 25 26 26
24 20 18 7 12 9 11 17 22 25 27 27 25 24 23 22 18 18 20 20 22 26 32 28 30 33 36 39 37 33 26 26 25 24 28 30 26 28 29 28 28 24 21
24 21 17 5 6 15 11 12 16 19 26 26 25 23 22 22 21 18 19 20 22 23 25 29 26 27 27 29 31 30 29 28 27 24 24 23 21 22 20 19 18 17 15
22 13 12 6 7 13 17 16 15 19 20 26 25 22 22 24 23 21 18 19 20 22 24 27 28 30 28 29 29 27 26 21 18 17 16 15 15 15 15 12 10 8 5
16 15 13 6 5 11 16 18 19 19 19 19 23 22 24 26 24 20 19 19 20 22 24 24 25 23 24 25 26 25 22 20 16 12 9 5 4 6 6 4 5 7 9
15 14 12 10 8 8 10 17 21 25 22 19 17 17 21 27 26 23 22 22 20 18 19 19 20 20 21 22 22 24 21 20 19 19 20 21 23 24 23 21 18 15 16
11 14 13 14 14 16 13 15 20 21 27 23 18 16 19 22 25 25 23 22 23 21 20 19 20 18 17 19 21 22 21 23 23 26 25 25 24 23 24 25 25 25 23
10 12 10 11 20 20 13 13 20 23 23 20 22 19 21 19 21 22 23 23 22 22 21 19 18 19 18 18 20 22 25 26 26 26 26 27 24 22 22 23 28 28 24
7 9 12 13 18 19 16 10 22 23 20 23 20 21 24 22 22 22 23 23 24 22 21 20 21 22 22 24 28 29 32 33 31 29 27 27 25 21 19 21 24 25 22
9 12 15 13 14 21 17 14 9 16 15 24 28 25 25 27 26 26 25 25 26 26 25 23 21 23 26 26 29 33 39 39 35 31 28 24 25 21 19 22 21 23 18
9 13 14 13 15 17 13 15 15 15 13 19 28 27 26 29 30 30 30 30 31 31 31 31 28 27 26 26 28 30 34 33 31 28 28 25 25 25 23 22 22 18 14
10 11 10 13 16 16 12 14 16 14 15 22 24 27 25 26 27 31 30 30 33 35 32 33 33 32 31 29 30 33 36 33 34 30 30 26 24 25 23 25 21 17 16
8 9 10 11 15 18 15 15 13 17 23 24 28 27 28 27 28 30 28 27 28 24 28 28 30 32 33 33 33 33 35 36 38 33 29 26 23 21 25 24 21 19 20
10 10 10 11 13 17 17 17 17 19 27 30 27 31 31 31 29 29 27 28 23 27 21 24 28 30 33 36 37 35 35 35 36 30 23 22 23 21 20 20 21 19 18
10 9 10 11 12 14 16 16 21 25 28 29 28 29 30 32 33 34 31 33 30 33 34 25 26 23 25 23 33 33 29 29 26 28 23 19 18 19 16 15 15 17 18
12 10 11 12 10 13 17 16 17 25 27 27 26 26 30 31 34 37 40 37 36 34 34 31 29 29 26 27 26 26 24 22 22 27 23 19 17 14 12 13 17 19 17

GFSMW_925_spd_114.txt.gz
Wind_Speed
14 19 25 21 14 21 28 33 36 36 33 27 23 21 24 25 24 23 20 27 34 45 39 45 42 42 43 43 43 42 36 28 29 27 14 12 16 18 18 18 17 18 16
18 16 17 13 18 23 29 34 37 37 32 28 24 17 20 20 22 17 20 23 20 37 38 40 42 41 38 42 41 34 29 24 33 17 13 3 3 12 17 18 19 19 19
16 18 9 12 18 20 26 30 34 36 32 26 22 19 18 15 15 15 24 24 24 33 35 36 40 41 40 42 43 40 35 25 33 28 9 3 3 5 11 20 21 20 22
13 13 10 6 17 17 22 25 31 32 33 31 23 25 18 14 12 20 22 28 29 31 31 32 33 37 37 38 42 40 37 31 28 28 9 11 14 3 1 10 22 22 22
10 13 16 14 16 20 25 28 25 27 32 32 30 23 18 18 18 21 20 26 29 33 33 32 30 32 36 39 41 36 36 33 32 28 20 17 12 11 4 3 5 20 24
10 13 17 16 13 20 27 26 26 26 32 32 30 28 25 22 20 21 23 21 28 32 34 36 36 34 37 38 42 40 40 38 34 31 28 23 10 7 5 3 3 6 8
9 14 15 12 9 16 20 23 26 26 31 33 31 26 25 24 23 24 22 23 24 25 31 36 39 39 39 38 40 37 41 38 34 38 31 28 21 19 9 10 1 3 1
11 13 17 18 9 16 20 23 25 25 30 31 29 24 22 22 23 24 23 24 24 26 29 37 36 38 40 38 38 37 38 38 33 34 30 24 18 16 14 10 5 1 5
10 12 16 16 9 12 18 23 23 25 29 29 26 25 24 23 22 20 19 24 27 27 29 35 37 40 39 40 40 36 36 37 32 31 30 28 21 10 9 5 3 3 2
12 13 14 18 24 14 16 20 21 20 24 27 25 24 25 23 20 17 19 22 26 28 31 36 36 39 44 43 41 35 35 35 33 30 30 29 28 27 20 16 15 16 13
10 13 17 24 30 13 16 17 20 20 19 21 24 23 25 22 18 17 14 18 20 23 28 35 36 36 44 44 42 40 38 39 36 37 37 34 32 26 25 27 24 22 22
11 16 20 21 10 12 15 17 19 19 19 20 19 22 24 24 19 16 14 13 15 21 24 27 31 33 36 42 42 40 40 38 35 31 29 29 31 30 27 26 25 24 24
13 20 21 22 4 7 14 17 19 19 19 23 22 20 21 23 20 18 15 14 14 18 19 21 24 28 31 36 40 36 38 36 33 31 30 25 26 24 23 21 20 19 16
12 17 17 16 15 9 10 15 18 20 20 24 22 20 21 22 22 19 18 17 14 15 19 21 23 23 30 31 32 35 29 29 29 27 24 24 21 20 20 18 16 13 11
11 12 16 14 16 18 9 13 15 20 24 25 22 18 19 21 22 21 18 17 17 16 17 20 18 22 22 21 27 29 28 23 23 21 18 14 14 15 14 13 10 10 12
5 7 12 12 12 17 19 9 15 19 24 24 23 20 18 20 20 20 18 17 16 16 18 18 18 19 20 22 22 23 26 27 27 24 19 16 12 12 13 15 15 14 16
7 8 8 12 13 18 20 17 8 21 23 21 21 21 20 20 21 19 18 16 18 18 18 18 18 17 16 18 20 22 26 26 24 25 25 25 26 26 27 28 27 25 22
7 10 10 13 19 23 20 13 11 20 22 21 21 22 22 21 22 20 20 18 20 21 20 19 18 16 14 18 21 24 26 26 25 25 26 28 27 25 26 27 28 28 25
8 9 13 17 21 22 29 22 13 18 21 22 25 28 25 24 25 24 22 21 21 21 21 19 18 18 18 22 26 27 30 32 31 28 26 27 28 24 23 26 31 30 28
9 11 14 13 17 20 22 14 6 15 16 20 23 28 29 30 29 27 27 25 25 25 24 22 21 21 23 23 26 31 38 40 38 34 31 27 27 25 22 24 24 25 16
10 11 10 9 15 21 19 12 14 13 9 12 16 19 25 30 29 30 28 29 28 29 29 30 26 24 21 23 28 33 37 38 35 33 32 29 25 23 24 23 22 22 16
11 12 11 13 18 21 15 14 17 12 11 20 22 21 20 26 28 31 29 31 34 34 32 32 31 31 30 29 29 33 39 38 41 35 34 30 27 27 27 27 23 20 19
12 13 13 14 17 20 18 14 16 11 15 23 24 23 25 27 30 30 28 30 30 30 28 30 31 32 32 34 35 36 37 38 41 37 33 32 29 28 27 25 24 22 21
12 14 14 14 15 18 20 19 15 16 24 24 27 26 25 33 33 30 29 29 26 25 27 33 31 30 35 35 34 34 38 38 37 32 29 28 29 27 25 22 23 23 21
14 13 14 13 13 13 15 15 13 16 25 25 23 26 27 30 36 32 30 31 26 28 28 30 31 32 29 29 36 35 32 32 32 30 26 26 24 24 22 21 18 19 19
12 12 13 12 13 13 14 13 13 17 19 21 21 22 26 30 33 35 38 36 36 37 37 32 38 31 32 32 31 30 29 27 27 28 24 22 22 21 17 17 17 17 17

GFSMW_925_spd_117.txt.gz
Wind_Speed
12 18 22 20 21 20 16 19 23 26 31 31 28 25 23 23 24 25 24 28 32 37 40 35 43 43 42 40 36 34 30 23 23 20 13 10 9 12 13 13 14 15 14
12 14 20 20 16 15 12 16 20 26 30 29 26 18 21 20 21 22 23 26 31 35 35 39 45 45 41 36 39 37 30 24 26 17 19 6 5 11 12 13 15 15 15
11 14 17 23 19 13 14 16 19 22 26 25 23 15 15 12 19 22 23 23 27 26 29 34 42 43 43 41 40 36 33 25 26 24 11 5 5 12 11 16 14 14 14
12 14 17 20 26 18 13 14 18 23 26 27 23 22 18 13 14 18 19 20 18 25 33 37 43 42 40 38 38 36 36 33 29 23 9 13 12 6 5 11 16 15 16
10 14 16 21 29 13 11 15 19 23 26 31 27 23 19 17 13 16 19 19 23 29 34 39 41 41 37 39 39 34 33 31 30 27 18 11 9 10 4 6 12 15 18
12 12 16 21 25 12 6 12 17 21 24 25 26 25 24 21 17 19 21 24 23 27 30 30 34 40 36 38 38 38 36 34 32 30 23 21 13 13 6 3 12 14 11
14 15 15 16 22 16 8 11 16 20 24 24 22 24 24 20 21 20 21 21 24 24 29 30 29 29 33 36 36 36 36 36 34 33 27 22 18 15 10 8 5 4 4
14 15 15 15 21 19 10 12 16 19 21 23 19 18 20 18 18 23 20 25 20 26 30 34 33 34 32 32 37 35 35 35 34 33 30 30 25 20 20 12 10 3 5
14 16 17 19 25 22 16 17 18 19 21 21 20 18 18 22 20 20 24 21 23 25 23 34 33 34 37 35 35 34 34 35 35 36 32 30 24 22 20 14 14 10 3
13 13 14 20 27 28 16 14 20 20 22 22 22 20 19 17 19 19 18 18 21 21 26 30 30 36 37 38 38 34 34 37 35 35 33 32 26 21 18 18 12 8 7
12 13 13 20 29 33 13 11 16 19 22 23 23 20 18 19 19 18 17 15 17 17 19 25 29 35 44 42 40 36 34 36 35 36 36 32 27 25 22 21 22 18 15
9 11 11 15 24 27 23 14 18 18 23 24 23 21 20 20 18 19 14 12 14 17 20 24 30 35 33 43 45 40 39 39 36 40 36 33 32 34 35 30 26 26 26
7 9 13 15 15 25 27 13 17 20 20 22 23 20 20 21 19 17 14 11 10 10 12 18 22 23 34 37 41 43 42 41 38 39 38 36 35 33 31 30 26 26 25
6 8 10 11 15 20 22 24 12 17 21 19 22 22 20 21 21 18 13 12 8 9 11 12 17 15 22 27 32 34 40 37 35 33 34 32 35 31 31 29 29 23 19
8 7 7 9 10 18 22 23 13 19 20 21 21 20 18 21 22 19 15 12 10 9 9 10 11 14 17 26 26 28 31 34 35 33 31 26 26 27 25 23 17 16 14
5 7 8 9 10 17 20 22 20 14 22 20 20 21 22 21 21 21 17 14 12 10 11 13 13 15 14 22 28 35 33 35 35 32 25 19 17 17 17 17 16 14 15
7 9 10 11 13 16 18 20 20 20 20 22 20 21 24 23 22 22 19 15 15 14 14 14 15 14 15 16 25 35 36 32 29 29 28 26 25 23 24 25 26 25 22
8 9 9 13 17 19 20 23 21 17 16 22 22 22 24 24 24 23 23 20 21 20 18 18 17 18 20 21 25 29 31 33 30 29 29 30 29 28 32 34 34 32 30
8 9 13 15 16 18 21 23 20 13 15 19 22 22 24 25 26 27 27 25 25 25 23 21 21 22 24 27 31 32 35 35 32 30 29 30 31 29 29 34 39 36 33
11 13 15 14 16 19 22 21 19 16 13 20 22 22 22 28 31 32 31 29 29 29 27 26 23 24 27 27 31 35 39 41 39 35 33 30 33 28 28 31 32 30 20
13 14 13 13 16 18 19 16 17 19 18 2 21 25 27 29 31 33 34 35 34 33 31 32 27 25 25 27 30 33 37 38 37 34 33 30 28 28 26 27 28 28 22
13 15 13 14 17 19 19 18 19 17 12 7 20 27 28 31 33 35 32 35 37 35 31 34 31 30 30 29 31 36 38 36 39 36 35 32 30 30 28 28 26 24 22
13 14 12 13 16 18 18 17 20 17 16 16 15 25 28 29 30 32 31 28 28 30 27 29 30 31 33 36 37 40 42 43 43 39 36 34 32 31 31 26 24 22 21
13 14 13 13 16 18 18 15 14 16 16 24 23 22 27 32 29 29 24 20 27 24 27 29 31 32 31 31 38 41 43 41 44 39 34 33 32 30 28 27 24 20 17
14 14 13 13 14 15 18 18 16 13 16 19 22 21 28 26 32 31 28 28 21 31 28 31 29 33 32 28 38 42 41 39 39 40 34 29 24 21 20 21 19 17 15
14 15 14 14 14 15 16 16 13 12 16 17 20 23 24 23 30 34 37 34 34 35 36 36 36 33 38 34 34 34 35 37 36 31 25 22 20 19 18 19 17 15 14

GFSMW_925_spd_120.txt.gz
Wind_Speed
5 9 8 11 12 13 13 15 17 18 22 26 29 26 25 23 22 22 23 24 24 32 36 34 35 41 40 38 41 37 33 30 28 25 20 17 15 15 14 15 16 16 16
5 8 13 15 15 17 14 13 13 17 22 24 26 20 21 19 20 19 20 22 23 31 34 34 34 42 39 40 39 38 32 31 32 30 24 8 10 14 15 15 15 16 16
5 8 12 14 15 17 15 13 11 13 20 22 23 21 20 13 16 21 23 25 25 26 28 33 30 41 43 40 40 40 36 31 31 31 27 11 7 20 19 18 17 17 16
5 7 10 13 15 18 13 9 9 11 19 23 24 26 24 20 19 21 22 22 23 24 27 33 35 38 42 41 45 40 38 35 32 29 29 23 19 13 8 19 20 19 18
4 8 10 12 14 17 15 9 7 10 17 22 25 25 21 16 14 18 19 20 22 22 21 27 32 42 43 44 43 40 37 35 33 30 27 21 18 23 14 11 19 20 21
6 9 12 13 15 17 13 10 7 10 15 22 23 22 18 14 14 17 17 17 19 17 21 27 33 39 36 41 41 40 38 33 32 30 29 26 22 19 16 9 18 20 21
7 10 13 13 16 19 16 9 7 11 13 20 20 20 17 17 17 16 17 18 20 21 25 29 33 33 36 39 38 38 37 34 32 32 30 26 24 20 20 14 16 15 11
8 11 12 12 17 20 20 15 9 13 15 20 20 20 20 18 19 17 16 20 19 21 27 29 31 33 35 41 36 36 36 34 33 33 30 28 25 21 20 16 16 8 10
8 10 11 12 15 18 23 18 9 11 16 20 20 21 20 19 19 17 17 17 21 23 22 28 27 31 36 37 35 31 32 32 32 31 31 29 26 21 20 17 23 18 5
9 9 9 11 16 17 16 22 11 11 15 18 22 22 22 22 19 16 16 15 18 18 27 30 30 30 31 38 37 29 30 31 31 30 32 30 23 22 20 20 18 15 9
9 8 8 13 17 15 17 16 17 13 14 19 24 23 22 21 20 18 16 14 15 17 19 26 30 31 33 34 34 36 32 33 32 32 33 31 27 29 27 24 19 13 13
9 7 7 10 14 15 16 20 21 17 17 20 23 22 20 21 20 19 17 14 13 13 16 18 21 26 36 38 36 35 33 36 34 34 32 31 30 33 31 27 21 20 20
10 8 8 8 9 12 17 18 19 28 18 22 23 21 20 20 20 19 16 12 11 11 14 18 19 21 24 27 40 42 39 38 36 35 36 35 36 32 27 28 26 26 27
11 8 9 8 9 12 14 17 19 25 16 20 21 19 20 20 20 19 15 13 11 10 12 13 13 13 17 24 39 42 40 39 40 39 37 33 38 34 32 26 25 24 24
11 8 7 9 10 15 15 14 16 24 23 20 21 19 19 19 19 19 15 14 11 8 9 8 7 8 10 16 31 32 34 31 28 30 32 33 31 32 29 28 27 29 27
7 7 8 10 11 15 16 17 15 22 27 19 21 21 20 20 20 19 16 14 13 10 10 8 8 6 7 13 20 27 27 29 33 35 31 28 31 29 31 30 24 21 23
7 8 10 10 13 16 16 17 17 21 22 17 20 21 21 20 21 20 18 17 17 15 14 14 14 15 16 16 24 27 31 36 33 34 34 31 28 27 26 24 23 21 17
6 8 9 12 16 18 18 22 18 20 19 21 19 22 22 20 21 21 20 23 22 21 20 18 19 21 23 21 31 36 35 35 33 31 32 35 30 28 30 33 36 34 31
7 9 13 15 17 18 20 21 20 22 20 22 19 23 24 21 20 24 27 26 27 25 22 21 24 26 27 30 33 38 39 37 33 31 31 34 34 32 35 37 43 39 36
11 13 15 15 15 18 21 18 16 16 18 19 10 26 25 23 24 28 30 28 30 29 27 25 24 28 32 33 38 39 43 40 38 35 34 32 34 32 32 38 40 36 27
13 15 14 13 16 19 19 17 17 14 20 22 17 22 26 30 31 30 31 33 33 32 30 31 26 27 29 30 34 39 41 41 36 34 33 32 31 32 32 33 34 33 29
13 15 13 14 17 18 19 18 18 21 21 17 9 15 31 32 32 35 30 32 36 32 29 31 29 28 27 27 27 34 39 37 42 36 35 33 33 34 34 35 31 28 27
14 15 14 14 17 18 18 18 20 21 13 14 17 17 20 28 31 34 32 28 27 29 26 25 27 27 30 33 34 38 39 41 43 41 40 37 36 34 32 29 25 24 21
13 14 14 15 17 18 17 16 17 14 13 21 19 21 24 25 25 27 25 26 24 24 26 26 28 30 30 31 34 40 43 44 46 42 35 35 36 34 29 24 21 19 18
14 14 15 15 16 18 18 18 16 13 13 17 18 22 24 31 24 25 24 28 24 24 25 24 29 29 27 26 33 41 42 40 42 45 38 29 26 24 23 21 20 18 17
14 14 15 15 15 16 16 17 16 13 12 15 17 23 22 23 29 29 37 35 36 37 33 31 29 33 33 34 31 35 39 39 38 30 27 24 21 21 21 19 18 16 16

GFSMW_925_spd_123.txt.gz
Wind_Speed
14 15 8 5 8 10 13 18 18 20 22 24 26 27 28 24 26 29 30 24 27 27 29 29 32 33 33 36 40 38 32 26 28 27 22 19 20 18 18 15 18 17 16
9 8 3 5 6 9 12 13 17 17 21 24 25 25 26 19 25 22 25 26 24 25 31 28 30 35 32 37 39 38 30 27 28 26 24 7 15 20 20 20 18 19 18
7 4 4 4 4 6 9 12 13 14 17 21 18 14 18 15 23 26 24 25 23 25 25 32 34 34 35 34 40 42 39 30 31 33 26 10 8 15 18 21 18 21 20
6 3 3 4 5 8 10 11 9 10 13 18 20 24 21 17 18 19 23 22 22 24 25 26 30 32 37 36 41 45 46 32 29 32 31 24 24 13 9 21 20 18 21
3 1 3 6 7 9 10 10 9 7 8 16 14 22 19 23 22 23 23 23 23 25 24 26 26 33 37 38 45 42 45 40 33 34 32 28 21 30 16 12 19 20 23
4 2 3 6 7 8 11 10 8 6 9 14 18 22 24 23 20 17 18 21 21 22 21 22 28 32 36 37 43 46 45 41 36 35 32 29 18 24 18 11 18 20 23
3 1 4 6 9 10 13 13 8 6 9 12 16 20 24 22 16 17 20 20 19 19 19 20 25 28 34 31 39 40 43 43 36 35 33 25 25 24 20 18 17 14 22
2 1 4 6 8 10 11 16 14 5 7 12 14 20 18 18 18 19 18 18 19 20 19 22 24 25 32 33 40 43 41 43 34 33 33 24 24 20 21 15 19 10 14
3 4 4 5 8 12 12 12 15 9 4 11 13 18 20 19 18 16 19 18 19 18 21 23 26 27 32 33 33 32 35 34 38 35 31 27 24 23 19 19 18 20 9
3 4 5 5 10 13 13 12 13 13 10 10 15 17 22 20 16 18 18 18 17 20 24 23 26 27 31 34 32 30 34 34 35 34 35 29 24 25 19 18 17 18 18
6 6 6 7 8 12 14 13 14 15 12 9 13 15 20 25 21 19 19 17 18 18 20 26 28 29 30 33 35 29 35 32 30 30 31 30 27 24 20 19 19 20 20
9 11 7 9 7 10 13 15 14 16 14 14 12 16 22 21 20 18 17 15 15 15 17 25 28 30 32 35 36 33 31 32 29 29 29 31 28 25 21 22 27 27 24
11 12 10 8 7 7 13 15 14 16 15 15 14 17 20 21 21 22 20 20 17 15 18 20 20 24 29 33 36 37 36 35 32 32 32 33 31 28 26 26 26 23 22
12 12 11 9 8 7 10 13 17 19 19 16 15 17 18 20 20 19 20 19 16 15 14 14 15 16 26 32 33 33 34 37 38 38 35 33 32 31 29 30 31 20 15
12 12 8 7 11 12 14 15 16 19 19 17 14 18 19 21 19 19 21 18 16 15 12 12 13 13 17 23 29 35 38 39 36 34 35 33 31 30 30 33 22 21 28
14 10 8 11 10 13 15 16 18 19 22 19 13 16 20 21 20 23 22 21 18 13 12 11 12 11 13 17 20 26 32 31 33 37 33 34 38 35 33 24 20 32 33
8 9 10 9 11 14 15 17 21 20 20 20 15 18 21 19 23 24 22 19 16 17 17 14 13 10 9 14 18 21 27 31 32 34 34 34 30 32 30 29 29 20 21
9 9 9 12 14 15 16 18 20 20 19 20 15 18 21 24 22 23 22 20 21 21 20 17 16 16 17 19 24 28 30 31 29 30 29 33 31 29 32 30 30 29 26
9 10 14 15 15 16 18 17 18 20 18 19 17 17 20 24 22 21 27 26 25 23 21 20 21 21 23 25 28 31 33 34 30 28 28 32 34 35 39 41 44 42 38
14 14 14 14 14 17 19 17 17 20 20 23 24 22 27 22 19 28 29 26 27 26 25 24 22 22 27 28 33 37 40 39 38 33 31 31 34 36 37 42 45 41 32
12 13 12 11 13 16 18 16 18 19 23 25 24 21 27 15 33 31 32 32 30 29 28 29 25 25 26 25 28 35 39 41 36 34 33 31 30 31 34 37 39 40 37
13 13 12 11 12 15 17 17 17 22 24 23 19 19 11 28 35 36 31 33 36 31 27 29 27 27 25 24 23 29 36 36 42 34 33 33 33 35 37 40 37 36 34
14 16 15 14 13 16 18 18 20 23 22 19 15 13 12 8 35 36 32 28 28 29 24 24 25 26 29 31 31 34 36 38 42 39 39 38 39 38 37 32 28 31 30
15 17 17 16 16 18 18 18 19 22 21 17 15 14 22 21 20 23 25 27 25 24 25 26 26 27 28 29 32 37 42 44 49 44 38 37 39 37 35 29 25 21 18
17 17 17 17 19 19 19 20 21 18 18 18 17 16 24 27 26 30 23 22 18 22 30 26 29 30 26 24 30 34 34 35 38 42 38 34 31 29 26 23 21 19 18
17 17 18 18 19 19 19 21 20 17 15 16 16 16 17 19 31 31 35 35 33 33 33 31 36 38 39 32 33 36 38 35 31 31 28 26 25 25 23 22 20 18 17

GFSMW_925_spd_126.txt.gz
Wind_Speed
9 15 13 10 7 3 6 9 13 19 20 16 24 24 28 27 28 32 37 24 30 37 31 27 30 27 29 35 35 29 34 30 28 26 25 18 28 28 23 27 28 28 26
8 13 13 10 5 2 7 11 16 19 20 23 24 26 26 25 26 28 34 33 27 29 34 30 30 31 29 34 35 35 27 28 28 19 21 4 13 23 23 22 23 29 26
11 8 9 6 7 7 2 11 15 19 20 21 21 23 17 16 18 23 30 33 28 31 31 31 30 32 34 33 37 40 34 29 29 26 20 5 4 11 17 23 20 27 25
6 8 7 5 7 9 3 7 13 13 12 17 19 21 16 13 16 17 25 30 24 21 27 29 31 32 32 34 36 40 39 35 27 30 30 20 19 9 5 22 25 22 28
9 6 5 7 1 9 2 7 7 11 8 6 14 14 17 15 16 21 25 29 26 29 24 27 30 32 33 34 37 37 38 39 34 29 32 28 26 25 13 10 15 18 28
9 3 8 2 5 9 6 11 9 5 9 8 13 10 18 19 18 24 24 26 29 26 28 28 29 32 34 35 40 42 44 42 38 28 33 29 22 24 20 9 17 14 24
8 3 5 2 5 5 4 9 19 15 6 6 12 17 17 22 25 24 23 22 23 24 26 29 29 32 35 36 37 37 36 43 42 37 35 33 25 33 29 26 19 13 18
7 5 3 2 3 6 6 8 14 23 5 5 10 17 20 19 22 20 22 21 21 23 24 25 22 28 30 34 36 36 34 39 48 34 35 33 34 36 32 29 27 11 14
6 5 3 5 3 7 11 10 11 17 19 5 11 14 18 21 20 18 23 22 24 24 23 24 25 25 27 29 28 32 33 36 42 37 38 38 37 29 33 31 33 28 8
4 2 1 2 4 7 11 12 10 14 17 21 12 14 16 21 21 18 25 22 20 22 23 22 23 23 25 25 29 30 31 36 38 34 37 39 24 33 24 23 35 31 26
3 1 3 1 4 6 8 11 13 13 18 17 19 16 18 20 24 18 19 22 22 25 24 22 24 26 27 26 30 28 28 31 38 35 39 36 34 22 21 21 26 30 30
2 2 5 4 6 3 1 9 13 14 16 18 20 21 19 20 21 24 20 21 24 22 24 25 25 26 27 27 30 28 30 28 32 34 29 31 31 28 25 24 22 29 30
4 4 5 7 2 4 11 8 9 14 17 18 22 22 18 20 22 23 24 20 23 20 20 26 28 28 27 29 31 31 32 33 35 35 40 38 36 33 31 26 25 27 26
6 6 7 6 13 16 12 11 13 13 18 19 21 22 21 20 22 23 24 23 21 22 21 23 27 30 30 30 32 32 31 32 32 34 35 38 38 35 33 30 31 28 28
9 8 10 9 11 14 14 17 20 17 18 20 20 23 25 20 19 23 25 25 23 20 18 17 20 25 32 32 32 33 32 32 31 35 40 34 39 39 37 37 37 36 33
10 8 11 11 10 14 17 18 19 22 23 21 20 22 26 23 19 20 23 25 23 20 17 15 16 17 17 28 32 33 34 34 36 33 33 35 34 34 35 36 37 33 28
11 12 13 11 14 17 18 19 22 23 21 21 21 22 27 24 18 22 24 25 23 20 18 18 19 17 16 19 20 24 27 28 29 35 41 34 33 38 38 38 36 31 25
13 11 10 13 16 15 17 21 22 22 21 22 20 21 24 25 20 20 24 23 25 25 21 17 15 13 11 14 17 22 19 18 21 29 34 43 38 38 40 36 29 23 16
12 15 18 16 15 16 18 21 21 20 22 22 22 23 25 27 24 21 28 30 28 24 22 19 17 17 17 17 18 22 24 24 22 21 25 33 32 29 36 39 39 36 34
15 15 15 13 14 16 18 20 19 20 20 24 26 26 26 27 26 19 32 32 30 27 25 21 18 20 22 22 24 28 32 33 31 27 26 27 32 33 33 35 43 41 34
16 17 17 16 16 16 19 19 21 19 25 28 28 25 25 27 24 15 33 34 33 30 27 27 23 21 21 20 23 26 34 37 33 32 30 28 30 32 35 38 38 44 45
19 21 18 18 17 18 20 20 19 25 27 26 25 24 24 22 13 25 29 34 36 32 28 29 27 24 22 21 22 27 32 35 40 34 34 33 33 35 37 42 41 38 40
19 21 19 19 19 20 20 20 23 27 27 24 22 21 17 8 4 10 28 29 28 29 26 25 25 25 28 30 30 32 34 37 40 38 39 40 42 42 40 35 33 37 35
19 21 20 19 19 22 21 21 24 27 24 19 19 16 11 12 12 9 4 31 27 24 27 26 25 27 27 29 33 37 41 44 47 45 38 37 40 40 38 34 33 30 27
19 20 19 19 20 21 21 22 23 25 21 15 16 16 15 16 25 29 17 8 21 21 28 28 31 33 27 27 35 39 37 38 41 42 36 35 33 31 30 29 29 27 27
18 18 19 19 19 19 20 21 22 22 19 13 15 16 16 17 17 25 34 33 32 29 27 28 33 30 36 35 36 41 43 39 36 36 33 29 29 28 26 25 25 23 24

GFSMW_925_spd_129.txt.gz
Wind_Speed
8 19 22 18 22 15 11 6 5 6 11 22 27 27 31 33 32 35 36 23 33 34 37 34 33 35 38 36 34 34 35 29 24 17 18 25 20 28 26 27 25 28 26
6 8 14 21 21 18 13 8 8 9 6 11 21 26 30 30 34 35 33 37 29 32 33 34 35 34 33 34 34 36 24 19 31 17 20 5 11 25 28 31 30 29 28
10 8 11 18 19 19 14 6 5 10 14 19 21 21 19 23 25 27 30 32 36 31 34 36 38 36 36 35 37 38 32 24 26 24 17 4 5 9 19 33 32 32 32
4 12 9 8 22 21 16 9 7 13 15 16 20 24 25 16 22 24 27 28 29 32 32 37 38 37 36 34 38 38 36 31 27 26 28 20 19 12 6 21 31 33 36
10 7 9 17 21 18 14 11 7 12 12 9 5 7 18 23 23 24 26 26 28 28 35 35 33 33 37 35 34 35 36 36 31 33 32 25 24 32 14 10 12 28 32
8 12 14 23 21 18 13 9 10 15 15 12 11 9 12 16 17 20 24 27 29 31 28 29 30 31 33 33 36 38 36 36 31 33 32 34 26 27 18 9 17 20 24
13 8 10 11 16 18 15 12 12 21 11 4 7 11 10 16 20 20 24 23 26 27 31 30 32 32 33 32 37 37 38 40 36 34 33 36 26 29 29 24 17 12 16
10 10 9 9 17 21 16 11 11 15 18 13 10 10 14 14 18 22 25 26 26 30 30 31 33 34 34 35 35 36 37 37 39 39 34 34 30 32 33 27 24 9 5
7 9 9 11 20 22 15 11 12 12 18 20 19 16 16 18 20 22 22 25 27 26 29 32 34 34 35 36 37 35 33 33 37 42 46 40 39 32 32 32 34 28 8
6 6 8 9 20 20 18 16 13 11 11 17 20 22 19 20 20 21 18 25 26 29 31 29 28 27 29 31 32 32 33 33 30 29 36 35 38 34 30 33 36 33 28
5 7 6 12 18 17 17 17 17 14 13 16 19 24 24 22 22 20 22 19 27 30 28 31 30 29 30 30 29 29 28 28 30 34 36 35 36 41 23 30 34 32 29
8 7 5 3 12 16 21 17 14 13 12 14 21 24 27 22 23 23 21 21 25 29 29 28 29 24 29 29 29 28 27 28 29 29 26 35 35 37 34 23 33 34 33
6 3 6 13 16 15 19 17 15 14 14 18 22 24 25 24 23 25 24 22 22 30 30 29 29 24 28 29 29 30 28 28 27 31 31 29 37 38 31 20 25 35 37
5 6 14 11 13 15 19 19 18 19 20 22 24 25 23 26 28 25 26 24 26 27 31 30 29 25 27 26 28 30 30 29 27 32 33 36 37 36 35 28 23 30 37
15 13 11 9 12 18 18 17 18 20 22 22 22 22 26 25 29 25 25 24 25 28 31 29 29 29 28 29 30 30 30 29 29 31 35 35 38 42 40 33 24 32 33
18 17 15 14 13 18 18 19 22 24 24 21 21 22 24 27 27 27 27 24 26 27 25 24 28 28 29 29 31 30 30 30 30 30 33 36 46 48 39 35 31 29 31
16 16 16 15 19 20 20 21 23 25 22 20 21 21 24 28 28 31 30 22 27 28 25 22 21 19 19 26 29 29 29 29 30 29 32 30 40 45 43 36 34 34 29
15 13 11 15 17 20 23 24 23 21 21 20 20 23 25 28 28 29 28 24 25 30 27 24 21 20 17 22 28 32 28 25 23 24 25 30 32 46 46 36 32 33 32
13 16 18 15 17 18 21 23 21 21 19 20 23 25 25 29 27 27 28 27 24 30 27 24 22 19 15 14 16 21 20 16 12 10 16 23 29 37 43 39 35 33 28
15 17 19 19 18 19 20 19 18 19 20 26 26 26 27 27 28 28 29 25 20 33 29 24 20 18 17 16 17 17 22 21 21 17 14 16 24 29 41 43 43 40 33
20 23 20 18 18 21 20 15 17 18 25 27 27 26 27 28 28 31 30 19 17 31 30 27 20 20 18 17 19 21 24 28 29 27 26 25 28 29 32 38 38 43 42
17 20 16 15 16 18 18 17 19 25 26 27 27 26 27 27 26 25 15 20 21 15 27 31 25 21 19 18 20 23 25 29 34 32 29 27 28 33 36 38 44 47 46
16 17 17 17 19 22 23 22 24 26 27 26 24 25 24 22 19 12 4 9 14 12 26 26 24 23 24 24 25 27 30 33 37 36 36 36 39 41 42 41 40 41 38
16 18 18 18 20 24 24 23 26 26 25 24 21 21 17 18 18 10 2 7 7 8 12 25 25 26 27 29 32 34 38 41 47 46 37 36 38 39 40 36 32 32 31
18 18 19 20 21 23 23 27 27 27 24 22 19 18 14 13 15 21 9 7 6 7 8 14 32 34 28 28 36 41 41 38 40 44 37 34 35 33 31 31 31 32 32
20 17 18 18 21 21 22 22 25 23 21 18 16 16 14 14 14 14 18 24 19 15 11 9 18 23 32 36 35 36 39 41 38 36 33 29 27 30 30 29 28 28 28